GFSSE_925_temp_000.txt.gz
Temp
20 20 19 19 18 18 19 20 20 20 20 21 21 21 21 21 21 21 21 21 21 21 20 20 20 19 19 18 19 19 20 19 19 19 18 18 18 18 18 18 19 21 18
19 19 18 18 19 19 19 19 19 20 20 21 21 21 21 21 21 21 21 21 21 20 20 20 20 19 18 18 18 19 19 19 18 18 18 17 17 17 18 18 19 19 18
19 19 19 19 20 20 19 19 19 20 21 20 20 21 21 21 20 19 20 20 20 20 20 20 20 19 19 19 19 18 18 18 18 18 19 20 20 17 17 18 18 18 18
18 20 19 18 20 20 21 20 20 20 20 21 20 19 20 19 20 18 17 20 20 20 20 20 20 19 18 18 18 18 18 18 18 18 19 20 21 17 17 17 17 17 17
19 19 18 18 19 19 20 21 20 20 20 20 20 19 19 19 18 18 17 19 19 19 19 19 19 18 18 18 17 18 18 17 18 18 21 20 21 19 18 17 17 17 17
20 19 17 17 18 18 19 20 20 20 19 19 20 20 19 20 19 19 19 19 19 19 18 18 17 17 17 17 17 17 18 18 18 19 20 19 19 19 18 17 17 17 17
19 19 18 17 17 18 18 19 19 19 19 19 18 18 18 18 19 18 18 18 18 18 18 18 17 17 17 16 16 16 17 17 18 20 20 19 19 18 17 17 17 17 17
20 19 19 17 18 18 18 17 18 18 18 18 18 18 18 18 17 17 18 18 18 18 17 17 18 17 17 16 16 16 16 17 17 19 19 19 19 18 17 17 17 16 16
18 18 19 18 18 18 18 17 17 17 17 17 18 18 18 18 18 18 18 18 18 17 17 17 17 17 16 16 15 15 15 15 18 19 19 19 18 17 16 17 17 16 16
18 19 18 19 18 18 18 17 18 17 17 17 17 17 17 17 16 16 17 17 17 17 17 17 16 16 16 16 15 15 15 15 16 18 19 19 17 17 16 16 17 16 16
19 18 17 18 17 17 18 17 18 17 17 17 17 17 16 16 15 14 14 14 15 16 16 16 16 15 16 15 15 14 14 15 16 18 18 18 17 16 16 16 16 16 15
18 18 17 16 17 17 17 17 17 17 17 17 16 16 15 17 17 17 16 14 13 12 14 15 15 15 15 16 15 15 14 14 15 15 17 17 16 15 15 15 16 16 15
18 17 16 15 15 17 17 17 17 15 15 15 15 15 15 15 14 15 15 16 14 14 13 12 13 14 14 15 15 16 16 15 15 14 15 16 15 15 15 15 16 15 15
18 17 16 15 15 15 17 17 17 16 15 15 14 14 14 13 13 13 14 12 12 12 13 13 12 13 13 14 14 14 15 14 14 14 13 14 14 14 14 15 15 15 15
18 16 16 15 15 15 15 15 15 15 15 14 14 14 15 14 13 12 14 14 13 13 14 13 13 12 13 13 14 14 13 12 13 13 15 14 13 14 14 14 15 15 15
17 16 15 15 15 15 15 14 14 14 14 14 14 13 13 14 13 13 12 12 12 12 13 14 13 13 13 13 13 13 13 14 12 11 11 12 14 12 14 14 14 14 14
17 16 16 15 15 15 15 15 15 14 14 14 13 12 12 13 12 12 12 12 11 11 12 12 13 13 13 13 13 14 13 13 12 12 11 11 13 16 13 14 14 14 14
17 16 15 15 15 15 14 15 15 14 14 14 13 13 12 12 12 12 12 11 11 11 11 11 11 12 12 12 12 12 13 13 13 12 11 12 12 14 13 15 14 14 14
16 16 15 14 14 14 14 14 13 13 14 13 13 13 12 12 12 12 12 11 11 11 11 11 10 11 11 10 11 13 12 12 13 12 12 12 13 12 13 14 15 15 14
15 15 15 14 13 13 13 13 13 13 13 13 13 13 12 12 12 12 12 11 11 11 11 11 11 11 11 11 10 11 12 13 13 13 12 11 11 12 13 13 15 15 15
15 15 15 14 13 13 13 14 14 14 13 13 13 12 12 12 12 12 12 12 12 11 11 11 11 11 12 11 12 12 12 12 13 12 12 13 11 12 11 13 12 16 16
16 15 15 15 14 14 14 14 14 14 14 14 13 12 12 12 12 12 12 12 12 12 11 11 11 11 11 11 10 11 13 15 13 12 13 12 13 11 12 11 11 14 16
15 15 15 15 15 14 14 13 13 13 12 13 13 13 12 11 11 11 11 11 11 11 11 11 11 11 11 11 10 11 12 12 10 12 13 12 12 11 10 12 11 13 15
15 15 14 15 14 14 13 14 13 14 15 14 13 13 12 11 11 11 10 10 10 10 10 10 11 10 10 11 11 11 10 10 11 12 11 10 11 11 11 10 10 11 13
15 15 14 14 14 14 13 12 13 13 13 13 12 11 11 11 10 10 10 10 9 9 10 9 9 10 10 10 10 11 11 10 10 10 11 12 10 9 10 10 10 11 11
15 14 13 13 14 13 12 12 11 12 12 12 11 11 11 10 10 10 9 8 8 8 8 8 9 9 9 9 9 10 10 10 11 11 11 11 11 10 8 9 9 10 11

GFSSE_925_temp_003.txt.gz
Temp
23 21 20 20 20 20 20 20 20 20 20 20 21 21 20 21 21 21 21 21 21 21 20 20 20 20 20 20 20 20 20 20 20 19 18 17 17 18 19 20 20 20 19
22 21 19 19 20 19 20 21 20 20 20 21 21 21 21 21 21 20 20 19 20 20 20 20 19 19 18 19 20 20 19 19 19 19 18 18 17 17 18 19 19 20 19
21 21 20 19 19 20 20 20 21 21 20 20 20 20 20 20 20 19 19 20 19 18 19 20 19 19 19 19 19 19 19 18 18 19 19 20 20 18 18 19 18 19 19
19 21 21 19 19 19 19 20 20 20 20 20 19 19 20 20 20 19 19 22 21 19 18 19 19 19 19 18 18 18 19 19 19 19 19 21 21 19 18 18 18 18 18
21 21 18 19 18 19 19 19 19 19 20 20 18 19 19 19 20 18 19 20 20 19 18 18 19 19 18 18 17 18 18 18 18 19 21 21 21 19 18 17 17 18 18
19 19 18 18 18 18 18 18 18 18 18 18 18 19 19 18 18 18 18 19 19 17 17 18 18 18 18 18 18 17 17 17 18 19 22 21 20 19 19 18 17 17 17
20 18 18 18 17 17 18 18 18 18 18 18 18 18 18 19 18 17 17 17 17 18 15 18 18 18 17 17 17 17 17 17 17 21 22 21 19 18 18 18 17 17 16
22 20 19 18 18 18 18 18 18 18 17 17 17 18 18 18 18 18 17 17 17 17 17 17 17 17 17 17 17 17 16 17 18 20 22 21 20 19 18 18 17 16 16
22 21 21 21 19 18 18 18 18 17 17 17 17 17 17 17 18 17 17 17 16 15 15 16 16 16 16 16 16 16 16 16 17 18 21 21 19 18 18 17 17 17 16
22 22 22 22 21 20 20 18 18 18 18 17 17 17 17 17 17 18 17 17 17 16 15 15 15 16 16 16 16 16 16 16 16 18 19 20 18 17 17 16 16 17 17
22 21 20 21 20 20 20 20 19 18 18 18 17 17 17 17 15 16 18 17 16 15 15 14 14 14 15 15 15 15 15 17 18 17 17 17 18 17 17 17 16 16 17
22 21 20 18 19 19 20 20 19 18 18 18 18 17 17 16 16 16 14 16 16 17 16 16 14 14 13 15 15 15 15 18 17 18 18 17 17 17 17 17 15 15 16
22 21 19 18 18 19 19 20 19 17 17 17 17 17 15 15 14 15 14 14 14 15 13 13 14 14 13 13 14 14 16 16 16 17 17 17 17 16 16 16 16 15 16
22 20 19 17 17 18 20 20 19 18 18 18 17 16 16 15 14 14 14 13 13 13 13 14 13 12 12 12 14 13 14 14 14 14 15 15 15 16 16 15 15 15 15
21 20 19 18 17 17 18 18 17 17 17 16 17 16 16 16 15 15 14 14 13 13 12 12 12 13 12 13 12 12 13 13 13 13 13 13 13 15 17 17 15 15 15
21 20 19 18 18 18 18 17 16 16 16 16 16 15 15 15 15 15 14 14 13 12 12 13 12 13 13 14 14 13 13 13 14 14 14 13 13 14 15 16 17 15 15
21 20 19 18 18 18 17 17 17 16 16 16 15 14 14 14 13 14 14 14 13 12 11 12 12 12 12 13 13 14 14 14 14 14 13 13 13 13 14 14 14 15 14
21 20 19 19 18 18 18 17 18 17 16 16 15 14 13 13 13 14 14 13 12 13 12 11 11 11 12 12 12 12 13 14 14 14 13 13 13 14 13 13 14 15 15
20 19 19 18 18 17 17 17 16 15 16 16 15 15 13 13 13 14 14 13 12 13 12 12 12 12 12 13 12 11 12 13 14 14 14 13 13 13 13 14 14 15 16
20 19 18 18 17 16 16 16 16 16 16 15 15 15 14 14 13 14 14 13 13 13 13 12 12 12 12 12 12 12 13 12 13 13 13 14 14 13 12 12 14 15 15
19 18 18 17 17 16 16 16 16 16 16 16 15 14 14 14 13 13 14 14 13 13 12 12 12 12 12 12 12 13 13 14 13 14 13 14 14 13 12 12 12 13 15
19 18 18 18 17 16 17 17 17 17 16 16 16 14 13 13 13 13 13 13 13 13 13 12 12 12 12 13 12 12 13 14 15 13 13 14 14 14 13 12 12 12 13
19 18 18 18 18 17 16 17 16 15 15 15 15 14 14 13 13 13 13 13 12 12 12 12 12 12 12 12 12 13 12 13 13 13 14 13 12 12 13 13 12 11 12
19 18 18 18 18 17 16 16 16 16 16 17 17 16 15 14 13 13 13 12 12 12 12 11 12 11 11 11 12 12 12 12 12 11 12 12 13 12 11 11 12 12 11
20 18 17 17 17 17 16 15 15 15 15 15 15 14 13 13 13 12 12 12 11 11 11 11 11 11 11 11 11 11 12 12 12 13 12 13 12 13 12 11 10 11 11
20 18 17 17 17 16 16 15 14 14 14 14 14 13 12 12 12 12 11 10 10 10 10 10 10 10 10 10 10 10 11 11 12 12 13 13 13 13 13 12 10 10 10

GFSSE_925_temp_006.txt.gz
Temp
22 20 20 20 20 20 20 20 20 21 21 20 20 21 21 21 21 20 20 20 20 20 20 20 20 20 20 21 21 22 22 21 21 21 21 21 21 20 19 19 19 18 19
22 21 20 20 20 20 20 20 20 20 20 20 20 20 20 20 20 20 20 19 19 19 18 18 19 19 20 20 20 20 21 20 20 20 20 20 20 20 19 18 18 19 19
22 21 21 20 20 20 19 19 19 19 19 19 20 20 20 20 20 20 21 22 18 20 20 19 18 19 19 19 20 20 20 20 20 20 19 18 19 20 20 19 18 18 18
21 20 20 20 19 19 19 18 18 18 19 19 20 19 19 20 20 19 20 22 19 18 20 22 18 17 18 19 19 19 19 19 19 20 20 20 19 19 20 20 18 18 18
21 20 20 19 19 19 19 19 18 18 18 18 19 19 19 19 19 19 19 18 18 18 18 17 16 16 18 18 18 18 18 18 18 19 20 21 21 20 20 20 19 18 18
21 20 20 19 19 19 18 18 18 19 18 18 18 19 18 18 18 18 18 18 18 18 18 16 15 17 16 17 18 18 18 18 18 19 20 21 21 19 19 19 18 18 18
21 20 20 20 19 19 19 19 18 18 18 19 19 19 18 18 17 17 17 17 17 17 17 18 18 17 15 17 17 17 17 18 18 18 19 21 21 19 18 19 18 17 18
21 20 20 20 19 19 19 19 18 18 18 18 19 19 19 18 18 18 18 18 18 17 17 17 17 17 17 17 17 17 16 17 18 18 20 21 21 20 19 19 18 17 17
23 22 22 20 20 19 19 19 18 18 18 18 18 18 18 18 17 18 18 18 18 17 16 15 15 16 16 17 17 17 16 17 17 18 19 19 21 19 19 18 18 17 17
23 23 22 23 21 20 19 19 19 18 18 18 17 17 17 17 16 16 16 16 16 16 16 16 15 15 15 15 16 17 17 17 17 18 18 18 19 19 18 17 17 17 17
23 22 21 21 21 20 21 20 19 18 18 18 18 17 17 17 16 15 15 15 16 16 16 16 15 14 14 14 14 15 16 17 17 17 18 17 18 18 18 17 17 16 16
23 22 21 19 19 19 21 21 19 19 18 18 18 17 18 17 16 16 15 15 15 16 16 16 16 16 15 15 15 13 14 15 17 18 18 17 18 17 18 17 17 16 16
23 21 20 19 18 19 20 20 19 18 18 18 17 17 17 16 15 15 15 14 14 14 15 15 14 15 15 14 15 15 14 14 16 17 17 17 18 17 17 17 17 16 16
23 22 20 18 18 19 20 20 19 19 18 18 17 17 17 16 16 15 14 14 14 13 12 12 13 13 13 14 15 13 14 15 15 15 16 16 15 16 16 16 16 16 16
23 22 20 18 18 18 19 18 18 18 18 17 17 16 17 17 15 15 15 14 14 13 13 14 14 14 13 13 14 14 14 13 13 15 14 14 14 14 14 15 15 15 16
22 22 20 19 18 18 18 17 17 17 16 16 16 15 15 15 15 15 15 14 14 13 12 13 12 13 13 13 12 13 13 14 14 13 13 14 14 14 13 14 15 15 15
23 21 20 19 18 18 18 17 17 16 17 16 15 14 14 15 14 14 14 14 14 12 12 12 11 12 12 13 13 13 13 13 13 13 14 14 14 14 13 13 14 15 15
23 21 20 20 19 18 18 17 17 17 16 16 15 14 14 14 14 14 14 14 13 13 13 12 12 12 12 12 12 12 12 13 13 14 14 14 14 14 13 14 13 14 14
22 21 20 19 19 18 18 18 18 17 16 16 15 15 14 13 13 14 14 13 13 13 13 12 12 12 12 12 12 13 12 12 13 13 13 14 14 14 14 14 14 14 14
22 21 20 19 18 18 18 17 17 16 16 16 16 15 14 14 13 14 14 13 13 13 13 12 12 12 12 12 12 12 12 12 13 13 13 13 14 14 14 14 14 14 14
21 20 19 19 18 17 17 16 16 16 16 16 16 16 15 14 14 13 14 14 14 13 13 13 12 12 12 12 12 12 12 12 12 13 13 13 13 14 13 13 13 12 13
21 20 19 18 18 17 17 17 17 17 17 16 16 16 14 14 14 14 13 13 13 13 12 12 12 12 12 12 11 11 9 11 13 12 12 13 13 13 13 13 13 13 12
20 20 19 19 18 18 17 17 17 17 16 16 16 15 14 14 14 13 13 13 13 12 12 12 12 12 11 11 11 11 9 9 10 12 12 12 12 12 12 13 12 12 12
21 20 19 19 19 18 18 17 16 17 15 15 15 15 15 15 13 13 13 13 12 12 12 12 11 11 11 10 11 11 11 11 9 9 11 12 12 12 12 13 13 12 11
21 20 19 18 18 18 18 17 16 16 16 16 15 15 15 14 13 13 12 12 12 11 11 10 10 10 10 10 10 10 10 10 10 9 9 10 12 12 12 12 13 12 12
21 20 19 18 18 17 17 17 17 15 15 14 14 13 13 13 12 12 11 10 10 9 9 9 9 9 9 9 8 8 9 9 9 9 9 9 10 11 12 12 12 12 12

GFSSE_925_temp_009.txt.gz
Temp
19 21 20 19 19 19 19 19 19 19 20 20 20 20 20 21 21 21 22 23 23 22 22 21 20 19 20 20 20 20 20 21 21 20 19 19 19 19 19 19 18 19 19
21 21 21 20 19 19 18 19 19 19 19 20 20 20 20 20 20 20 21 24 24 22 21 20 20 20 19 19 20 20 20 21 21 21 21 20 20 20 20 19 19 18 18
20 20 21 21 20 19 19 19 19 19 19 19 19 19 19 19 19 20 20 20 21 20 20 18 19 19 19 17 19 20 20 20 20 20 21 21 20 20 20 20 19 19 18
20 20 20 21 21 20 19 19 19 19 19 19 19 19 19 19 19 20 20 20 20 20 20 18 20 18 20 17 17 19 19 19 19 19 20 20 19 20 20 20 19 18 18
20 20 20 21 20 19 19 18 18 19 19 19 19 19 19 19 19 19 19 19 19 18 18 18 19 18 19 18 16 16 18 19 19 19 19 19 19 19 20 19 19 18 18
20 20 19 19 20 20 20 19 19 19 19 20 19 19 19 19 19 19 19 18 18 17 17 18 18 19 18 19 18 17 17 18 19 19 19 19 19 20 19 19 19 18 17
20 20 20 20 20 20 20 20 20 20 20 19 19 19 19 19 18 18 18 18 18 18 18 18 19 19 18 17 18 17 16 17 18 19 19 19 19 20 20 19 19 18 17
21 20 21 20 20 20 20 20 19 19 19 19 18 18 18 17 17 17 17 17 17 17 18 18 18 17 18 17 17 16 16 17 18 18 19 18 19 20 20 19 19 18 17
21 21 21 20 20 19 19 19 19 19 19 19 18 17 17 17 17 17 16 17 16 16 17 16 16 16 16 16 16 16 16 16 17 18 18 18 19 20 20 19 18 18 17
22 21 19 19 20 19 19 19 19 19 18 18 18 17 17 17 16 15 16 16 16 16 16 17 16 16 15 15 15 15 15 16 16 17 18 18 19 19 18 18 18 18 17
22 22 21 20 19 19 19 19 19 18 18 17 18 17 17 16 16 16 15 15 15 15 15 16 16 16 15 15 15 15 15 15 15 15 17 17 18 18 18 18 18 18 17
21 21 21 20 20 20 19 19 19 18 18 18 17 17 17 16 17 16 15 15 15 15 15 15 15 15 15 15 15 15 16 16 16 15 16 17 17 17 18 18 18 18 17
22 21 20 19 19 19 19 19 19 18 18 18 17 17 16 16 16 15 15 14 14 14 14 14 14 14 14 14 15 15 15 15 16 16 16 16 16 16 17 17 17 17 17
21 21 20 19 18 19 19 19 19 18 18 17 17 16 17 16 16 15 15 14 14 14 14 13 13 13 14 14 13 13 14 15 16 16 16 16 16 15 15 16 16 16 16
22 21 20 19 18 19 18 18 18 18 18 17 17 16 16 16 16 15 15 14 14 13 13 13 12 12 12 12 13 13 13 13 15 14 15 16 16 15 15 15 15 15 15
23 21 20 19 18 18 18 18 18 17 17 17 16 16 16 15 15 15 14 14 14 13 13 13 12 12 12 12 12 12 13 12 13 13 13 14 14 14 14 15 15 15 15
23 21 20 19 18 18 17 17 17 17 17 16 16 15 15 15 15 14 14 14 13 13 12 12 12 12 12 12 12 12 12 12 12 12 12 13 14 14 14 14 14 14 14
23 21 20 20 19 18 18 17 17 17 17 16 16 15 15 14 14 14 14 14 14 13 13 12 12 12 12 12 12 12 12 12 12 13 13 13 13 14 14 13 14 14 14
22 21 20 20 19 18 18 17 17 17 17 16 16 15 15 14 14 14 14 14 13 13 13 12 12 12 12 12 12 12 12 12 12 12 13 13 13 13 13 15 14 14 14
22 21 20 20 19 18 18 17 17 17 16 16 15 15 15 15 14 14 13 14 13 13 13 13 12 12 12 12 12 12 12 12 12 12 12 12 13 13 13 13 13 13 14
21 21 20 19 19 18 18 17 17 16 16 16 16 16 15 14 14 14 14 13 13 13 13 12 12 12 12 12 11 11 11 12 11 12 11 12 12 12 12 12 12 13 13
21 20 20 19 19 18 18 17 17 16 16 16 16 16 15 14 14 14 14 13 13 13 13 12 12 11 11 11 11 10 7 10 11 11 11 11 11 12 12 12 12 11 11
21 21 20 19 19 18 18 17 17 16 16 16 16 15 15 15 15 14 13 13 13 13 12 12 12 11 11 11 11 10 7 7 8 10 10 11 11 11 11 12 12 12 12
21 21 20 20 19 19 18 17 17 17 16 16 17 16 15 14 14 14 13 13 13 12 12 11 10 10 10 9 10 10 10 9 8 8 9 9 10 10 11 11 12 12 12
21 21 20 19 19 19 18 18 17 17 17 16 16 16 15 15 14 13 13 12 11 11 11 10 9 10 9 8 8 8 8 8 8 7 7 8 9 9 10 11 11 11 11
20 20 20 20 19 19 18 18 17 17 16 16 15 14 14 13 12 12 12 11 11 9 9 8 8 9 9 8 8 8 7 7 7 7 6 7 7 8 9 9 10 10 11

GFSSE_925_temp_012.txt.gz
Temp
18 18 19 20 20 20 20 20 20 20 20 21 21 21 20 20 20 20 21 22 22 22 21 22 21 21 20 20 19 19 19 20 20 20 19 20 20 19 19 18 18 18 19
19 20 20 20 19 19 19 19 20 20 20 20 20 21 21 20 20 20 20 20 20 20 20 20 20 21 21 20 19 18 19 19 19 19 19 19 19 19 19 18 18 18 19
21 20 20 20 20 19 19 19 19 19 20 20 20 20 20 20 20 20 20 20 20 20 19 20 18 19 19 19 20 20 18 18 19 19 18 18 18 19 19 18 18 18 18
20 20 20 20 20 19 19 19 19 20 20 20 20 19 19 20 20 20 20 19 19 18 18 19 19 20 19 19 19 19 19 18 18 19 19 18 18 19 19 19 19 19 18
20 19 19 20 20 20 20 20 20 20 19 19 19 19 19 19 19 19 19 19 18 18 18 18 18 19 19 19 20 22 21 20 18 19 19 19 18 18 18 19 19 18 18
20 19 20 21 21 21 21 20 19 19 19 19 18 18 18 18 18 19 19 18 18 18 17 17 17 18 18 19 20 20 20 19 17 18 19 19 18 19 18 19 19 18 18
20 20 20 20 20 20 20 19 19 19 19 19 19 19 18 18 18 18 17 18 17 17 17 17 17 17 17 17 18 19 17 18 17 17 18 17 18 19 19 19 19 19 18
21 21 21 20 20 20 20 20 20 19 19 19 18 18 18 18 18 18 18 17 17 17 18 18 17 16 16 17 17 18 17 17 16 16 18 17 18 18 18 19 19 19 18
21 20 19 19 19 19 20 20 20 19 18 18 18 17 17 17 17 17 17 17 17 17 17 18 17 16 15 16 16 16 16 16 16 16 17 17 17 19 18 18 18 18 18
20 20 19 19 18 19 19 19 19 19 18 18 18 18 17 17 17 17 17 17 17 17 16 16 16 15 16 16 15 16 16 17 16 15 16 16 17 19 18 18 18 18 17
19 19 19 19 18 18 19 18 18 19 19 18 18 17 17 16 16 16 16 16 16 16 16 16 15 15 15 15 15 16 16 16 16 16 16 16 17 17 17 18 18 18 18
19 19 20 20 19 18 18 18 18 18 18 18 17 17 17 16 16 16 15 15 14 14 15 15 15 15 15 14 14 15 15 15 15 15 16 16 17 16 17 17 17 17 17
21 21 20 20 19 18 19 18 18 18 18 17 17 17 17 16 15 15 15 14 14 14 14 14 14 14 14 14 14 14 14 14 15 15 15 16 15 15 16 15 16 16 16
20 20 20 20 19 18 18 18 17 17 17 16 16 16 16 16 15 15 14 14 13 13 13 13 13 13 13 13 13 13 13 13 14 14 14 15 15 15 15 15 15 15 15
21 20 20 20 19 18 18 18 18 17 17 17 16 16 16 16 15 15 15 14 14 13 13 13 12 11 11 12 12 12 12 12 12 13 14 14 15 15 14 13 14 15 15
21 21 21 20 20 18 18 18 18 17 17 17 17 16 16 15 15 15 14 14 14 13 13 13 13 12 12 12 12 12 12 12 12 12 12 13 14 14 14 14 14 14 14
22 21 21 20 19 19 18 18 17 17 17 17 16 16 16 15 15 14 14 14 13 13 13 13 13 12 12 12 12 13 12 12 12 12 12 13 13 14 14 14 14 14 14
22 21 20 20 19 19 18 17 17 17 17 17 17 16 16 15 15 14 14 14 13 13 13 12 13 12 12 12 12 12 12 12 12 12 12 12 12 12 13 13 13 14 14
22 21 20 19 19 18 18 18 17 17 17 16 16 16 16 15 14 14 14 13 13 13 13 12 12 12 12 12 12 12 12 12 12 12 12 12 12 12 12 12 13 13 13
21 20 20 19 19 19 18 18 17 17 17 16 16 16 15 15 15 14 14 13 13 13 13 12 12 12 12 11 11 11 11 11 12 12 12 11 11 11 12 12 12 12 12
20 20 20 20 19 19 18 17 17 17 16 16 16 16 15 15 15 14 14 13 13 13 13 12 12 12 11 11 11 11 11 11 11 11 11 12 11 11 11 11 12 12 12
21 21 20 20 20 19 18 18 18 17 17 17 16 16 15 15 15 15 14 14 13 13 12 12 12 11 11 11 10 8 6 9 10 10 10 10 10 10 10 11 11 11 12
21 21 21 21 20 20 19 18 18 17 16 16 16 16 16 15 14 14 14 14 13 13 13 12 12 11 10 10 10 9 6 5 7 9 9 9 10 9 10 10 10 11 11
21 21 20 20 20 19 18 18 17 17 16 17 17 16 16 16 15 14 14 13 13 12 12 11 10 9 9 8 8 9 8 7 5 6 8 8 8 9 8 9 9 10 10
21 21 21 20 20 19 18 18 17 16 17 17 17 16 16 15 15 14 13 12 12 11 10 9 9 8 7 7 7 7 7 7 7 5 5 7 7 7 7 7 8 9 9
20 19 19 19 19 18 18 18 17 17 16 15 16 15 15 14 14 14 12 11 10 9 9 8 7 6 5 6 7 6 5 5 5 5 4 5 5 6 6 6 6 8 8

GFSSE_925_temp_015.txt.gz
Temp
19 19 18 19 20 20 20 21 21 20 20 20 20 20 20 20 20 20 20 19 19 20 20 20 20 19 20 20 20 21 21 20 20 20 19 20 19 19 19 19 18 18 18
19 18 18 19 19 20 20 21 21 20 20 20 20 20 20 20 20 20 19 19 19 20 20 20 19 18 18 19 20 20 20 20 20 20 20 19 19 19 19 19 18 18 18
19 19 19 19 19 20 20 20 20 20 20 20 20 20 20 20 20 19 19 19 20 20 20 20 19 19 19 19 19 19 19 19 19 19 20 19 19 19 19 19 18 18 18
18 19 19 19 19 20 20 19 20 20 20 20 19 19 19 19 19 19 19 19 18 19 19 19 19 19 19 19 19 20 20 20 19 19 19 19 18 19 18 19 18 18 18
19 20 20 20 20 20 19 19 19 19 19 19 19 19 19 19 19 18 18 18 19 18 18 18 18 19 19 19 19 20 20 19 18 17 18 18 18 18 18 18 19 19 18
20 20 20 20 20 21 20 20 20 20 20 19 19 18 18 18 18 18 18 18 18 18 17 17 17 18 18 18 18 19 19 19 17 18 18 17 17 18 18 18 18 19 18
20 20 20 20 21 20 20 20 20 20 19 19 19 19 19 18 18 18 18 18 18 18 17 17 17 17 17 18 18 18 18 18 17 17 18 17 17 18 18 18 18 18 18
21 20 20 20 20 20 21 20 20 19 19 18 18 18 18 18 18 18 18 17 17 17 17 17 17 18 17 17 17 17 17 17 17 17 17 18 17 18 18 17 18 18 18
21 20 20 20 20 20 20 20 19 19 19 18 18 18 18 18 18 18 17 17 17 17 16 16 16 16 16 16 15 16 16 16 16 17 17 17 16 17 17 17 18 18 18
20 20 20 19 19 19 19 19 18 18 18 18 17 17 17 17 17 16 16 16 16 16 16 15 15 15 15 15 16 15 15 15 15 16 16 16 17 17 18 19 17 18 17
19 19 19 19 19 19 19 18 18 18 18 18 17 16 16 16 16 16 15 15 15 15 15 15 15 15 15 15 15 15 15 15 14 15 15 15 16 17 18 17 16 17 17
19 19 18 19 18 18 18 18 18 18 17 17 17 17 16 15 15 15 15 15 15 15 15 14 14 14 14 15 14 14 15 15 14 14 14 14 15 16 16 16 16 16 16
19 19 19 19 18 18 18 18 18 17 17 17 17 17 16 16 15 15 15 15 15 14 14 14 14 14 14 14 14 14 14 14 14 14 14 14 14 15 14 15 15 16 16
19 20 19 19 18 18 18 18 18 17 17 17 17 16 16 16 15 15 14 14 14 14 14 14 14 13 13 13 13 13 13 13 13 13 13 14 14 13 15 14 14 14 15
20 20 20 19 19 19 19 18 17 17 17 16 16 16 16 16 16 15 14 14 14 14 13 13 13 13 12 12 12 13 12 12 12 12 12 13 14 14 13 13 14 14 14
21 20 20 20 20 19 18 18 17 17 17 16 16 16 16 16 15 15 14 14 13 13 13 13 13 13 13 12 12 12 12 12 12 12 12 13 14 14 14 13 13 13 13
21 21 20 20 20 19 18 18 17 17 17 16 16 16 16 16 15 15 14 14 13 13 13 13 13 13 13 12 12 12 12 12 12 12 12 12 13 14 13 13 13 12 12
21 20 20 20 19 19 19 18 18 17 17 17 16 16 16 16 15 14 14 14 13 13 13 13 13 12 12 12 12 12 12 12 12 12 12 12 11 12 12 12 12 13 13
21 20 20 19 19 19 18 18 18 17 17 17 16 16 16 16 15 15 14 14 13 13 13 13 13 12 12 12 12 12 12 12 12 11 11 11 11 11 11 12 12 12 12
20 20 20 20 19 19 18 18 18 17 17 17 17 16 16 15 15 15 15 14 13 13 13 13 12 12 12 12 11 11 12 12 11 11 11 10 11 11 10 11 11 11 12
20 20 20 20 20 19 18 17 17 17 17 17 17 17 17 16 15 14 15 14 13 13 13 13 12 12 12 11 10 11 11 11 11 11 10 10 10 10 10 10 10 10 11
21 20 20 20 19 19 19 19 18 18 18 17 17 17 16 16 16 15 14 14 14 13 13 13 12 12 11 11 10 8 6 8 10 10 10 9 9 9 9 9 9 9 10
20 20 20 20 20 19 19 18 18 17 17 17 17 17 17 16 16 15 15 14 14 14 13 13 12 11 11 10 9 9 5 5 5 9 9 9 9 8 8 8 8 8 9
21 20 20 20 20 19 18 17 17 16 15 17 18 17 17 16 16 15 15 14 14 13 13 12 11 10 10 8 8 8 8 7 4 3 7 7 7 7 7 7 7 7 8
20 20 20 19 18 17 17 16 16 15 16 15 15 15 15 15 14 15 15 14 12 12 11 10 9 8 7 7 6 6 6 6 5 3 4 5 5 5 6 6 6 6 7
18 17 17 17 17 17 16 15 15 14 15 14 14 14 14 13 13 13 13 11 11 10 8 6 5 5 5 4 4 4 4 4 4 4 2 4 4 4 5 5 5 6 6

GFSSE_925_temp_018.txt.gz
Temp
18 18 18 19 19 20 21 20 20 20 21 21 21 21 21 20 20 20 19 19 19 19 19 20 20 20 19 20 20 20 20 20 20 20 20 20 20 20 20 20 20 19 18
19 18 18 18 19 20 20 20 19 20 20 20 20 21 20 20 20 20 20 19 19 20 19 19 20 20 19 19 20 20 20 20 20 20 20 20 19 19 20 20 20 19 18
19 19 18 18 19 18 19 19 20 19 20 20 20 20 20 20 19 19 19 19 19 19 19 20 19 19 19 19 19 19 19 19 19 19 19 19 19 18 19 19 19 19 18
19 19 18 18 19 19 19 19 20 20 20 19 19 19 19 19 18 19 19 19 19 19 19 19 19 19 19 18 19 19 18 18 18 18 18 18 18 18 18 18 18 19 18
19 19 19 19 19 20 20 20 20 20 20 20 19 19 19 18 18 18 18 17 18 18 18 19 19 19 18 18 18 17 17 18 17 18 18 17 17 18 18 18 18 18 18
19 19 20 20 20 20 20 20 20 20 20 19 19 18 18 18 17 17 17 18 18 18 18 18 18 18 18 17 17 17 17 17 18 17 17 17 18 18 17 17 18 18 18
19 20 20 20 20 21 20 20 20 20 19 19 19 19 18 18 18 18 18 18 17 17 17 16 17 17 17 16 16 16 17 17 17 17 17 17 18 18 17 18 19 18 18
20 20 20 20 20 20 19 19 19 19 18 18 18 18 18 18 18 18 17 17 17 17 17 16 16 16 15 15 15 16 16 16 16 16 16 17 18 18 17 17 17 18 18
19 20 20 20 20 19 20 19 19 18 18 18 17 17 17 17 17 16 16 16 16 16 16 16 16 15 14 14 15 15 15 15 15 15 16 16 17 17 17 18 18 17 18
19 20 20 19 19 19 19 19 19 18 17 17 17 17 17 17 16 16 16 16 16 15 15 15 15 15 15 15 14 15 15 15 15 15 15 15 16 16 16 17 18 18 17
19 19 19 19 19 19 19 18 18 18 18 17 17 17 17 16 16 16 16 16 15 15 15 15 15 15 15 15 14 14 14 14 14 15 15 15 15 15 15 16 17 16 16
19 19 19 19 19 18 18 18 18 18 18 17 17 17 16 16 16 16 15 15 15 15 15 15 15 15 15 15 15 14 14 14 14 14 14 14 15 15 15 15 15 16 16
19 19 19 19 19 19 18 18 18 18 17 17 17 16 16 16 15 15 15 15 14 14 14 14 14 14 14 14 14 14 14 14 13 13 13 13 13 14 15 15 15 15 15
19 19 20 20 20 19 18 18 18 18 17 17 17 16 16 16 15 15 15 15 14 14 14 14 14 13 13 13 13 13 13 13 13 13 13 13 13 13 14 14 14 15 14
19 20 20 20 20 19 18 18 18 18 17 17 16 16 16 16 16 15 15 15 14 14 14 13 13 13 13 13 13 13 12 12 12 12 13 13 13 13 13 13 13 13 13
20 20 20 20 18 18 19 19 18 17 17 17 16 16 16 16 16 15 15 15 14 14 13 13 13 13 13 13 13 13 13 12 12 12 13 13 13 13 12 12 13 13 12
20 20 20 19 18 18 19 18 18 17 17 17 16 16 16 16 16 15 15 14 14 13 13 13 13 13 13 13 13 12 13 13 12 12 12 12 12 12 12 12 12 12 13
20 20 20 19 19 19 19 18 18 17 17 17 16 16 16 16 16 15 15 15 14 13 13 13 13 13 13 12 12 12 12 12 12 12 11 11 11 11 11 11 11 11 12
19 20 20 19 19 19 19 18 18 17 17 17 17 16 16 16 15 15 15 15 14 14 13 13 13 13 12 12 12 12 12 12 11 11 11 11 11 11 11 10 10 11 11
20 20 19 19 19 19 19 18 18 17 17 17 17 17 17 16 15 15 15 15 14 14 13 13 13 13 12 12 12 11 11 11 11 11 11 11 11 11 11 10 10 10 10
20 20 20 20 20 19 19 18 18 18 18 18 18 18 17 17 16 15 15 14 14 14 14 14 13 12 12 12 11 11 11 11 11 11 10 10 10 10 10 10 10 9 9
20 20 20 20 20 20 19 18 17 17 17 17 18 18 17 17 17 16 15 14 14 14 14 13 13 12 12 11 10 7 6 8 10 10 10 9 9 9 9 9 9 8 8
20 20 21 20 19 17 17 16 16 16 16 16 17 17 17 16 15 16 16 15 15 14 13 14 13 12 11 11 10 10 4 5 4 9 9 9 8 8 8 7 7 7 7
19 18 18 17 17 16 15 15 14 14 13 15 14 15 15 15 15 14 13 13 14 12 12 12 12 11 10 9 7 8 7 7 4 5 7 7 7 7 6 7 6 6 6
16 16 16 15 14 14 14 14 14 13 13 12 13 13 13 14 13 13 12 11 11 10 10 10 9 9 8 8 7 5 5 5 6 4 3 4 5 5 5 5 5 5 6
15 15 15 15 15 15 15 14 12 12 12 12 12 12 12 12 12 12 11 10 9 8 8 7 7 6 5 5 4 4 3 3 2 2 1 2 3 4 4 4 4 4 5

GFSSE_925_temp_021.txt.gz
Temp
18 19 19 19 19 19 19 19 19 20 20 20 21 21 21 20 20 20 19 19 19 19 19 19 19 19 20 20 19 19 19 19 20 20 20 19 19 19 19 19 20 19 19
19 18 18 18 19 19 19 19 20 20 21 21 21 20 20 20 20 19 19 19 19 19 19 20 20 20 20 20 20 19 19 19 19 19 19 19 19 19 19 19 19 18 19
19 19 18 18 19 19 20 19 19 19 20 20 21 20 20 19 19 19 20 19 19 19 19 19 20 19 19 19 19 19 19 18 18 19 19 18 18 18 19 18 18 18 18
20 19 19 19 19 19 19 20 19 19 19 19 20 20 19 19 19 19 19 19 19 19 19 19 19 19 18 18 18 18 18 18 18 18 18 18 17 18 18 18 18 18 18
20 20 19 19 19 19 19 19 19 19 19 19 18 18 18 18 18 18 18 19 18 18 18 18 18 18 18 17 17 17 17 17 18 17 17 17 18 18 17 18 18 18 17
19 19 19 19 19 20 20 19 19 19 19 18 18 17 17 17 17 17 17 17 17 17 17 17 17 17 17 16 16 16 16 17 17 16 17 17 17 17 18 17 18 18 18
19 19 19 19 19 19 19 20 20 20 20 19 19 18 17 17 16 16 16 16 16 16 16 16 17 17 16 16 16 16 16 16 16 15 15 16 17 17 17 18 18 18 18
19 19 19 19 19 19 19 19 19 18 18 18 18 18 18 18 18 17 17 17 16 17 17 17 16 16 16 15 15 16 16 16 16 15 15 15 16 16 17 17 18 18 18
19 20 19 19 19 19 19 19 19 19 19 18 18 17 17 17 17 17 17 16 16 16 16 16 16 16 15 15 15 15 15 15 15 15 15 16 16 16 15 16 17 17 18
19 19 19 19 19 19 19 19 19 18 18 18 17 17 17 17 17 16 16 16 16 15 16 15 15 15 15 15 15 15 15 15 14 14 14 14 16 16 16 15 17 17 18
18 19 19 19 19 19 19 18 18 18 18 18 17 17 17 17 17 16 16 16 16 15 15 15 15 15 15 14 14 14 14 15 15 14 14 14 15 15 16 16 16 17 17
18 19 19 19 19 18 18 18 18 18 18 17 17 17 16 16 16 16 15 15 15 15 15 15 15 15 15 15 14 14 14 14 13 13 13 14 15 15 14 14 15 15 16
19 19 20 19 19 19 18 18 18 18 17 17 17 17 16 16 16 15 15 15 15 14 14 14 14 14 14 14 14 14 14 14 13 12 13 14 14 14 15 14 14 14 15
20 20 19 19 19 20 19 18 18 17 17 17 17 17 16 16 16 15 15 15 15 14 14 14 14 14 13 14 14 14 14 13 12 12 12 13 13 13 14 14 14 13 14
19 20 19 19 20 19 19 19 18 17 17 17 17 17 16 16 16 16 15 15 15 14 14 14 14 14 14 13 13 13 13 13 13 12 12 13 13 13 13 13 14 13 12
20 20 19 20 20 19 19 18 18 18 17 17 17 16 16 16 16 16 15 15 15 14 14 14 13 13 13 13 13 13 13 12 13 13 12 12 12 12 12 12 12 12 12
20 20 19 20 20 20 19 18 18 17 17 17 17 16 16 16 16 15 15 15 15 15 14 13 13 13 13 13 13 13 12 12 12 12 12 12 11 12 12 12 12 12 12
19 19 19 20 20 19 18 18 18 17 17 17 17 16 16 16 16 16 15 15 15 14 13 13 13 13 13 13 12 12 12 12 12 12 12 11 12 11 11 11 11 12 11
20 19 19 20 19 19 18 18 18 18 18 17 17 17 17 17 16 16 16 16 15 15 14 13 13 13 12 12 12 12 12 12 12 11 12 11 11 11 11 12 11 11 11
20 19 19 19 20 19 18 18 18 18 18 18 18 18 17 16 16 16 16 16 15 14 14 14 13 12 12 12 12 12 11 11 12 11 11 11 10 10 10 11 11 10 10
19 19 20 20 20 18 17 16 17 17 17 17 17 17 16 16 16 15 14 14 14 13 14 14 13 11 11 11 10 11 11 10 10 10 10 10 10 10 10 9 9 9 9
19 19 18 16 16 16 15 15 15 15 16 16 16 16 16 15 15 14 14 14 13 11 12 12 11 11 10 10 12 12 13 13 10 9 9 9 9 9 9 9 9 8 8
15 15 15 15 15 15 14 14 15 15 14 14 14 14 15 14 14 14 13 12 12 11 10 11 10 10 12 11 10 13 13 13 13 9 8 9 8 8 7 7 7 7 7
14 15 15 14 14 14 14 14 13 12 12 12 11 11 12 13 13 13 13 12 11 10 9 9 10 9 10 11 9 9 9 10 12 13 9 8 7 7 6 6 6 6 6
14 13 14 14 14 14 13 13 11 10 10 10 10 10 10 11 12 12 12 12 11 9 8 8 8 7 8 8 10 10 7 8 7 10 12 10 6 6 6 6 6 5 5
14 14 14 14 14 12 12 11 11 11 10 10 10 10 10 10 10 11 11 10 9 8 7 5 5 5 5 6 5 5 6 8 8 7 7 7 7 6 5 5 5 5 5

GFSSE_925_temp_024.txt.gz
Temp
22 19 19 19 19 19 20 20 21 21 20 21 21 21 20 20 20 20 20 20 19 19 19 20 20 20 20 20 20 20 20 19 19 19 19 20 19 19 19 19 20 21 19
21 20 20 19 20 19 20 20 20 21 20 20 20 20 20 20 20 20 20 20 19 19 20 19 19 19 19 19 19 19 19 19 19 19 19 20 20 19 19 19 20 19 18
21 20 20 19 19 19 19 19 20 20 20 20 20 20 20 20 20 20 19 19 19 19 19 19 19 19 19 18 18 18 18 19 19 19 20 21 21 19 18 18 18 19 18
21 20 20 19 19 19 19 19 19 19 19 19 19 19 19 19 19 19 19 19 19 19 19 19 18 18 18 17 18 18 18 18 18 19 20 21 21 19 18 18 18 18 18
20 20 18 18 18 19 19 19 19 19 19 19 19 19 19 18 18 18 18 18 18 18 17 17 17 17 17 17 17 17 17 17 18 19 21 20 21 19 18 18 18 18 18
20 20 19 19 20 20 20 20 20 19 19 18 18 18 18 18 18 18 18 18 18 18 17 17 17 16 16 16 16 17 17 17 18 20 20 19 18 18 18 18 18 18 18
21 20 19 19 19 20 20 19 19 19 19 19 19 18 18 17 17 17 17 17 17 17 17 17 17 16 16 16 16 16 17 17 18 19 19 19 18 17 18 18 18 18 18
21 20 19 19 19 20 20 20 19 19 19 19 19 19 18 18 18 17 17 17 17 17 17 17 17 16 16 16 16 16 16 16 18 18 18 18 16 17 17 17 18 18 18
21 21 20 19 19 19 19 19 19 18 18 18 18 18 18 18 17 17 17 16 16 16 16 16 16 16 15 15 15 15 16 16 17 18 18 19 16 16 17 17 17 17 17
21 21 21 20 20 19 18 19 18 18 18 18 17 17 17 17 16 16 16 16 16 15 15 15 15 15 15 15 15 15 15 16 17 18 18 16 16 15 15 16 16 17 18
21 20 20 21 19 19 19 18 18 18 18 18 17 17 17 18 17 17 16 15 15 15 15 15 15 15 15 15 15 15 15 17 17 17 18 15 15 15 14 15 16 16 17
22 21 21 20 19 19 19 19 18 18 19 18 18 17 18 17 17 17 16 16 15 15 15 15 15 15 15 16 16 15 17 16 16 17 17 15 14 15 14 15 15 15 16
23 22 21 20 19 19 20 20 20 19 19 18 17 17 17 17 17 17 17 17 16 16 16 15 15 16 15 15 16 15 16 15 17 17 16 14 14 14 14 14 14 15 15
24 23 21 20 19 18 20 20 20 19 19 19 18 17 17 18 17 17 17 17 16 17 16 16 16 15 14 14 14 15 15 15 16 16 16 14 14 14 14 13 13 14 14
24 23 22 20 19 19 18 19 19 18 19 18 18 17 17 17 17 17 17 16 16 16 16 16 16 15 15 14 14 14 15 15 14 15 15 13 14 14 14 13 13 13 13
23 23 22 20 19 19 19 18 19 18 18 18 18 18 16 16 17 17 17 17 17 16 16 16 16 15 15 15 14 14 14 15 15 14 15 13 13 13 13 14 13 13 13
24 23 21 20 19 19 19 18 18 19 18 18 18 17 16 16 16 16 16 17 17 16 15 15 15 15 15 15 14 14 14 14 14 14 14 14 12 12 13 13 13 14 13
23 22 21 20 19 19 19 18 18 18 18 18 18 17 16 16 15 15 16 16 16 16 16 16 15 16 15 15 15 15 15 14 14 13 13 14 14 14 12 12 12 12 13
23 22 21 20 20 20 19 18 17 17 17 18 17 17 17 16 15 15 16 16 16 16 16 15 16 15 15 16 16 15 15 15 14 14 14 13 13 13 14 11 12 12 12
22 21 20 20 19 18 18 17 18 18 18 17 18 17 16 16 15 15 15 15 15 15 15 16 15 15 15 15 16 16 15 15 14 14 14 13 13 12 12 12 11 11 11
19 19 19 19 18 17 18 18 19 19 18 18 17 16 15 15 14 14 15 15 15 15 15 15 15 15 15 15 14 15 15 15 14 14 14 14 14 12 12 12 12 13 12
18 17 18 17 17 17 17 16 16 16 16 16 16 16 15 14 14 14 14 14 14 14 14 14 14 14 14 14 15 15 16 17 15 14 14 14 13 13 13 11 11 11 11
17 17 17 16 16 15 15 16 16 17 17 17 16 15 14 13 13 13 13 13 13 13 13 13 13 13 14 14 14 14 16 16 17 16 13 13 13 12 12 12 10 10 10
16 16 16 16 16 15 14 15 15 15 15 14 14 14 13 13 12 12 12 12 12 12 12 12 13 12 13 13 14 14 13 14 16 15 14 13 12 12 11 11 10 9 9
15 15 15 16 15 14 14 13 14 14 14 14 13 13 12 13 12 12 11 10 10 11 11 10 10 10 11 11 12 12 12 12 12 12 14 13 11 11 10 9 9 9 9
16 15 15 15 15 13 13 12 12 11 12 12 12 12 12 12 12 12 11 9 9 8 8 8 8 8 8 8 8 8 8 8 8 10 11 12 11 10 9 9 8 8 8

GFSSE_925_temp_027.txt.gz
Temp
22 20 20 20 20 20 21 21 20 20 20 20 20 20 20 20 20 20 20 20 19 19 19 19 20 19 19 19 19 19 19 20 20 20 20 21 20 20 20 20 20 20 19
23 21 20 20 20 20 20 20 20 20 20 20 20 20 20 20 20 20 19 19 19 19 18 19 18 18 19 19 19 19 19 20 20 20 20 20 20 20 19 20 20 19 19
24 21 20 19 19 19 19 19 20 20 20 20 20 20 19 19 19 19 19 19 19 19 18 18 18 18 17 18 18 19 19 19 19 20 21 20 19 20 20 19 19 19 19
24 23 19 19 19 19 19 19 20 20 20 20 20 19 19 19 19 19 19 19 19 19 18 18 18 18 18 18 18 18 18 18 19 19 20 22 22 20 20 19 18 19 18
23 22 19 19 19 19 19 19 19 19 19 19 19 19 19 19 19 19 19 19 18 18 18 17 17 18 18 17 17 17 17 18 18 19 21 21 21 19 19 19 18 18 18
23 21 20 19 19 20 19 20 20 19 19 19 19 19 18 18 18 18 18 18 18 17 17 17 17 17 17 17 17 17 17 18 18 20 21 21 20 19 18 18 18 18 18
24 21 19 19 20 20 20 19 19 19 19 18 18 18 18 18 18 18 17 17 17 17 17 17 17 16 16 16 16 17 17 18 18 20 20 20 19 18 18 18 18 18 18
23 22 20 20 19 19 19 19 18 18 18 18 18 17 17 17 18 18 17 17 17 17 17 17 17 16 16 16 16 16 17 17 18 21 21 21 18 18 16 17 18 18 18
24 23 22 20 19 19 19 18 18 18 18 18 18 17 18 18 17 17 17 17 16 17 17 16 16 16 16 16 16 16 17 17 18 21 20 18 18 17 15 16 17 17 18
24 24 23 22 22 21 18 19 19 18 18 18 18 18 18 18 17 17 16 17 17 17 16 16 16 16 16 16 16 16 16 17 18 20 21 19 18 17 15 16 17 17 18
24 23 23 23 22 21 22 19 19 19 19 18 18 18 18 19 19 18 17 16 16 16 15 15 15 15 15 16 16 16 17 18 19 20 19 18 17 16 14 15 16 16 17
24 24 23 22 22 21 22 21 21 20 21 20 20 19 20 19 19 18 17 17 16 16 16 16 16 16 16 18 18 17 17 19 18 19 19 17 17 16 15 14 15 15 16
25 25 24 22 21 21 22 22 22 22 21 21 20 19 20 19 20 19 19 18 17 17 18 17 17 17 18 17 18 18 18 18 18 19 17 17 16 15 14 14 14 15 15
26 25 24 22 21 21 22 23 22 22 22 21 21 19 19 20 20 19 19 19 19 19 18 18 18 18 16 16 16 16 17 17 18 19 18 17 15 15 14 13 13 14 14
26 25 24 23 21 22 21 22 21 21 21 20 20 20 19 19 19 19 18 18 18 18 18 18 18 18 17 17 17 16 16 17 17 17 18 16 15 15 14 14 13 13 13
26 25 25 23 22 21 21 21 21 20 21 20 20 20 18 18 18 18 18 18 18 19 18 18 18 17 17 17 17 16 16 16 17 17 17 16 15 14 14 13 13 13 13
26 26 25 23 22 21 21 21 21 21 20 20 20 19 18 18 18 17 18 18 18 18 18 17 17 17 17 17 17 17 16 15 15 16 16 16 15 14 13 13 13 13 13
27 26 25 24 22 21 22 21 21 21 20 20 20 19 18 18 17 17 18 18 18 17 17 17 17 17 17 18 17 17 17 17 16 15 15 15 16 15 14 13 13 12 13
26 25 25 24 22 22 22 21 20 20 19 20 20 20 19 18 17 17 17 17 17 17 17 17 17 17 17 17 17 18 17 17 17 16 16 15 15 15 15 14 13 13 13
24 23 23 23 22 21 21 20 20 20 20 20 20 19 18 17 17 16 16 16 16 17 17 17 17 17 17 17 17 17 17 17 17 16 16 16 15 14 14 14 13 12 13
22 22 22 22 20 20 21 21 21 21 20 20 19 18 17 17 16 16 16 16 16 16 16 16 16 16 16 16 16 17 17 16 16 16 16 16 16 15 14 14 14 13 12
20 20 20 20 19 19 20 19 18 18 18 18 18 17 17 16 15 15 15 15 15 15 15 15 15 15 15 15 15 15 16 17 17 17 16 15 16 15 15 14 13 13 14
19 19 19 18 18 17 18 19 18 19 19 19 18 17 16 15 14 14 14 14 13 13 14 14 14 14 15 15 15 15 15 16 18 18 17 15 15 15 15 14 13 13 13
18 18 18 18 18 17 16 17 17 17 17 17 16 15 15 14 14 14 14 13 13 12 12 12 13 13 13 14 14 14 15 14 13 14 15 15 15 14 14 14 14 12 12
18 17 17 18 17 16 16 15 15 15 15 15 15 15 14 14 13 13 13 12 12 11 11 11 11 11 11 11 12 11 10 10 11 10 10 13 14 13 12 13 13 13 11
18 17 17 17 18 17 16 15 15 14 14 14 14 13 13 12 12 12 12 11 10 10 10 10 8 7 6 7 7 6 5 5 7 5 6 9 8 9 11 9 9 10 10

GFSSE_925_temp_030.txt.gz
Temp
21 20 21 20 20 20 20 20 21 20 20 20 20 20 20 20 20 20 20 20 19 19 19 18 18 18 19 20 20 20 20 20 21 21 21 20 20 21 21 20 20 19 19
21 21 20 20 20 20 20 20 20 20 20 20 20 20 19 19 20 20 20 19 19 19 19 19 18 18 19 19 19 19 19 20 20 21 20 19 19 20 20 20 19 19 19
21 20 19 20 20 20 20 20 20 20 20 20 19 19 19 19 19 19 19 19 19 19 18 18 19 19 19 19 19 19 19 19 20 20 21 20 19 19 20 20 19 18 18
22 20 20 20 20 20 20 20 20 20 20 19 19 19 19 19 19 19 19 19 19 19 18 17 18 18 18 18 18 18 18 19 19 20 21 20 19 19 19 20 19 18 18
21 20 19 19 19 19 19 19 19 19 19 19 19 19 19 19 18 18 18 18 18 18 18 17 18 18 18 18 18 18 18 18 19 19 20 20 19 19 19 19 18 18 18
21 19 19 20 20 19 20 20 20 19 19 19 18 18 18 18 18 18 18 18 18 18 17 17 17 17 17 17 17 18 18 18 18 19 20 20 19 19 18 18 18 18 18
20 20 20 20 20 20 20 19 19 19 19 19 18 18 18 18 18 18 18 18 17 17 17 17 17 17 18 17 17 17 17 18 18 19 20 19 20 19 19 18 18 18 18
21 21 20 20 20 19 19 19 19 18 18 18 18 18 18 18 18 18 17 17 17 17 17 17 17 17 17 17 17 17 17 18 19 19 19 19 19 19 19 18 17 17 18
22 21 20 20 20 20 20 19 19 19 19 18 18 18 18 18 18 18 17 17 17 17 17 17 16 16 16 16 17 17 17 18 19 19 19 19 19 19 18 18 17 17 17
24 23 22 21 21 20 20 20 19 19 19 19 18 18 18 18 18 18 17 17 17 17 17 16 16 16 16 17 17 17 18 18 19 19 19 18 18 19 18 17 17 17 17
25 24 24 22 22 21 21 20 19 19 19 19 19 19 18 18 18 17 18 18 18 17 18 17 17 17 17 17 17 18 18 18 18 19 18 18 18 18 17 17 16 16 17
24 24 23 22 22 22 22 21 20 20 20 19 19 20 19 19 19 19 19 18 18 18 18 17 17 17 17 17 17 17 18 18 18 19 19 19 18 18 17 16 15 15 16
25 25 23 22 22 22 22 22 22 21 21 20 20 19 20 20 19 19 19 18 18 18 18 17 18 18 17 17 17 17 17 17 17 18 19 18 18 18 17 15 15 15 15
25 25 23 22 21 21 22 22 22 22 21 21 20 20 19 19 19 19 19 18 18 18 18 18 18 18 18 17 16 16 16 16 17 17 17 17 17 17 17 15 14 14 14
26 25 24 23 22 22 22 21 21 21 21 20 20 20 19 19 19 18 18 18 18 18 19 19 18 18 18 18 17 17 17 16 16 17 17 17 17 17 16 15 13 13 13
27 26 24 23 22 22 22 21 21 21 21 20 20 19 19 18 18 18 18 18 18 18 18 18 18 17 17 17 17 17 17 16 16 16 17 17 16 17 16 15 13 13 13
27 26 25 24 22 22 21 21 21 21 20 21 20 19 19 18 18 18 18 18 18 18 18 17 18 17 17 17 17 17 17 17 16 16 16 16 16 16 16 15 14 14 13
27 26 25 24 23 22 22 21 21 21 20 20 20 20 19 18 17 17 17 17 17 17 17 17 17 17 17 17 17 17 17 17 17 16 16 16 15 15 15 15 14 14 14
27 26 25 24 23 22 22 21 21 20 20 20 20 20 19 18 17 17 16 16 16 16 16 17 17 17 17 17 17 17 17 17 17 17 17 16 15 15 15 15 15 14 14
23 23 23 23 23 22 21 21 20 21 20 20 20 19 18 17 17 16 16 16 16 16 16 16 16 16 16 16 16 16 16 16 17 17 17 17 16 15 15 15 14 14 13
22 22 21 20 19 20 21 20 20 19 19 19 19 18 17 17 16 15 15 15 15 15 15 15 15 15 15 15 15 15 15 15 16 16 16 17 16 16 15 15 14 14 13
21 21 20 19 19 19 19 19 19 18 19 18 18 18 17 17 16 15 15 14 14 14 13 13 13 14 14 14 14 14 13 14 15 15 16 16 16 16 16 15 14 13 13
19 20 19 19 18 17 18 18 18 18 18 18 17 17 16 15 15 14 14 14 13 13 12 12 12 12 12 12 13 13 12 12 13 14 15 15 15 15 15 15 14 14 14
18 19 19 18 18 17 16 16 16 16 16 15 16 15 15 14 14 13 13 12 12 11 11 11 11 10 10 10 10 10 9 9 9 9 12 13 13 13 14 12 12 11 13
18 18 18 18 18 17 16 16 15 15 14 14 14 14 13 13 12 12 11 11 11 10 10 10 9 8 7 7 6 5 6 6 7 7 8 9 10 10 10 9 10 11 10
18 18 18 18 18 18 17 16 15 15 14 14 14 13 12 11 11 10 10 10 9 8 7 7 7 6 5 5 5 5 3 3 3 3 3 4 4 5 7 7 7 7 8

GFSSE_925_temp_033.txt.gz
Temp
19 20 21 21 21 21 21 21 20 20 20 20 20 19 19 19 19 19 19 19 19 19 19 19 19 19 20 20 20 20 20 20 20 20 19 18 19 19 19 20 20 20 18
20 20 20 21 20 20 20 20 20 20 20 20 20 20 19 19 19 19 19 19 19 18 18 18 19 18 19 19 19 19 19 19 20 20 20 20 18 19 19 19 19 19 19
19 20 20 20 20 20 20 20 20 20 19 19 19 19 19 19 19 19 19 19 19 19 19 19 19 19 18 18 18 18 18 18 19 20 19 19 18 19 19 20 19 19 18
20 20 20 20 20 20 20 20 20 19 19 19 19 19 19 19 19 19 19 18 18 18 18 18 18 18 18 18 18 18 18 18 19 19 19 19 19 18 18 19 19 19 18
20 20 19 20 20 20 20 19 19 19 19 19 19 19 18 18 18 18 18 18 18 18 18 18 18 18 18 18 18 18 18 18 19 19 19 18 19 19 18 18 18 19 18
20 20 19 20 20 20 20 20 20 19 19 19 19 18 18 18 18 18 18 18 18 18 18 18 18 18 18 18 18 18 18 18 19 19 18 18 19 19 18 19 18 18 18
19 20 20 20 20 20 20 20 20 20 19 20 19 19 19 19 18 18 18 18 18 18 17 17 17 17 17 17 17 18 18 18 18 18 18 18 19 19 19 19 18 18 17
20 20 20 20 20 20 20 20 19 19 19 19 19 19 19 19 18 18 18 17 17 17 17 17 17 17 17 17 17 17 18 18 18 18 17 18 18 18 19 19 18 18 18
21 21 21 20 21 20 20 20 19 19 19 19 19 19 19 18 18 18 18 19 18 18 18 18 18 18 18 17 17 18 18 19 18 17 18 18 18 18 19 19 18 18 17
22 22 21 21 21 20 21 20 20 19 19 19 19 19 18 18 18 19 19 18 18 18 18 18 18 18 18 17 17 18 18 18 18 18 17 18 18 18 18 18 18 18 17
22 21 22 21 21 20 20 20 20 19 19 19 19 19 18 18 18 19 19 18 18 18 17 17 17 17 17 17 17 17 17 18 17 18 18 18 18 18 18 18 17 17 17
22 21 22 21 21 21 21 21 20 20 20 19 19 19 19 19 19 19 18 18 18 18 17 17 18 18 17 17 17 17 17 17 17 17 17 18 18 18 18 18 18 16 16
24 23 22 22 22 21 21 21 21 20 20 20 19 19 19 19 19 18 18 18 18 18 18 18 18 18 18 17 17 17 17 17 17 17 17 17 17 17 17 18 17 16 15
24 23 22 22 21 21 22 21 20 20 20 19 19 19 19 19 19 19 18 18 18 18 18 18 18 18 17 17 17 17 17 16 17 16 16 16 16 17 17 17 17 16 15
23 23 22 23 22 22 21 21 21 21 21 20 20 19 19 19 18 18 18 18 18 18 18 18 18 18 18 18 17 17 17 17 17 17 16 16 16 16 16 17 17 15 13
24 23 22 23 22 22 21 21 21 21 21 20 20 20 19 18 18 18 18 18 18 18 18 18 17 17 17 17 17 17 17 17 17 17 17 16 16 16 16 16 16 15 13
25 24 23 23 22 22 21 21 21 20 21 20 20 20 19 18 18 17 17 17 17 17 17 17 17 17 17 17 17 17 17 17 17 17 17 17 17 16 16 16 16 16 14
25 25 23 22 21 20 21 21 21 20 20 20 20 20 19 18 18 17 17 17 17 17 17 17 17 16 16 17 17 17 17 17 17 17 17 16 16 16 16 16 15 16 15
24 23 22 22 20 20 18 20 21 21 20 20 20 19 18 17 17 17 17 17 16 16 16 16 15 15 15 15 15 15 16 16 16 16 16 16 16 16 16 16 15 15 15
21 21 20 19 19 19 20 20 20 19 19 19 18 18 18 17 17 16 16 15 15 15 14 14 14 14 13 14 14 14 14 15 15 15 15 15 16 16 15 15 15 15 15
20 19 19 19 18 19 19 19 19 19 19 19 18 18 17 17 16 15 15 14 14 14 13 13 13 12 12 12 12 12 13 13 14 14 14 15 15 15 15 15 15 15 15
19 19 18 19 18 18 18 18 18 18 18 18 16 16 16 15 14 14 13 13 13 12 12 12 11 11 11 10 10 10 10 11 12 12 13 13 12 13 13 13 14 14 15
19 19 18 18 18 18 17 17 18 18 17 16 15 14 14 14 13 12 12 12 11 11 11 10 10 10 9 8 8 7 7 7 8 10 11 11 11 10 11 11 11 11 13
18 18 18 18 18 17 17 16 16 15 15 14 14 14 13 13 12 11 10 10 10 10 10 9 8 8 8 6 7 7 6 4 6 6 9 8 9 7 7 7 7 9 9
17 17 18 18 17 17 16 16 15 15 14 14 13 13 12 11 11 10 10 10 9 8 7 7 7 6 6 6 4 4 4 4 4 2 4 5 4 4 5 5 6 7 7
18 18 17 17 17 16 15 15 14 14 13 13 12 11 11 10 9 9 9 8 7 7 7 6 6 5 5 4 4 4 2 3 3 2 3 3 2 3 3 5 5 5 5

GFSSE_925_temp_036.txt.gz
Temp
18 19 21 21 21 21 21 21 20 20 20 20 20 20 20 19 19 19 19 19 19 20 20 20 19 19 20 20 20 19 19 19 19 19 19 18 19 19 19 19 19 19 19
19 19 20 20 20 21 20 20 20 20 20 19 19 19 19 19 19 19 19 18 18 18 19 19 19 19 19 19 19 19 19 19 19 18 19 19 18 19 19 19 19 19 19
19 19 20 20 20 20 20 20 20 19 19 19 19 19 19 19 19 19 19 19 19 18 18 19 19 18 18 18 18 18 18 18 18 18 19 19 18 19 18 19 19 18 18
19 19 19 20 20 20 20 19 19 19 19 19 19 19 18 18 18 19 19 18 18 18 17 18 18 18 18 18 17 18 18 18 18 18 19 19 19 18 18 19 19 19 18
19 19 19 20 20 20 20 19 19 19 19 18 19 19 19 19 18 18 18 18 18 18 17 17 17 17 17 17 17 17 17 18 17 18 18 18 19 19 19 19 19 19 18
19 19 19 19 20 20 20 19 19 19 19 19 18 18 18 18 18 18 18 18 18 18 18 18 18 18 18 17 17 17 18 17 17 18 18 18 18 18 18 18 18 18 18
19 19 20 20 20 20 20 20 20 19 19 19 19 19 18 19 19 19 19 18 18 18 18 18 18 18 18 17 17 17 17 17 17 17 18 18 18 18 18 18 18 18 18
20 20 20 20 20 20 20 20 19 19 19 19 19 19 19 19 19 19 19 19 19 19 19 19 18 18 18 18 18 18 18 17 18 17 17 17 18 18 18 18 19 19 18
21 20 20 21 21 20 20 20 20 19 19 19 19 19 19 19 19 19 19 19 19 18 18 18 18 18 18 18 18 18 17 17 17 17 17 17 17 18 18 18 18 18 18
21 21 21 21 21 21 21 20 20 20 19 19 19 19 19 19 19 19 18 18 18 18 18 18 17 17 17 17 17 17 17 17 17 17 17 17 17 17 18 18 18 17 17
20 21 20 21 21 21 20 20 20 19 19 19 19 19 19 19 19 18 18 18 18 17 17 17 17 17 17 17 17 17 17 17 17 17 17 17 17 17 17 17 18 18 17
19 20 21 21 21 21 20 20 19 19 19 19 19 18 18 19 19 18 18 18 17 17 17 17 17 17 17 17 17 17 17 17 17 17 17 16 16 16 15 16 17 17 17
21 21 21 21 21 20 20 20 20 20 19 19 19 19 19 18 18 18 17 18 18 18 18 18 18 17 17 17 17 17 17 17 17 17 17 17 16 16 16 16 16 16 17
21 21 21 21 20 21 20 20 20 20 19 19 19 19 18 18 18 18 18 18 18 18 18 18 18 17 17 17 17 17 17 17 16 16 17 17 16 16 16 16 16 16 15
21 21 21 21 21 21 21 21 20 20 20 19 19 19 19 19 18 18 18 18 18 18 18 17 17 17 17 17 17 17 17 17 17 17 17 17 17 16 16 16 16 16 16
22 22 22 22 22 22 21 21 21 20 20 19 19 19 19 19 18 18 18 17 17 17 17 17 17 17 17 17 17 17 17 17 17 17 17 17 17 17 16 16 16 16 16
23 22 23 22 22 22 21 21 21 20 20 20 20 19 19 19 18 18 17 17 17 17 17 16 16 16 15 15 15 15 16 16 16 16 16 16 16 17 17 17 16 16 16
23 23 20 21 21 21 21 20 21 20 20 20 20 19 19 18 18 17 17 17 16 16 16 15 15 15 14 14 14 14 14 14 15 15 15 15 15 15 16 16 17 17 16
20 20 20 20 20 19 20 20 20 20 19 19 19 18 18 17 17 17 16 15 15 15 15 14 14 13 13 13 12 13 13 13 14 14 14 14 14 14 15 15 16 16 16
19 18 17 17 17 17 17 18 18 18 19 18 18 17 17 17 16 15 15 14 14 14 14 13 12 12 12 11 11 12 12 13 13 13 13 13 13 13 12 12 13 15 15
18 17 16 16 16 16 16 17 17 17 16 16 15 15 15 14 14 14 13 13 13 12 11 11 11 11 11 10 10 10 10 11 11 11 11 10 10 11 11 11 10 11 13
17 17 17 17 17 17 17 16 16 16 15 15 14 14 14 14 13 12 12 12 11 11 11 10 10 9 9 8 8 8 7 9 9 9 9 9 9 9 9 9 9 9 9
17 17 17 17 17 17 17 17 17 17 16 15 13 13 12 12 12 12 11 11 10 10 10 9 8 8 7 8 7 7 5 5 6 8 8 8 8 7 7 7 8 8 8
17 17 17 17 16 16 16 15 15 15 14 14 13 12 12 11 11 11 10 10 9 8 8 7 7 7 6 6 6 5 5 5 3 5 6 6 5 5 6 6 5 6 7
18 18 17 17 16 16 15 15 14 14 13 13 12 12 12 11 11 10 10 9 8 7 7 6 6 5 5 5 4 3 3 3 4 2 2 3 2 3 3 4 4 4 4
17 17 16 16 16 15 15 15 14 13 12 12 11 11 10 10 9 9 8 7 7 6 5 4 4 4 3 3 3 2 1 2 2 2 3 3 2 2 2 4 4 3 4

GFSSE_925_temp_039.txt.gz
Temp
19 19 19 20 20 21 21 21 21 21 20 20 20 20 20 19 19 19 19 19 19 18 18 19 19 19 19 19 18 18 18 18 19 19 19 19 19 19 19 19 19 19 19
19 18 19 20 21 21 20 20 20 20 20 20 19 19 19 19 19 18 18 19 18 18 18 19 19 19 19 19 18 18 18 18 19 18 19 19 18 19 19 19 19 19 19
18 19 20 20 20 20 20 20 20 19 19 19 19 19 18 18 18 18 18 18 18 17 17 17 18 18 18 18 18 18 17 18 18 18 19 19 18 19 19 19 19 19 19
18 19 20 20 20 20 20 19 19 19 19 19 18 18 18 18 18 18 18 18 18 17 17 16 17 17 18 18 18 17 17 17 18 18 18 19 18 18 18 19 19 19 19
18 19 19 20 20 19 19 19 19 19 19 18 18 18 18 18 18 18 18 18 18 18 17 18 18 18 18 18 18 17 17 17 18 18 18 18 19 19 18 18 18 18 18
18 19 19 19 19 20 19 19 19 19 18 18 18 18 18 19 19 19 19 19 19 19 18 18 18 18 17 17 17 17 17 17 17 18 18 18 18 18 18 19 19 18 18
18 19 19 19 19 19 19 19 19 18 18 18 18 19 19 19 19 19 19 19 19 18 18 18 18 18 18 17 17 17 17 17 17 17 18 18 18 18 18 18 18 18 18
19 19 19 20 20 20 20 19 19 19 19 19 19 19 19 19 19 19 19 19 18 18 18 18 18 18 18 17 17 17 17 17 17 17 17 17 17 17 17 18 18 18 18
20 20 20 20 20 20 19 19 19 19 19 19 19 19 19 19 18 18 18 18 18 18 18 18 18 17 18 17 17 17 17 17 17 17 17 17 17 17 17 17 17 18 18
20 20 20 20 20 20 19 19 20 19 19 19 19 18 18 18 18 18 18 18 18 17 18 18 17 17 17 17 17 17 17 17 17 17 17 17 17 17 17 17 16 17 18
20 20 20 20 20 20 20 20 19 19 19 19 18 18 18 18 18 18 18 17 17 17 17 17 17 17 17 17 17 17 17 17 17 17 17 17 17 16 16 16 16 16 17
19 20 20 20 20 20 20 20 19 19 19 18 18 18 18 18 18 18 18 17 17 17 17 17 17 17 17 17 17 17 17 17 17 17 17 17 16 16 16 15 16 16 16
20 19 20 20 20 20 20 20 19 19 19 19 18 18 18 18 18 18 18 17 17 17 17 17 17 17 17 17 17 17 17 16 16 16 16 17 16 16 16 15 16 16 16
20 20 20 20 20 20 20 20 20 19 19 19 19 18 18 18 18 18 17 17 17 17 17 17 17 17 17 17 17 17 17 17 17 17 17 17 17 17 17 16 15 15 15
19 20 20 20 20 20 20 20 20 20 19 19 19 18 18 18 18 18 17 17 17 17 17 17 16 16 16 16 16 16 16 16 16 16 16 16 16 16 16 17 16 15 15
20 20 21 20 20 20 20 20 20 20 20 19 19 18 18 18 18 18 17 17 17 17 16 16 16 15 15 15 15 15 15 15 15 15 15 15 15 15 16 15 16 17 16
21 21 20 20 19 20 20 20 20 20 19 19 19 19 18 18 18 18 17 17 16 16 16 15 15 15 15 14 14 14 14 14 14 14 14 14 14 14 15 15 15 15 16
20 20 19 19 19 19 19 19 18 19 19 19 19 18 18 17 17 16 16 16 15 15 15 14 14 14 13 13 13 13 13 13 13 13 13 13 13 13 13 14 14 14 15
20 19 18 18 17 17 17 18 18 18 18 18 18 17 16 16 16 15 15 14 14 14 13 13 12 12 12 12 12 12 12 12 12 12 11 12 11 11 11 13 13 13 13
18 18 17 17 16 16 15 16 16 17 16 16 15 15 15 15 15 14 14 13 13 13 12 12 11 11 11 10 10 11 10 11 10 10 10 9 10 9 9 10 10 11 11
16 16 16 16 16 16 16 17 16 15 15 15 15 15 15 14 14 14 13 13 12 12 11 11 11 10 10 9 9 8 9 10 9 9 9 8 8 8 8 8 8 8 9
15 16 16 16 16 16 17 16 16 15 15 15 15 14 14 14 13 13 12 12 11 10 10 9 8 8 8 7 7 7 5 8 7 8 8 8 7 7 7 7 6 7 7
16 17 17 17 17 16 16 16 16 15 14 14 13 13 13 12 12 11 11 10 10 9 8 7 7 7 6 7 6 6 4 4 4 7 7 6 6 6 5 5 5 5 5
16 16 16 16 16 16 16 16 16 16 14 13 12 12 11 10 10 10 9 9 8 8 7 7 7 6 5 5 5 5 5 4 2 2 5 4 4 3 3 3 3 4 4
16 16 16 16 16 15 15 15 15 14 13 12 12 11 10 10 9 9 8 8 7 7 6 5 5 4 4 4 3 3 2 2 3 1 2 2 3 2 2 3 3 3 4
15 16 16 15 14 14 14 14 13 13 12 12 11 11 10 9 8 8 7 6 6 5 5 4 4 3 3 2 2 2 1 2 2 2 2 1 1 2 2 2 3 3 3

GFSSE_925_temp_042.txt.gz
Temp
18 19 19 20 20 20 20 20 20 20 20 20 20 20 19 19 19 19 19 19 19 18 17 17 18 18 18 18 18 18 18 19 19 19 19 19 19 19 19 19 19 19 19
19 19 19 20 20 20 20 20 20 20 20 20 20 20 20 19 19 19 19 18 18 17 18 19 18 18 18 18 18 18 18 18 18 18 19 19 19 19 19 19 19 19 19
19 19 19 19 19 19 20 20 20 19 20 19 19 19 19 19 19 18 18 18 17 17 16 18 18 18 18 18 18 18 18 18 18 18 18 19 19 19 19 19 19 19 19
19 18 19 19 19 19 19 19 19 19 19 19 19 19 18 18 18 18 18 18 17 16 16 18 18 18 18 17 17 17 18 18 18 18 19 18 18 18 18 18 19 19 19
18 18 18 19 19 19 19 19 19 19 19 19 18 18 18 18 18 18 18 18 18 18 18 17 18 17 17 17 17 17 17 17 18 18 18 18 18 18 17 17 18 18 18
18 18 18 19 19 19 19 19 19 19 19 18 18 18 18 18 18 19 18 18 18 18 17 17 17 17 17 17 17 17 17 17 17 18 18 18 18 18 18 18 17 17 17
18 18 18 19 19 19 19 19 19 19 18 18 18 18 19 19 19 19 18 18 18 18 18 17 17 17 17 17 17 17 17 17 17 17 17 17 17 17 18 18 18 18 17
18 18 18 19 19 19 19 19 19 19 19 18 18 19 19 19 19 18 18 18 18 18 18 17 17 17 17 17 16 17 17 17 17 17 17 17 17 17 17 17 17 17 17
18 18 19 19 20 19 19 19 19 19 18 18 19 19 19 18 18 18 18 18 17 18 17 17 17 17 17 17 17 17 17 17 17 17 17 17 17 17 17 17 17 17 17
18 19 20 20 20 20 19 19 19 18 18 19 19 18 18 18 18 18 17 18 18 17 17 17 17 17 17 17 17 17 17 16 17 17 17 17 17 17 17 16 17 17 17
19 20 20 20 20 20 19 19 19 19 19 19 18 18 18 18 18 17 17 17 17 17 17 17 17 17 17 17 17 17 17 16 16 16 16 16 16 17 17 17 16 16 17
19 20 20 20 20 20 19 19 19 19 19 19 18 18 18 18 17 17 17 17 17 17 17 17 17 17 17 17 17 17 17 17 17 16 16 16 16 16 16 16 16 16 16
20 20 20 20 20 20 20 20 19 19 18 18 18 18 18 18 18 18 17 17 17 17 17 17 17 16 16 16 16 16 16 16 16 16 16 16 16 16 16 16 15 15 16
20 20 20 19 19 20 20 19 19 19 19 18 18 18 18 18 18 18 18 17 17 17 17 17 16 16 16 15 15 15 15 15 15 16 16 16 16 16 16 15 15 15 15
20 20 20 19 19 19 19 19 19 19 18 18 18 18 18 18 18 18 17 17 16 16 16 16 16 16 15 15 15 15 15 15 15 15 15 15 15 15 15 15 15 14 15
20 20 20 19 18 18 18 18 18 18 18 18 18 18 18 18 17 17 16 16 16 16 15 15 15 15 14 14 14 14 14 14 14 13 14 14 14 14 14 14 15 15 14
20 20 19 19 18 17 17 17 18 17 18 18 18 17 17 16 16 16 16 15 15 15 14 14 14 14 14 14 14 14 13 13 13 13 12 12 13 13 13 13 14 14 14
20 19 18 18 17 17 17 17 17 17 17 17 17 16 16 15 15 15 15 15 14 14 14 14 13 13 12 12 12 12 12 13 12 12 11 10 10 11 11 12 12 12 13
19 18 17 16 16 16 17 16 14 15 16 16 16 16 15 15 15 15 14 14 13 13 12 12 12 11 11 11 11 11 11 12 11 10 10 9 9 9 9 9 10 10 10
16 16 15 15 16 15 14 13 14 15 15 16 16 15 15 15 15 14 14 13 12 12 11 11 10 10 9 8 9 9 9 10 9 8 8 8 8 8 8 8 8 9 9
14 15 15 15 15 15 13 14 15 15 15 16 16 15 15 14 14 13 13 12 11 11 10 9 9 8 8 7 7 7 8 8 8 8 8 7 7 7 7 6 6 7 8
15 15 15 16 16 15 16 15 16 16 15 15 15 15 14 13 13 12 11 11 10 10 9 8 7 7 6 6 6 6 4 6 6 7 7 6 6 6 6 5 5 5 5
15 16 16 16 17 17 17 16 15 15 15 15 14 13 12 12 11 10 10 9 9 8 8 7 7 6 5 5 5 5 3 3 3 6 6 4 4 4 4 4 4 4 4
16 16 17 17 17 17 16 16 16 15 15 14 12 11 11 10 10 9 9 8 8 7 7 7 6 6 4 4 4 4 4 3 2 3 4 4 3 3 3 3 3 3 3
16 16 16 16 16 16 15 15 15 14 13 11 11 10 10 9 9 8 8 7 7 6 6 5 5 4 4 3 3 2 2 1 2 2 2 3 2 2 2 2 2 3 3
14 15 15 15 14 14 14 13 13 12 12 11 11 10 9 9 8 8 7 7 6 5 5 4 4 4 3 3 2 1 1 1 2 2 2 2 2 2 2 2 2 2 2

GFSSE_925_temp_045.txt.gz
Temp
18 18 19 19 19 19 19 19 20 20 20 19 19 19 19 19 19 19 19 19 19 18 18 18 19 18 19 18 19 19 19 19 19 19 19 19 19 18 19 19 19 19 19
19 19 19 19 19 19 19 19 19 20 19 19 19 19 19 19 19 19 19 19 19 18 17 18 18 18 18 18 18 18 18 18 18 18 19 19 18 18 18 19 19 18 18
19 18 18 19 19 19 19 19 19 19 19 19 19 19 19 19 19 19 19 18 18 17 16 16 17 17 18 18 18 18 18 18 18 18 18 18 18 18 18 18 18 18 18
19 18 18 18 19 19 19 19 19 19 19 19 19 19 19 19 19 18 18 17 17 16 16 17 17 17 17 18 18 18 18 18 18 18 17 17 18 18 18 18 18 18 18
18 18 18 19 19 19 19 19 19 19 19 19 19 19 19 18 18 18 18 17 17 17 17 18 18 17 17 17 17 17 18 18 18 18 17 17 17 17 17 18 18 18 18
18 18 18 18 18 19 19 19 19 19 19 19 19 18 18 18 18 18 18 17 17 17 18 18 17 17 17 17 17 17 18 18 18 17 17 17 17 17 17 17 17 17 18
18 18 18 18 19 18 18 19 19 19 19 19 18 18 18 18 18 18 18 18 17 17 17 17 17 17 17 17 17 17 17 17 17 17 17 17 17 17 17 17 17 17 17
18 18 18 18 18 18 19 18 18 18 19 18 18 18 18 18 18 18 18 17 17 17 17 17 17 17 17 17 17 17 17 17 17 17 17 17 17 17 17 17 17 17 17
18 18 18 18 18 19 19 18 18 18 18 19 18 18 18 18 18 18 17 17 17 17 17 17 17 17 16 17 17 16 16 17 16 16 17 17 17 17 17 17 17 17 17
17 18 18 19 19 18 18 18 18 18 18 18 18 18 18 18 18 18 17 17 17 17 17 17 17 17 17 17 16 16 16 16 16 16 16 16 17 17 17 17 17 16 17
17 19 19 19 18 18 18 18 18 18 18 18 18 18 18 18 17 17 17 17 17 17 17 17 17 17 17 17 17 17 17 16 16 16 16 16 16 16 16 16 16 16 16
18 19 19 19 18 19 19 18 18 18 18 18 18 18 18 18 17 17 17 17 17 17 17 17 17 17 17 17 17 17 16 16 16 16 15 16 16 16 16 15 15 16 16
19 19 18 18 19 19 18 18 18 18 18 18 18 18 18 17 17 17 17 17 17 17 17 17 17 16 16 16 16 16 16 16 16 15 16 16 16 16 16 16 15 15 15
19 18 19 18 18 18 18 17 17 18 18 18 18 18 17 17 17 17 16 16 16 16 16 16 16 16 16 15 15 15 15 15 14 14 14 15 15 15 15 15 15 14 14
18 19 19 18 18 18 17 17 17 17 18 17 17 17 17 16 16 16 16 16 16 16 16 15 15 15 15 14 14 14 14 14 14 13 13 14 15 14 14 14 15 14 14
18 18 18 18 18 17 17 17 17 17 17 17 16 16 15 15 15 16 16 15 15 15 14 14 14 14 14 14 13 13 13 13 12 13 12 12 13 13 13 14 14 14 14
18 18 18 17 17 17 17 17 16 16 16 16 16 16 15 15 15 15 15 14 14 14 14 14 13 13 13 12 13 12 12 12 11 11 10 10 11 11 12 12 12 12 13
18 17 17 16 16 17 17 16 17 15 15 16 15 15 14 14 15 14 14 14 13 13 13 12 12 12 11 11 11 11 11 11 10 9 9 9 9 9 9 10 10 10 10
17 17 15 15 15 15 16 15 15 14 14 16 15 15 15 15 14 14 14 13 13 12 12 11 10 10 10 10 10 10 10 10 10 9 8 7 8 8 8 8 9 9 10
14 13 14 14 14 15 16 15 16 14 15 15 15 15 15 14 14 13 13 12 11 11 10 10 9 9 8 8 8 9 9 10 8 8 7 7 6 6 6 6 6 7 8
13 14 15 16 14 15 15 14 13 14 14 15 15 15 15 14 13 12 12 11 10 10 9 8 8 7 8 7 8 9 9 8 7 7 7 6 6 5 5 5 5 5 6
14 15 14 14 14 15 15 13 15 14 14 15 14 14 13 12 12 11 11 10 10 8 8 7 6 7 7 6 7 8 10 10 8 7 6 5 5 5 5 4 4 4 4
14 15 15 16 16 16 15 15 15 14 13 12 12 13 12 11 11 11 10 9 9 8 7 7 6 5 6 6 5 6 9 9 7 7 6 5 4 4 4 4 3 3 3
15 16 16 16 15 15 15 15 15 14 14 13 12 11 11 11 10 9 9 9 8 8 7 6 5 5 4 6 5 4 4 4 5 5 6 5 5 4 3 3 3 3 3
14 15 15 15 15 14 14 14 14 13 12 11 11 10 10 10 9 9 8 8 8 7 6 6 5 4 4 4 4 3 3 3 3 4 5 6 5 4 4 3 2 2 2
14 14 14 14 14 14 14 14 13 12 11 10 10 9 9 9 9 9 8 8 7 7 5 4 4 3 3 3 3 3 3 4 4 3 3 4 3 4 3 3 2 3 2

GFSSE_925_temp_051.txt.gz
Temp
24 20 20 19 19 19 20 20 20 21 21 20 20 19 19 19 19 18 18 18 18 17 17 18 19 19 19 19 19 18 18 19 19 19 19 19 19 19 19 20 20 19 18
23 20 19 20 20 19 20 20 20 21 20 20 19 19 19 19 18 18 18 18 17 17 16 18 18 19 18 18 18 19 19 19 19 20 19 18 19 19 18 19 19 18 18
22 20 19 19 20 20 20 20 20 20 20 19 19 19 19 18 18 18 18 18 17 16 16 17 18 18 18 18 18 18 19 19 20 21 21 19 19 19 18 18 18 18 18
21 20 19 19 19 19 20 20 20 19 19 19 19 19 19 18 18 18 18 18 17 16 16 17 18 18 18 18 18 19 19 19 20 21 21 22 19 18 18 18 18 18 18
21 20 19 19 19 19 19 19 19 19 18 18 18 19 18 18 18 18 18 18 17 17 17 18 18 18 18 18 18 18 19 20 20 21 22 21 19 17 17 18 17 17 18
21 19 19 19 19 19 19 19 18 18 18 18 18 18 18 18 18 18 17 17 17 17 18 18 17 17 17 17 18 18 19 20 22 22 22 19 18 16 17 17 17 17 17
20 19 18 18 18 19 18 18 18 18 18 18 18 18 18 18 18 17 17 17 17 17 17 17 17 17 17 17 17 18 18 19 20 22 22 19 17 16 16 16 17 17 17
20 19 18 18 18 18 18 18 18 18 18 18 18 18 18 18 18 17 17 17 17 17 17 17 17 17 17 17 17 18 19 19 21 21 22 18 17 16 16 15 15 16 17
20 19 18 18 17 17 17 18 18 18 18 18 18 18 18 18 17 17 17 17 17 17 17 17 17 17 17 17 18 18 18 19 20 21 21 19 17 17 16 15 15 15 16
20 20 20 19 19 18 17 17 17 18 18 17 18 18 18 18 18 17 17 17 17 17 17 17 17 17 17 18 18 18 19 19 20 21 20 17 17 17 16 16 16 16 16
22 22 22 21 20 20 18 17 18 18 18 18 18 18 18 19 18 18 17 17 17 17 17 17 17 17 18 18 18 18 19 20 20 20 20 18 17 17 16 16 16 16 16
22 21 21 20 20 20 20 18 18 18 18 18 18 18 20 19 19 19 18 18 18 17 17 18 18 18 18 20 19 19 20 19 19 19 19 18 17 16 16 16 15 15 15
22 22 20 19 19 20 19 20 20 19 19 19 19 19 18 19 19 19 19 19 19 18 19 19 19 19 18 18 18 18 18 18 19 19 18 17 17 16 16 15 15 14 13
22 20 19 18 18 19 19 20 20 21 20 20 20 18 19 19 18 18 20 19 19 19 18 19 19 18 17 17 17 17 17 17 17 17 18 17 16 15 15 14 13 12 12
23 21 20 19 19 19 20 19 20 20 19 19 18 18 17 17 17 17 17 18 17 18 19 18 18 18 17 17 17 16 16 16 16 16 16 16 15 14 14 13 12 11 11
23 22 20 19 19 19 19 18 17 17 17 17 17 16 16 16 16 16 16 17 17 17 16 16 16 16 16 16 16 16 16 16 16 16 16 15 15 14 13 12 11 11 11
23 22 20 20 19 19 18 18 17 16 15 15 15 14 15 15 14 14 16 15 15 14 14 14 15 15 15 16 16 16 16 16 16 15 15 15 15 13 12 12 11 10 10
24 22 20 20 19 17 16 16 14 13 14 14 15 15 14 14 14 14 14 13 13 13 13 14 15 15 14 14 15 15 15 15 15 15 15 15 14 13 12 10 10 10 9
24 22 20 18 15 14 14 14 15 16 15 14 14 15 15 14 14 13 14 14 14 15 14 13 13 13 13 13 14 14 14 14 14 14 14 14 13 12 11 11 10 9 9
24 22 19 16 14 14 14 15 15 16 16 14 13 14 14 14 14 15 14 13 14 14 13 12 12 12 12 13 13 13 13 13 13 13 13 13 13 12 11 10 10 10 9
22 21 16 14 15 14 15 15 15 15 14 14 15 15 15 14 14 14 15 14 13 13 12 12 11 12 12 12 12 12 12 12 14 14 13 13 12 11 10 10 9 9 9
20 19 16 16 16 17 18 18 18 17 17 17 16 14 14 13 13 14 13 13 13 12 12 12 11 11 11 11 11 11 12 12 13 12 11 11 12 11 10 10 9 8 8
17 18 18 18 18 19 19 18 18 18 17 17 16 15 14 13 13 13 12 12 12 11 12 11 10 10 10 10 10 10 10 11 11 11 10 10 10 10 9 9 9 9 8
20 20 20 20 19 19 19 19 18 19 18 17 16 15 15 13 13 12 12 11 11 11 10 10 10 9 9 9 9 10 9 9 9 9 8 8 8 9 9 8 8 8 7
20 20 20 19 19 18 18 18 18 18 17 16 15 14 14 13 13 12 11 11 11 10 10 10 9 9 9 8 9 8 8 8 7 7 7 7 7 7 7 7 7 6 6
19 18 18 18 18 17 17 16 17 16 16 16 15 14 14 14 13 13 12 11 11 10 10 10 8 8 8 7 7 6 6 6 6 5 5 6 6 6 7 6 6 6 6

GFSSE_925_temp_054.txt.gz
Temp
20 21 21 19 19 19 19 19 20 20 20 20 20 19 19 19 18 18 18 18 17 17 17 18 18 19 18 19 19 19 19 20 20 19 18 19 19 20 19 19 18 18 18
19 21 20 19 19 19 19 19 20 20 20 20 19 19 18 18 18 18 17 17 17 16 17 17 18 18 18 18 19 19 19 20 20 19 18 18 18 18 19 18 18 17 18
20 20 20 19 19 19 19 20 20 20 19 19 18 18 18 18 17 17 17 17 17 16 16 17 18 18 19 19 19 19 20 20 20 19 18 18 17 18 18 18 18 18 17
20 19 19 20 19 19 19 20 19 19 19 18 18 18 18 17 17 17 17 17 16 16 16 18 18 18 18 18 19 20 20 20 21 21 19 18 17 18 18 17 18 18 18
21 19 20 19 19 19 19 19 19 19 19 18 18 18 18 17 18 18 17 17 17 16 17 18 18 18 18 18 19 20 20 20 21 22 19 18 17 18 18 18 17 18 18
20 20 19 19 19 19 19 19 19 19 18 18 18 18 18 18 18 18 18 18 18 18 18 17 17 17 17 18 19 19 20 21 22 20 19 19 17 16 17 17 17 17 17
19 19 19 19 19 19 18 18 18 18 18 18 18 18 18 18 18 18 18 18 18 18 17 17 17 17 17 18 18 19 20 20 21 20 19 18 17 16 16 15 16 17 17
19 18 18 18 18 18 18 18 18 18 18 18 18 18 18 18 18 18 18 17 17 18 17 17 17 18 18 18 19 19 20 20 21 21 19 19 18 17 15 15 16 16 16
18 18 18 17 17 18 18 18 18 17 17 18 18 18 18 18 18 18 18 18 17 17 17 18 18 18 18 19 19 19 19 20 20 20 19 18 18 17 15 15 15 16 16
18 18 18 18 18 18 17 17 17 17 18 18 18 18 18 18 18 18 18 18 17 17 18 18 18 18 18 18 19 19 19 19 20 20 19 18 18 18 16 16 15 15 15
19 19 19 19 19 18 18 17 17 18 18 18 18 18 18 18 18 17 17 18 18 18 18 18 18 18 19 18 18 19 19 19 19 19 19 18 17 17 17 16 15 14 14
20 21 20 20 19 19 18 18 18 19 18 18 18 18 18 19 18 18 19 18 18 18 18 18 18 19 18 18 18 18 18 18 18 19 18 17 17 17 16 16 15 13 13
21 21 20 20 20 20 19 18 19 19 19 19 19 19 19 19 19 18 18 18 19 19 18 18 19 18 18 17 17 17 17 17 17 17 17 17 16 16 16 15 14 12 12
21 20 19 19 19 19 20 20 20 20 19 19 19 18 18 17 18 18 19 18 18 18 18 18 18 18 18 17 17 17 16 16 16 16 17 17 16 16 15 14 14 12 11
21 19 18 19 19 20 20 20 19 19 19 18 17 17 17 17 17 17 17 17 18 18 17 17 17 16 16 16 16 16 16 16 16 16 16 16 16 15 14 13 13 12 10
22 20 19 19 19 20 19 18 18 17 16 16 17 16 16 16 16 16 16 16 15 16 16 15 15 15 15 15 15 16 16 16 15 15 15 15 15 15 13 12 11 10 10
22 20 20 19 19 19 18 17 16 16 17 16 15 15 15 15 15 15 15 15 15 15 14 14 14 14 14 14 14 14 15 15 14 14 14 15 15 14 12 11 10 10 9
22 21 20 20 18 18 17 16 17 18 18 16 15 16 16 16 15 14 14 14 14 14 14 14 13 13 13 13 13 14 14 13 13 14 14 14 14 13 12 11 10 10 9
22 21 19 18 17 17 16 16 16 17 16 16 15 16 16 15 14 14 14 14 14 14 14 13 12 12 12 12 12 13 13 12 13 13 13 13 13 13 12 11 10 10 9
23 21 18 16 15 15 15 15 15 15 15 15 15 15 14 14 14 15 14 13 13 14 13 12 12 11 11 12 11 12 12 12 12 12 12 13 13 12 11 11 10 10 9
23 18 17 15 15 15 15 15 15 15 15 14 15 15 15 15 14 14 14 14 13 13 12 12 11 11 11 11 10 10 11 11 11 12 11 11 11 11 11 10 10 9 9
20 16 15 15 15 15 16 17 17 16 15 16 16 15 15 14 13 14 13 13 12 12 12 12 11 10 10 10 9 10 8 9 11 10 10 10 10 9 9 9 9 9 9
18 17 17 16 16 16 18 18 17 17 17 16 15 14 14 13 13 13 13 12 12 11 11 11 10 10 9 9 9 9 7 7 8 9 8 9 8 8 8 7 8 8 7
18 18 17 17 18 19 19 19 18 18 17 17 16 15 14 13 13 12 12 12 11 11 11 10 10 10 9 9 9 9 8 8 6 5 7 7 7 7 7 7 7 7 6
18 19 20 20 20 19 19 19 18 18 17 16 16 15 14 14 14 13 12 12 11 11 11 10 10 9 9 8 8 7 7 6 6 5 4 5 5 6 6 6 6 6 6
20 20 20 20 19 18 18 18 18 17 16 15 15 14 14 14 14 13 13 12 11 10 10 10 9 9 8 7 7 6 6 5 5 5 3 4 4 5 5 5 5 6 6

GFSSE_925_temp_057.txt.gz
Temp
18 20 19 19 19 20 19 19 19 20 20 20 20 19 19 18 18 18 18 17 17 17 17 19 19 19 19 19 19 20 19 18 18 18 18 18 17 17 18 19 18 18 18
19 19 19 19 19 19 19 19 19 19 19 19 19 19 18 18 18 17 17 17 17 16 16 18 19 19 19 20 20 20 19 18 18 17 17 18 18 17 18 18 18 18 18
19 19 19 19 19 19 19 19 19 19 19 19 19 18 17 18 18 18 17 17 16 16 17 18 19 19 19 20 20 20 19 19 19 18 17 17 17 17 17 18 17 17 18
19 19 19 19 19 19 19 19 19 19 19 18 18 18 17 18 17 17 17 17 17 16 16 18 18 18 19 19 20 20 20 20 20 19 17 17 17 17 18 18 17 17 17
19 19 18 19 19 19 18 18 18 18 18 18 18 17 17 17 17 17 17 17 17 17 18 18 18 18 19 19 20 20 20 19 19 18 17 17 17 17 17 17 17 17 17
18 19 19 19 18 18 18 18 18 18 18 18 18 18 18 17 17 17 18 18 18 18 18 18 18 18 19 19 20 20 20 19 18 18 18 18 18 17 17 17 17 17 16
19 18 19 19 19 19 18 18 18 18 18 18 18 18 18 18 18 18 18 18 18 18 18 18 18 18 19 19 20 20 20 18 19 18 19 18 18 18 16 17 16 16 16
17 17 18 18 18 18 18 18 18 18 18 18 18 18 18 18 18 18 18 18 18 18 18 18 19 19 19 19 20 20 20 20 18 18 18 18 18 18 17 15 16 16 16
17 17 16 17 18 18 18 18 18 18 18 18 18 18 18 19 19 18 18 18 19 19 18 19 19 19 19 19 19 19 19 19 18 18 18 17 17 17 17 16 15 15 15
17 18 17 18 18 18 18 18 18 18 18 19 18 19 19 19 18 19 19 19 19 19 19 19 19 19 18 18 19 19 18 18 18 18 17 17 17 16 16 16 16 15 14
17 17 18 17 18 18 17 18 18 18 18 19 19 19 18 18 18 19 19 19 19 18 18 19 19 18 18 18 18 18 17 18 17 17 17 17 16 15 15 15 15 14 13
16 17 18 18 18 18 18 18 18 19 19 19 18 18 18 18 18 18 18 18 18 18 18 18 18 18 17 17 17 17 17 17 17 16 16 16 16 15 15 15 14 13 12
18 18 19 18 18 19 19 19 19 18 18 18 18 18 17 17 17 17 17 17 17 17 18 18 17 17 17 17 17 16 16 16 16 16 16 16 16 15 15 14 13 12 11
17 18 19 19 19 19 19 19 19 18 18 18 18 18 18 18 18 17 17 16 16 16 16 16 16 17 17 16 16 16 16 16 16 16 15 15 15 15 14 13 11 11 10
18 19 19 19 20 19 18 18 18 18 18 18 17 17 17 17 17 17 16 16 16 16 16 16 16 16 15 15 15 15 15 15 15 15 14 14 14 14 14 12 10 10 10
19 19 19 19 20 19 18 18 18 18 18 18 17 17 17 16 17 17 16 15 16 16 15 15 14 14 14 14 14 14 14 14 14 14 14 14 13 13 12 11 10 10 9
19 18 19 19 18 19 18 18 17 18 18 17 17 17 16 16 16 16 15 15 15 15 14 14 14 14 14 13 13 13 13 13 13 13 13 13 13 13 12 11 10 10 9
19 19 19 18 18 18 18 18 18 18 17 16 17 17 16 16 15 16 15 15 15 14 14 13 13 13 12 12 12 12 12 12 12 12 12 13 13 12 11 11 10 10 9
20 19 19 18 18 18 18 17 17 16 16 15 16 16 16 15 15 15 15 14 14 13 13 13 12 11 11 11 11 11 11 11 11 11 11 11 11 11 11 10 10 10 9
19 19 19 18 18 17 17 17 16 15 14 15 15 15 15 14 14 14 14 14 13 13 12 12 11 11 10 10 10 10 10 10 10 10 10 10 10 10 9 9 9 9 9
18 18 18 18 16 17 16 16 15 15 14 15 15 15 14 14 14 14 13 13 12 12 12 11 11 10 10 9 9 9 9 10 9 9 9 9 9 8 8 8 8 8 8
16 17 17 16 17 17 17 16 16 15 15 15 15 14 14 14 14 13 13 12 12 12 11 11 10 10 10 9 9 8 5 8 8 8 8 8 8 7 7 7 8 7 7
15 16 15 16 16 16 17 16 16 16 15 15 15 14 14 13 13 13 12 12 11 11 11 11 10 10 9 9 9 8 4 4 6 7 7 7 7 7 7 6 6 6 6
16 17 17 16 16 17 16 17 17 16 15 15 15 14 14 13 13 13 13 12 12 11 11 10 10 10 9 9 8 8 8 7 3 3 6 6 6 6 6 6 6 5 6
17 17 17 18 18 17 17 18 17 17 16 16 15 14 14 14 14 13 13 12 11 11 10 10 9 9 9 8 8 7 7 6 6 3 3 4 5 5 5 5 5 5 5
18 18 18 17 17 18 18 18 18 16 15 15 14 14 14 13 13 12 12 11 10 10 10 9 9 9 9 8 7 7 6 5 4 4 2 2 3 4 4 4 4 4 5

GFSSE_925_temp_060.txt.gz
Temp
18 19 19 20 20 20 20 19 19 19 19 20 20 19 19 19 19 18 18 18 18 17 18 19 19 20 19 19 18 18 18 18 18 18 18 18 18 18 18 18 18 17 17
18 19 20 20 20 20 19 18 18 19 19 19 19 19 19 19 18 18 18 18 17 17 17 19 19 19 19 18 18 18 18 18 18 17 18 18 18 18 18 17 18 17 17
18 18 20 20 20 19 19 18 18 18 18 18 18 18 18 18 18 18 17 17 16 16 18 19 19 19 19 19 19 19 20 19 18 17 17 17 16 16 17 17 17 17 17
18 18 19 20 19 19 18 18 18 17 18 18 18 18 18 18 18 17 17 17 17 18 19 19 19 19 19 19 19 19 20 20 18 17 17 17 16 17 17 17 17 17 16
18 18 19 20 20 19 18 18 17 18 18 18 18 18 18 18 18 18 18 19 19 19 19 19 19 20 20 19 19 19 18 18 18 18 18 17 17 17 18 17 17 17 16
18 18 18 19 18 18 18 18 18 18 18 18 18 18 18 18 18 19 19 19 18 18 19 19 19 20 20 20 18 18 18 18 18 18 17 17 17 18 18 17 17 16 16
18 19 19 19 18 18 18 18 18 18 18 18 18 18 18 18 19 18 19 18 18 19 19 19 19 19 20 20 19 18 18 18 18 18 17 17 17 16 17 17 17 16 16
17 17 17 18 18 18 18 18 18 18 18 18 18 18 19 19 19 19 19 19 19 19 19 19 19 19 19 19 19 17 18 18 18 17 17 17 16 16 16 16 16 16 15
16 16 16 16 17 18 18 18 18 19 18 18 19 19 19 19 19 19 19 19 19 19 19 19 19 18 18 18 18 18 17 17 17 17 16 16 15 15 15 16 16 15 15
16 16 17 17 18 17 18 18 18 19 19 19 19 19 19 19 19 19 19 18 18 18 18 18 18 18 18 18 18 18 17 17 17 17 16 16 15 14 14 14 14 14 14
15 16 18 17 17 17 18 18 19 19 19 19 18 18 18 19 18 18 18 18 18 18 18 17 18 17 17 18 18 17 17 16 16 16 15 15 15 14 14 14 13 13 13
15 16 17 16 17 17 18 18 19 19 18 18 18 18 18 17 17 18 17 17 17 17 17 17 17 17 17 17 17 16 16 16 16 16 15 15 14 14 13 13 13 13 12
16 16 17 18 17 17 18 19 19 18 18 18 18 17 17 17 17 17 16 17 17 17 16 16 16 16 16 16 16 16 15 15 15 15 15 14 14 14 13 12 12 11 11
16 17 18 18 18 18 19 19 19 18 18 17 17 17 17 17 16 17 17 17 17 16 16 16 16 16 16 15 15 15 15 15 14 14 14 14 14 13 13 11 11 10 10
17 17 18 18 18 18 19 18 18 17 17 17 17 17 17 17 17 17 16 16 16 16 16 15 15 15 15 14 14 14 14 13 13 13 13 13 13 13 11 11 11 10 10
16 16 18 18 18 18 18 18 18 17 17 17 17 18 17 17 17 16 15 15 15 15 15 15 15 14 14 14 13 13 12 12 12 12 12 12 12 12 12 10 10 10 10
17 19 19 18 18 18 18 17 17 17 17 17 17 17 17 16 16 15 15 15 15 15 14 14 14 14 13 13 12 12 12 12 12 11 11 12 12 11 11 10 10 10 9
19 19 18 18 18 18 17 17 17 17 17 17 17 17 16 16 15 16 15 15 14 14 14 14 13 12 12 11 11 11 11 11 10 10 10 10 11 9 9 9 9 9 9
19 19 18 18 18 17 17 17 17 16 16 16 16 16 16 16 15 15 15 14 14 14 13 12 12 11 10 10 10 10 10 10 9 9 9 9 9 9 9 9 9 8 8
19 19 18 18 18 17 17 16 16 15 15 15 16 15 15 14 14 14 14 13 13 13 12 11 11 10 10 10 9 9 9 9 9 8 8 9 9 9 8 8 8 8 8
18 18 18 18 17 17 16 15 15 15 15 15 15 14 14 14 14 14 13 13 12 12 12 11 10 10 10 9 9 9 9 9 8 8 8 8 8 7 7 7 7 7 8
17 17 17 17 17 17 17 17 16 15 14 15 14 14 14 14 14 14 13 13 12 12 11 11 10 10 10 9 9 7 5 7 8 7 8 7 7 7 7 6 6 6 6
15 16 16 17 17 17 17 16 16 15 14 14 14 14 14 14 13 13 13 12 12 11 11 11 10 10 9 9 8 8 4 4 4 7 7 6 6 6 6 6 6 5 5
14 15 15 16 17 17 16 16 15 15 14 14 14 14 14 13 13 13 13 12 12 11 11 10 10 9 9 8 8 8 8 7 3 2 6 6 6 6 5 5 5 5 5
15 16 16 16 16 16 16 15 15 15 15 15 14 14 13 13 13 12 12 11 11 10 10 9 9 9 8 8 8 7 7 6 5 3 2 3 4 5 5 5 4 4 4
16 16 16 16 15 16 16 16 16 16 15 14 14 13 13 12 13 11 11 11 10 10 9 9 8 8 8 7 7 7 6 5 4 4 2 2 1 3 4 4 4 4 4

GFSSE_925_temp_063.txt.gz
Temp
18 19 19 20 21 21 21 20 19 18 18 17 17 17 18 18 18 18 19 19 19 19 18 17 17 18 18 18 18 18 18 18 18 18 18 17 16 16 17 17 17 17 16
19 19 19 20 20 21 21 20 19 17 18 18 18 18 18 19 19 19 19 19 19 19 18 16 17 18 19 19 19 19 18 18 18 18 18 17 16 16 17 17 17 16 15
18 18 19 19 20 20 20 19 18 18 18 18 18 19 19 19 19 19 19 19 18 18 17 16 17 18 19 19 20 20 18 18 18 18 18 17 16 16 17 17 17 17 16
18 18 18 19 19 20 19 19 18 19 18 18 19 19 19 19 19 19 19 19 18 17 18 17 18 18 19 19 19 20 19 18 18 18 17 17 16 16 17 17 17 17 17
18 18 18 19 19 19 18 19 18 18 18 18 18 19 19 19 19 19 19 19 19 19 19 19 18 18 18 19 18 18 18 17 17 17 17 16 16 16 17 17 17 17 16
18 17 18 19 18 18 19 18 18 18 18 18 18 19 19 19 19 19 19 19 19 19 19 19 18 18 18 18 18 18 17 18 18 17 17 16 16 15 17 17 17 16 16
18 18 18 18 18 18 18 18 18 19 18 18 18 19 19 19 18 19 19 19 19 19 19 19 18 17 18 18 18 18 18 18 18 17 16 16 16 15 16 16 16 16 16
18 18 17 18 18 18 19 18 20 19 18 18 18 18 18 18 18 18 18 18 19 18 18 19 18 18 17 17 18 18 18 17 17 17 16 16 15 15 14 15 15 15 16
17 17 15 16 16 17 18 19 20 19 18 19 19 18 18 18 18 18 18 18 18 18 18 18 18 18 18 17 17 17 17 17 17 16 16 16 15 15 14 14 13 14 14
16 15 15 16 16 17 18 19 19 19 19 18 18 18 18 18 18 18 18 18 17 17 17 17 17 18 18 17 17 17 17 16 16 16 15 15 14 14 14 13 13 14 14
15 15 15 16 17 17 18 18 18 18 17 18 18 18 17 17 17 17 17 17 17 17 17 17 17 17 17 17 16 16 16 15 15 15 15 15 14 14 13 13 13 13 14
15 14 15 15 17 17 18 18 18 18 18 18 18 17 17 17 17 17 17 17 17 17 17 17 16 16 16 16 16 16 15 15 15 14 14 14 14 14 13 12 12 12 13
14 14 15 16 17 17 18 17 18 17 17 17 17 17 17 16 17 17 17 17 17 17 16 16 16 16 16 15 15 15 15 14 14 14 14 14 14 13 12 12 11 11 11
15 15 15 17 17 17 17 17 17 17 17 17 17 17 17 17 16 17 17 17 17 16 16 16 16 15 15 14 14 14 14 13 13 13 13 13 13 13 12 11 11 10 11
15 16 16 17 17 17 17 17 17 17 17 17 17 17 17 17 17 17 16 16 16 15 15 15 15 14 14 13 13 13 12 12 12 12 12 12 13 12 12 11 11 10 10
16 16 17 17 17 17 17 17 17 17 17 17 17 17 17 17 16 16 16 15 15 15 15 14 14 14 13 13 13 12 12 11 11 11 11 12 12 12 11 11 10 10 10
15 17 17 17 17 17 17 17 17 17 17 17 17 17 16 16 16 15 15 15 14 14 14 14 13 13 13 13 12 12 11 10 10 10 10 11 11 9 10 9 10 9 9
17 17 18 17 17 17 17 17 17 17 16 16 17 16 16 15 15 15 15 14 14 14 13 13 13 13 12 11 11 10 10 9 9 9 9 9 9 9 9 9 9 9 9
17 17 17 17 17 17 17 17 16 16 16 16 16 15 15 15 15 15 15 14 14 14 14 13 12 11 11 10 10 9 9 9 9 8 9 9 9 9 9 9 8 8 8
17 17 18 17 17 17 16 16 15 15 16 16 16 15 15 15 14 14 14 14 14 13 13 12 11 10 10 9 9 9 9 8 8 8 8 8 8 8 8 8 8 8 8
17 17 17 17 16 16 15 15 15 15 15 15 15 15 15 14 14 14 14 13 13 13 12 11 10 10 9 9 9 8 9 8 8 7 8 7 7 7 7 7 7 7 7
17 17 16 16 16 16 16 15 15 15 15 15 14 14 14 14 14 14 14 13 12 12 11 11 10 10 9 9 8 6 4 6 7 8 7 7 6 6 7 6 6 6 5
17 17 17 16 16 16 16 15 15 14 14 13 13 14 14 14 14 14 13 13 12 11 11 10 10 9 9 8 8 8 4 3 4 7 6 6 6 6 6 5 5 5 5
17 17 17 16 16 16 15 14 15 15 13 13 14 14 13 13 14 13 12 12 11 10 10 9 9 9 8 8 8 8 7 7 3 2 6 6 5 5 5 5 4 4 4
15 16 16 15 15 15 15 15 15 15 15 14 14 13 13 12 12 12 11 10 10 10 9 9 9 8 8 7 7 7 6 6 5 2 1 3 4 4 4 4 4 4 4
15 15 15 14 15 15 15 15 15 15 14 14 13 13 12 11 11 11 10 10 10 9 9 8 8 7 7 7 6 6 5 5 4 3 -0 2 2 3 3 3 4 3 3

GFSSE_925_temp_066.txt.gz
Temp
19 18 18 18 18 19 19 19 19 20 20 19 19 20 19 19 19 19 19 17 17 16 16 17 17 18 18 18 18 18 18 18 18 17 16 16 16 16 17 17 17 17 16
19 18 18 19 19 19 19 18 18 18 18 18 18 18 19 19 19 19 19 17 16 16 17 18 18 18 18 18 17 18 18 18 17 17 17 16 16 16 17 17 17 16 17
19 18 18 19 19 19 19 18 18 18 19 18 18 18 18 19 19 19 19 17 16 16 17 17 18 19 19 19 18 17 17 17 17 17 17 16 16 15 16 17 16 16 16
19 18 18 18 19 19 20 19 19 19 20 18 18 19 18 18 19 19 18 17 16 16 16 18 18 18 19 19 18 17 18 18 18 17 17 16 16 15 16 16 16 16 16
18 17 18 19 19 19 19 19 19 19 19 18 19 18 18 18 18 19 18 17 16 16 16 18 18 18 19 19 18 18 18 18 18 17 17 16 15 15 15 17 17 16 16
18 17 18 19 18 18 19 19 18 20 19 19 19 18 18 17 18 18 17 16 16 16 17 18 18 18 18 18 18 17 18 18 17 17 16 16 15 15 15 16 16 16 15
18 18 18 19 18 18 19 19 18 19 17 19 18 17 18 18 17 18 18 18 18 17 17 17 18 18 18 18 18 18 18 17 17 16 16 16 15 14 15 16 16 16 16
18 18 18 19 19 18 18 19 20 18 20 19 18 18 18 17 17 18 18 18 18 17 17 17 17 17 18 18 18 17 17 17 16 16 16 15 15 14 14 14 15 15 15
17 17 17 17 17 17 18 19 17 18 20 18 17 17 17 17 17 17 17 18 18 18 18 16 17 17 17 17 17 17 16 16 16 16 15 15 14 14 14 13 13 14 14
16 16 16 16 16 17 17 17 17 19 18 17 17 17 17 17 17 17 17 17 17 17 17 17 16 17 16 16 16 16 16 15 15 15 15 14 14 14 13 13 13 13 14
15 15 15 15 15 16 16 16 18 19 18 17 17 17 17 17 17 17 17 17 17 17 17 17 16 16 16 16 15 15 15 15 15 15 14 14 14 13 13 12 12 13 12
14 14 14 14 15 15 16 16 17 17 17 17 17 17 17 17 17 17 17 16 17 17 16 16 16 16 16 15 15 15 14 14 14 14 14 14 14 13 12 12 11 12 12
13 14 13 14 14 16 17 17 17 17 16 17 17 16 16 17 17 17 17 16 16 16 16 16 16 16 15 15 14 14 14 13 13 13 13 13 13 13 12 11 11 11 10
14 14 14 16 15 16 17 17 17 17 17 17 17 16 17 17 17 17 17 16 16 16 15 16 15 15 15 14 14 13 13 13 13 13 13 13 13 12 12 11 11 10 10
13 13 15 16 17 16 17 17 16 16 17 17 17 17 17 17 17 16 16 16 15 15 15 15 14 14 14 13 13 13 12 12 12 12 12 12 12 12 11 11 11 10 10
13 13 15 15 16 16 17 17 16 16 16 17 17 17 16 17 16 16 15 15 15 15 14 14 14 13 13 13 12 11 11 11 11 11 11 11 11 10 10 10 10 10 10
14 15 15 16 16 16 17 17 16 16 17 17 16 16 16 16 16 15 15 15 14 14 14 14 13 13 12 12 11 11 10 10 10 10 10 10 9 9 10 9 10 9 9
16 16 16 16 16 16 16 16 16 16 16 16 16 16 16 15 15 15 15 14 14 14 14 13 12 12 11 11 11 10 9 9 9 9 9 9 9 9 9 9 9 9 9
16 16 16 16 16 16 16 16 16 16 15 15 15 15 15 15 15 15 15 14 14 13 13 13 12 11 11 10 10 9 9 9 8 8 8 8 8 9 9 9 8 8 8
17 17 17 16 17 16 16 15 15 15 14 15 15 15 15 15 14 14 14 14 13 13 13 12 12 11 10 10 9 9 8 8 8 8 8 8 8 7 7 7 7 8 8
16 16 16 16 16 16 15 15 14 14 14 14 14 15 15 14 14 14 14 14 13 13 12 12 11 10 9 9 8 8 8 8 7 7 7 7 7 7 7 6 6 7 7
17 17 16 16 16 16 16 15 15 15 14 15 14 14 14 14 14 14 14 13 13 12 11 11 10 10 9 8 8 6 4 6 7 7 7 7 7 7 6 6 6 5 5
17 17 17 17 16 16 15 15 14 13 14 13 13 14 14 14 14 13 13 12 12 11 11 10 10 9 9 8 8 8 4 4 4 7 7 6 6 6 6 5 5 5 5
16 17 17 16 16 15 15 14 14 13 13 13 14 14 13 13 13 12 12 11 11 11 10 9 9 9 8 8 7 7 7 6 3 2 5 6 5 5 5 5 4 4 4
16 16 16 16 15 14 14 14 14 13 14 14 13 13 13 12 12 11 12 11 11 10 9 9 8 8 8 7 7 6 6 6 5 2 1 3 4 4 4 4 3 3 3
15 16 15 15 14 14 14 13 13 14 13 13 13 12 12 11 11 12 11 11 10 9 9 9 8 8 7 6 6 6 5 4 4 3 -0 1 1 3 3 3 3 2 2

GFSSE_925_temp_069.txt.gz
Temp
18 18 20 20 20 20 20 20 20 20 20 20 20 20 20 19 19 19 19 19 19 17 17 19 19 18 17 17 17 17 17 17 17 17 16 16 16 16 17 17 17 17 15
18 18 19 19 20 20 20 20 20 20 20 20 20 20 19 19 19 18 18 19 19 18 18 18 17 17 17 17 18 18 18 18 18 17 16 15 15 15 17 17 17 16 15
18 18 18 19 19 20 20 21 20 20 19 19 19 19 19 18 17 17 18 18 17 17 17 18 18 18 18 18 18 18 18 18 17 17 16 17 16 15 15 16 16 16 15
18 18 17 18 19 19 20 20 19 19 19 19 19 19 17 17 16 16 17 17 17 17 18 19 19 19 18 17 17 17 17 17 17 16 17 17 16 15 15 16 16 15 15
18 17 17 17 17 18 18 17 17 17 18 18 19 18 16 16 16 16 17 17 17 18 18 19 19 19 18 17 17 17 17 17 18 16 17 16 17 15 15 15 15 15 16
17 17 17 18 18 18 17 17 17 17 17 17 18 17 16 16 15 16 16 17 17 17 18 18 19 18 17 17 17 18 17 17 16 16 16 16 16 14 14 15 15 15 15
18 17 18 18 18 17 18 19 19 18 17 18 17 16 16 16 16 16 16 17 17 18 18 18 18 17 17 17 17 17 17 17 16 16 16 16 15 14 14 15 15 15 15
17 17 18 18 19 19 19 19 19 18 18 18 18 17 17 17 16 17 17 17 17 18 18 18 18 18 17 17 17 17 17 17 16 15 15 16 14 14 14 13 14 14 14
17 17 17 18 18 18 19 18 18 18 17 18 19 18 17 17 17 17 17 17 17 17 17 17 17 17 17 17 17 16 16 16 15 15 15 15 14 14 13 13 13 13 13
16 16 16 16 16 17 17 17 16 17 17 19 18 17 17 17 17 17 17 16 16 17 17 17 17 17 17 16 16 16 16 15 14 14 14 14 14 13 13 13 13 13 13
15 15 15 15 15 14 16 17 17 17 18 18 17 17 17 17 17 17 17 16 16 16 16 16 16 16 16 16 15 16 16 15 14 14 14 14 14 13 13 12 12 12 11
15 14 14 14 13 14 14 17 17 18 18 17 17 17 17 17 17 16 16 16 16 16 16 16 16 15 16 15 15 15 15 14 14 14 13 14 14 13 12 12 11 11 11
14 14 13 14 15 16 16 16 16 16 17 17 17 17 17 17 16 16 16 16 16 16 15 15 15 15 15 14 14 14 14 13 13 13 13 13 13 13 12 11 11 11 10
13 12 13 14 14 15 15 16 16 16 16 16 17 17 17 17 16 16 16 16 15 15 15 15 15 14 14 14 13 13 13 13 12 12 12 13 13 12 12 11 11 10 10
13 13 13 13 15 15 16 16 16 16 17 17 16 17 17 17 16 16 15 15 15 15 15 15 14 14 13 13 13 12 12 12 12 11 11 12 12 12 12 11 11 10 10
13 14 14 15 15 15 16 16 17 17 16 16 16 16 16 17 16 15 15 15 15 15 14 14 14 14 13 13 12 12 11 11 10 10 10 9 10 11 11 10 10 10 10
13 14 13 13 14 15 15 16 16 17 16 16 16 16 16 15 15 15 15 15 14 14 14 14 13 13 12 12 11 11 10 10 10 10 10 9 9 10 10 10 10 9 9
14 14 14 15 16 15 16 16 17 16 16 15 15 15 15 15 15 15 15 14 14 14 14 13 13 12 11 10 10 10 9 9 9 9 9 9 9 9 9 9 9 9 9
15 15 14 15 16 15 16 16 16 16 15 15 15 15 15 15 15 15 14 14 14 13 13 13 12 12 11 10 10 9 9 8 8 8 8 8 9 8 8 8 8 8 8
15 15 15 16 15 16 15 15 15 15 14 14 15 14 15 15 15 14 14 14 13 13 13 12 12 11 10 10 9 9 8 8 8 7 8 8 7 8 7 7 7 7 7
15 15 16 16 16 16 15 14 13 14 13 14 14 14 15 15 14 14 14 14 13 13 12 12 12 11 9 9 9 9 8 7 7 7 7 7 7 7 7 6 6 6 6
16 16 16 16 16 15 15 15 14 14 13 14 13 14 14 14 14 14 14 13 13 12 12 12 11 9 8 9 9 8 11 10 7 7 7 6 6 6 6 6 5 5 5
16 16 16 15 16 15 15 15 14 13 13 12 13 13 13 14 14 13 13 13 12 12 12 11 10 9 9 8 8 9 10 10 9 7 6 6 6 6 6 5 5 4 4
16 15 15 15 15 15 15 15 15 13 12 12 13 13 13 13 13 13 12 12 12 11 11 10 9 9 9 9 7 7 6 7 9 9 7 6 5 5 5 5 4 4 3
15 16 15 15 15 15 15 14 14 13 13 13 13 13 13 12 12 12 12 12 11 11 10 9 9 8 8 8 7 7 6 6 6 6 8 7 6 5 5 5 4 3 2
15 15 14 14 14 14 14 14 13 14 13 13 12 12 12 11 12 12 12 11 10 10 9 9 8 8 7 7 6 6 6 6 7 6 6 6 6 5 4 4 4 3 2

GFSSE_925_temp_072.txt.gz
Temp
21 20 18 18 18 18 19 20 20 20 20 19 18 18 19 19 20 20 20 19 18 18 17 17 17 17 17 18 18 18 19 18 18 17 16 16 16 16 17 17 18 17 15
21 20 18 18 18 18 19 19 20 19 19 18 17 18 19 20 20 19 19 18 18 17 17 17 18 18 18 18 18 18 18 18 18 18 18 18 16 16 17 17 17 16 15
21 20 18 18 18 19 19 19 19 19 19 18 18 19 19 19 19 18 18 18 18 18 19 19 18 17 17 17 17 18 18 18 18 18 19 19 17 15 15 16 16 15 15
21 21 19 18 18 19 19 19 19 19 19 19 19 19 19 19 18 18 18 18 18 18 18 18 17 16 17 17 18 18 18 18 18 19 20 19 17 15 15 15 15 16 16
21 21 19 19 19 19 19 18 18 19 19 18 18 18 18 18 18 18 18 18 18 17 17 17 17 17 17 18 18 18 18 18 18 20 19 19 18 15 15 16 15 15 15
20 20 18 19 19 19 18 18 19 19 18 17 17 17 17 17 17 17 17 17 18 17 19 18 18 17 17 17 18 18 17 18 19 19 19 17 17 14 14 14 14 14 14
19 20 18 19 19 19 18 18 18 18 17 17 16 16 17 17 17 17 17 18 18 18 18 18 17 17 17 17 17 17 17 18 19 19 19 18 16 14 14 13 14 13 13
19 18 18 18 18 18 17 17 18 18 18 17 17 17 17 17 17 17 18 18 18 18 18 18 17 17 17 17 17 17 17 17 18 19 19 17 14 14 13 13 13 13 13
19 18 17 18 18 17 17 16 17 18 17 18 18 17 17 17 17 18 18 17 18 18 18 17 17 17 17 17 16 17 17 17 18 18 18 18 14 14 13 13 13 12 12
16 16 16 16 16 16 16 16 16 17 16 17 18 18 17 17 17 17 17 17 17 17 17 17 17 17 16 16 16 16 16 16 17 18 18 15 14 13 13 13 12 12 12
16 16 16 15 14 14 16 16 16 16 17 17 17 18 17 16 16 17 16 17 17 17 17 17 16 16 16 16 16 15 16 17 17 17 17 14 14 13 12 12 12 12 11
15 14 15 14 14 14 15 16 15 16 16 16 16 16 17 17 17 16 15 16 16 16 17 16 16 16 16 16 15 16 16 15 16 16 14 14 14 13 12 12 11 11 11
14 14 13 13 14 13 14 13 14 15 15 16 16 17 16 16 16 16 15 15 15 15 15 15 16 16 15 15 15 14 15 15 15 15 13 13 14 14 12 11 11 11 10
14 13 13 13 12 14 14 15 15 15 15 15 16 16 16 17 16 16 16 16 14 15 15 15 14 13 13 13 13 13 13 14 14 15 14 13 13 13 12 11 11 10 10
13 12 12 13 14 14 15 15 15 16 16 16 15 16 17 17 16 16 15 14 15 14 15 15 14 14 13 13 13 13 13 13 13 14 13 11 12 12 12 11 11 10 10
13 12 12 13 13 14 14 15 15 15 16 15 16 16 16 16 15 14 14 15 15 15 15 15 15 14 14 14 13 12 12 13 12 12 13 11 11 11 11 10 11 10 10
12 12 12 12 14 14 15 15 15 16 16 17 16 15 16 16 14 13 15 15 15 14 13 14 14 14 14 14 13 12 13 12 12 12 12 12 12 10 10 10 9 9 10
13 13 14 15 15 16 15 15 16 16 16 15 15 15 14 14 14 15 15 15 14 14 14 14 14 14 14 14 13 13 13 12 12 11 11 12 11 12 11 9 9 9 9
16 16 16 16 16 16 15 16 16 16 15 15 14 15 14 14 14 15 15 14 13 14 14 14 14 14 14 14 14 13 12 12 11 11 11 11 10 10 11 10 9 9 8
17 17 17 16 16 15 15 15 15 15 15 14 14 14 13 14 14 14 14 14 14 14 13 13 13 13 13 13 13 13 12 11 11 11 11 10 10 9 10 9 9 10 8
17 18 17 17 16 16 15 16 16 15 14 14 13 13 13 14 14 14 14 13 14 14 13 13 13 12 13 12 12 14 13 11 10 10 10 10 10 10 9 9 8 9 9
18 17 17 17 16 16 17 17 17 16 14 14 15 12 12 13 13 14 14 13 13 13 12 12 12 13 12 11 12 13 15 14 11 10 10 10 10 9 9 9 8 7 7
18 18 18 18 18 17 17 17 16 16 14 14 14 12 12 14 13 14 13 13 13 13 13 12 12 12 13 11 10 12 14 15 13 12 10 10 9 9 9 8 8 7 6
19 19 19 19 18 17 17 17 16 17 16 15 14 12 12 13 13 13 13 13 13 13 12 12 11 11 11 12 11 10 10 10 12 12 12 11 9 9 8 8 8 7 6
20 19 19 19 18 17 16 16 16 17 16 13 12 12 12 12 13 13 12 12 12 12 11 10 10 10 11 11 11 11 10 10 10 10 11 11 10 10 9 8 7 7 6
20 19 17 17 17 16 15 15 16 16 14 12 12 11 12 13 13 12 12 12 11 10 10 9 9 8 9 9 10 9 9 10 10 10 10 10 9 9 9 8 7 7 6

GFSSE_925_temp_078.txt.gz
Temp
22 19 20 20 20 20 20 20 20 20 20 20 21 20 20 20 19 19 19 18 18 18 18 17 17 18 19 19 19 19 19 19 18 17 16 16 16 15 16 16 15 15 15
21 19 20 19 19 20 20 20 20 20 20 20 20 20 19 19 19 18 18 18 18 18 17 17 17 18 19 19 19 19 19 18 19 18 17 15 15 15 15 15 15 15 15
20 19 20 20 19 19 19 19 19 19 19 19 20 19 19 19 19 18 18 18 18 18 17 17 17 18 19 19 19 19 19 19 19 18 18 16 15 15 15 14 14 14 14
20 19 19 20 19 18 19 19 18 18 19 19 19 19 19 19 18 18 17 18 18 17 17 17 17 19 19 19 19 19 19 18 18 19 18 16 15 14 14 14 14 14 14
21 20 19 20 19 18 18 18 18 18 19 19 19 19 18 18 18 18 17 18 18 17 17 16 19 19 19 19 19 19 19 19 19 19 17 16 15 14 14 14 13 13 13
21 21 19 19 18 18 18 18 18 18 19 18 18 18 18 18 18 18 17 17 17 17 16 18 18 18 18 19 18 19 19 20 19 18 16 15 14 14 13 13 13 13 13
22 20 19 19 19 18 18 18 18 18 18 18 18 18 18 18 18 17 17 17 17 17 17 18 18 18 18 18 19 19 20 20 21 18 16 15 14 14 13 13 13 12 12
21 20 19 18 18 17 18 18 17 18 18 17 17 18 18 18 18 18 18 18 17 17 17 17 18 18 18 18 18 19 19 19 20 18 16 15 14 13 13 13 12 12 12
16 18 18 18 18 17 17 17 17 17 17 17 18 18 18 18 18 18 19 18 17 18 17 17 18 18 18 18 18 18 19 19 20 18 15 14 14 13 13 13 12 12 12
15 15 16 17 17 16 16 16 16 16 17 17 18 18 18 18 18 18 18 18 18 18 17 17 18 17 17 17 17 18 18 19 18 17 16 14 14 13 13 12 12 12 12
14 16 16 16 16 16 16 16 16 16 17 17 17 17 17 17 17 18 18 18 18 17 17 17 17 17 17 17 17 18 18 18 18 17 16 14 13 13 12 12 12 11 11
15 15 15 15 16 16 16 16 16 16 16 16 17 17 16 17 17 17 17 18 18 17 17 17 17 17 17 17 17 17 17 18 17 16 15 15 14 13 12 12 11 11 11
14 14 15 15 15 15 15 15 15 15 15 16 17 17 17 17 17 17 16 17 17 17 17 17 17 16 16 17 17 17 17 17 16 16 15 15 14 13 12 11 11 11 11
14 14 14 13 13 14 14 14 14 14 15 16 17 17 17 17 17 16 16 16 16 16 17 17 16 16 16 16 15 15 15 16 16 15 15 14 14 12 12 11 11 11 10
13 12 12 12 11 12 12 13 14 16 16 16 17 17 17 17 17 17 16 16 17 17 17 16 16 15 15 15 15 15 15 15 15 14 15 14 14 12 12 12 11 11 10
12 12 12 12 11 12 13 15 15 15 16 16 16 17 17 17 17 17 17 17 17 17 16 16 16 16 16 15 15 14 15 15 14 14 14 13 13 13 12 11 11 11 10
12 12 11 11 11 12 12 14 15 16 16 16 17 17 16 17 17 17 17 17 17 16 17 17 16 16 16 16 15 15 15 14 14 14 14 13 13 12 12 12 11 10 10
12 12 11 11 12 12 13 13 14 13 16 16 16 16 15 16 16 16 16 16 17 17 17 16 16 16 16 16 16 16 15 15 14 13 13 13 12 12 11 11 11 10 10
11 11 12 13 13 13 12 13 13 15 15 15 16 17 16 16 16 16 16 17 17 16 16 16 16 16 16 16 16 15 15 14 14 14 13 13 12 12 11 11 10 10 10
12 12 12 12 12 12 13 14 14 15 16 16 17 17 16 16 15 16 17 17 16 16 16 16 16 16 16 16 16 16 15 14 14 14 13 13 13 12 11 11 10 10 9
13 12 13 13 13 13 13 14 16 16 16 17 17 16 16 15 16 16 17 16 16 16 16 16 15 15 15 14 14 15 15 14 14 13 13 12 12 12 12 11 10 10 9
13 13 14 14 14 14 14 16 17 17 17 17 16 16 17 16 16 16 16 15 15 16 15 15 14 15 15 14 14 14 11 13 13 13 13 12 12 12 11 11 11 10 10
16 16 16 15 15 16 16 17 18 18 17 16 16 16 16 16 16 16 16 16 16 16 15 14 14 15 15 14 13 13 11 11 12 14 13 13 12 12 11 11 10 10 10
18 18 18 19 17 17 17 19 19 19 17 16 16 15 15 14 15 15 16 16 15 15 14 14 14 14 14 13 12 12 12 12 9 9 13 12 12 12 11 11 10 10 10
19 19 19 19 19 18 18 19 20 19 18 17 16 16 15 14 14 15 15 15 15 15 15 14 14 13 13 13 12 12 13 12 12 10 8 11 12 12 12 11 11 10 10
20 19 19 20 19 19 18 19 19 19 18 17 16 15 14 13 13 13 15 15 15 14 14 14 13 12 12 11 11 11 11 11 11 11 8 10 10 10 11 10 10 10 9

GFSSE_925_temp_081.txt.gz
Temp
19 19 19 20 21 21 22 22 22 22 22 21 21 21 21 21 20 19 18 18 18 17 17 18 20 20 20 19 19 18 18 18 17 16 15 15 15 15 15 14 15 15 15
19 19 19 20 21 21 21 21 21 21 21 21 21 21 20 20 19 18 18 18 18 17 17 20 20 19 19 19 18 18 17 17 17 17 15 15 15 14 14 14 14 14 15
19 18 19 19 20 20 20 20 20 20 20 20 20 20 20 19 19 18 18 18 17 17 17 19 19 19 19 18 18 17 17 17 16 16 17 15 15 14 14 14 14 14 14
23 23 18 19 18 18 19 19 19 19 19 19 19 19 19 19 18 18 18 18 17 17 17 18 19 19 18 18 18 18 18 17 17 16 17 15 14 14 14 13 13 13 14
23 24 20 18 18 18 18 18 19 19 19 19 19 19 18 18 18 18 18 17 17 17 17 19 19 19 19 18 18 18 18 17 17 17 17 15 14 14 13 13 13 13 13
23 23 16 18 19 18 18 18 19 19 19 19 19 19 18 18 17 18 17 17 17 17 17 19 19 19 19 19 19 19 18 17 17 17 16 14 13 13 13 13 12 12 12
20 19 17 19 18 18 18 18 19 18 18 19 19 18 18 18 17 18 17 17 17 18 19 19 19 19 19 19 19 19 18 18 16 16 15 14 13 13 13 12 12 12 12
16 17 18 18 18 18 18 18 18 18 18 18 18 18 18 18 17 18 17 18 18 18 19 19 19 19 19 19 19 19 17 16 16 16 15 14 13 13 13 12 12 12 12
16 16 15 18 18 17 18 18 17 17 17 18 18 18 18 17 17 17 17 17 18 18 18 18 18 18 18 19 19 19 17 16 16 15 14 14 13 13 13 12 12 12 12
18 16 17 15 17 17 17 17 17 17 17 18 18 18 17 17 17 17 17 18 18 18 18 18 18 18 18 18 18 18 17 16 16 16 15 14 13 13 12 12 12 12 11
17 17 16 14 16 16 16 16 17 17 17 17 17 17 17 17 17 17 17 18 18 18 18 18 18 18 18 18 17 18 17 17 17 16 16 14 13 12 12 12 12 11 11
14 14 15 16 16 15 15 16 16 16 16 16 16 17 17 17 17 18 18 18 17 17 18 17 17 17 17 17 17 17 17 16 16 16 16 15 13 12 12 11 11 11 11
14 14 14 15 15 15 15 15 15 16 16 16 16 16 17 17 17 17 17 17 17 17 17 17 17 16 16 16 17 17 16 16 16 16 15 15 13 12 12 11 11 11 11
14 14 14 14 15 15 15 15 15 16 16 16 16 17 17 17 17 17 17 17 17 17 17 16 16 16 16 16 17 16 16 15 15 15 15 14 13 12 12 11 11 10 10
13 13 13 13 14 14 15 14 15 15 16 17 17 17 17 17 16 17 17 17 17 17 16 16 16 16 16 16 15 15 15 15 14 14 14 14 14 12 12 11 11 10 10
12 12 12 12 12 13 14 15 15 16 17 16 17 16 17 17 17 17 17 17 17 16 16 16 16 16 16 15 15 15 15 15 14 13 13 13 13 13 12 11 11 11 10
12 12 12 12 12 12 13 14 15 16 16 16 16 16 17 17 17 17 17 16 17 16 16 16 16 16 15 15 15 15 15 14 14 14 13 13 12 12 12 12 11 11 10
11 11 11 11 11 12 13 14 13 14 15 15 16 15 17 17 17 17 17 17 17 16 16 16 16 16 16 16 15 15 14 14 14 14 13 13 12 12 12 11 11 11 10
11 12 11 11 12 12 13 13 14 15 14 14 15 16 17 16 16 17 16 16 16 16 16 16 16 16 16 16 15 15 15 15 14 14 13 13 12 12 12 11 11 10 10
12 13 12 12 13 13 13 13 14 14 14 15 16 17 19 17 16 16 16 16 16 16 16 16 16 16 16 16 15 15 15 15 14 14 13 13 12 12 11 11 10 10 10
11 11 11 11 12 13 12 13 15 15 15 17 18 17 17 17 16 16 16 15 16 16 16 16 16 15 15 15 15 15 14 14 14 14 13 13 12 12 11 11 11 10 10
11 11 11 12 12 13 14 14 14 16 16 16 16 16 16 16 16 16 16 16 16 16 16 16 15 15 15 14 14 13 10 12 13 13 13 13 12 12 12 11 11 10 10
12 12 12 12 12 12 13 13 13 14 15 16 16 16 16 16 16 17 16 16 16 16 16 15 15 15 14 14 14 14 10 9 11 13 13 12 12 12 12 12 11 10 10
12 13 13 13 13 14 14 14 14 15 15 15 16 16 16 16 16 17 16 16 16 15 16 15 15 14 14 13 13 13 13 13 8 8 11 12 12 12 12 11 11 11 10
14 13 14 14 14 14 15 15 15 16 16 17 16 16 16 16 16 16 16 15 16 15 15 15 14 14 14 13 13 12 12 12 12 9 7 10 11 11 10 10 10 10 10
15 15 15 15 15 15 15 16 16 17 17 17 16 16 15 15 15 15 15 15 15 15 15 14 14 14 13 13 12 12 11 11 10 10 6 7 8 10 10 10 9 9 9

GFSSE_925_temp_084.txt.gz
Temp
18 19 21 25 21 21 22 22 21 21 21 21 20 19 19 19 18 18 18 18 17 17 17 17 18 17 17 16 16 16 16 16 15 15 15 15 15 15 14 14 14 15 15
19 20 20 21 22 21 21 21 21 21 21 21 21 21 20 19 18 18 18 17 18 17 17 17 17 16 16 16 17 17 17 17 16 15 14 14 14 14 14 14 14 14 15
19 19 19 18 21 21 20 21 21 21 21 21 21 21 20 19 18 18 18 17 17 17 17 17 17 16 16 16 16 16 16 16 16 16 15 14 14 14 14 14 14 14 15
18 20 22 20 18 19 20 20 20 20 21 21 20 20 19 18 18 18 17 18 18 18 17 17 16 17 17 17 17 17 16 16 16 16 15 14 14 13 13 13 14 14 14
19 19 19 19 18 18 19 20 20 20 20 20 20 20 19 18 18 18 18 19 19 18 17 17 17 17 17 17 17 17 16 16 16 16 15 14 13 13 13 12 13 13 13
19 19 17 18 24 17 19 19 20 20 19 19 19 19 18 18 18 18 18 19 19 18 18 18 18 18 18 18 19 18 17 17 16 16 15 13 13 13 13 12 12 12 12
18 16 17 18 17 18 18 19 19 19 19 19 19 19 18 17 18 17 18 19 19 19 19 18 18 18 17 17 17 17 17 17 17 15 14 13 13 13 12 12 12 12 11
17 17 16 16 16 18 18 19 19 18 19 18 19 18 18 17 17 17 18 19 19 19 19 19 19 18 17 17 17 16 17 16 15 14 14 13 13 13 12 12 12 11 11
17 19 18 19 17 16 17 17 18 18 18 18 18 18 17 17 17 17 18 19 19 19 19 19 19 18 18 17 17 17 16 16 15 14 14 13 13 13 12 12 12 11 11
15 15 20 17 17 15 16 17 17 18 18 18 18 18 17 17 17 17 18 18 19 19 19 19 18 18 18 17 17 16 16 15 15 15 14 13 13 13 12 12 12 11 11
15 16 16 15 14 15 16 16 16 17 18 17 17 17 17 17 17 17 18 18 19 19 18 18 18 18 18 17 16 16 16 16 16 15 14 13 13 12 12 12 11 11 11
15 15 15 16 16 16 15 15 15 16 16 16 16 16 16 16 17 17 17 18 18 18 18 18 17 17 17 17 17 16 16 16 15 15 14 13 13 12 12 11 11 11 11
14 15 15 17 15 15 15 15 14 16 16 16 16 17 17 17 17 17 17 17 17 18 18 17 17 16 16 17 17 16 16 16 15 15 15 13 12 12 12 11 11 11 10
14 14 15 15 16 15 15 15 15 15 16 16 17 17 17 18 17 17 17 17 17 17 17 17 16 16 16 16 16 16 15 15 15 15 14 14 13 12 12 11 11 10 10
13 14 14 14 14 14 13 14 15 15 16 16 17 17 18 18 17 17 17 17 17 17 17 16 16 16 16 16 16 15 15 15 14 14 14 13 12 12 12 11 11 10 10
13 13 14 14 14 14 14 14 15 15 16 16 17 17 18 18 17 17 17 17 17 17 16 16 16 16 16 16 15 15 15 14 14 14 13 13 12 12 12 11 11 11 10
12 12 12 13 14 14 14 15 16 15 16 17 17 17 18 18 17 17 17 17 17 16 16 16 16 16 16 16 15 15 14 14 14 13 13 13 13 12 12 12 11 11 10
12 11 12 12 13 14 14 15 16 16 16 16 16 16 17 17 17 17 17 17 16 16 16 16 16 16 16 15 15 15 14 14 14 13 13 13 13 12 12 12 11 11 11
12 12 11 11 12 12 13 14 15 15 15 16 16 17 16 16 16 16 16 17 17 16 16 16 16 16 15 15 15 15 14 14 14 14 14 13 13 12 12 12 11 11 10
11 11 11 11 12 12 13 13 14 14 15 15 16 17 16 17 16 16 16 16 16 16 16 16 16 16 16 15 15 15 14 14 14 14 13 13 13 12 12 11 11 11 10
11 11 11 12 12 12 12 12 12 13 14 16 16 18 16 16 16 16 16 16 16 16 16 16 16 16 15 15 14 14 14 14 14 13 13 13 12 12 12 11 11 10 10
11 11 11 11 11 11 12 12 13 14 15 16 17 16 15 16 16 16 16 16 16 16 16 16 16 15 15 14 14 12 10 12 12 13 13 13 12 12 11 11 11 11 10
11 11 11 11 12 13 13 13 14 15 15 15 15 15 16 17 17 16 16 16 15 16 16 16 16 15 15 14 14 14 8 9 10 12 12 12 12 12 12 11 11 11 10
11 11 11 11 12 13 13 13 13 14 14 14 16 17 17 18 17 16 16 16 15 15 16 16 16 15 15 14 13 14 13 13 8 9 11 12 12 12 11 11 11 10 10
11 11 11 12 12 12 13 13 13 13 14 16 16 17 17 16 16 16 16 15 15 15 16 15 15 15 15 14 13 12 12 11 11 9 7 10 11 11 11 11 10 10 10
12 12 11 12 12 12 12 13 13 13 14 14 15 15 15 16 16 16 16 15 15 15 15 15 15 15 14 14 14 13 12 11 10 9 6 7 8 10 10 10 9 9 9

GFSSE_925_temp_090.txt.gz
Temp
18 19 20 21 22 23 23 24 24 23 22 21 21 20 19 19 19 19 18 18 18 17 17 17 16 16 16 16 15 15 15 15 15 15 15 15 15 15 15 15 15 15 15
18 19 20 20 21 22 21 20 22 22 21 21 20 19 19 19 19 18 18 18 17 17 17 16 16 16 15 15 15 14 14 14 14 14 14 15 15 15 15 15 15 15 15
19 19 18 19 20 20 20 19 21 21 21 20 20 19 19 19 19 18 17 17 17 17 16 16 16 15 15 14 14 14 14 14 14 13 14 14 14 14 14 15 15 14 14
18 18 19 19 18 20 20 18 19 20 21 20 19 19 18 18 18 17 17 17 17 17 16 16 16 15 15 15 14 14 14 14 14 14 14 14 14 14 14 14 14 14 14
18 18 18 18 19 19 20 20 20 19 20 21 19 18 18 18 17 17 16 16 17 17 17 16 16 15 15 16 16 16 15 15 14 14 13 13 13 13 13 13 13 13 13
17 18 18 18 19 20 20 20 20 20 19 20 20 18 17 17 17 16 16 16 17 17 16 16 15 16 16 16 16 16 15 15 15 14 13 13 13 13 12 12 12 12 12
18 18 18 18 19 20 21 22 22 20 18 18 17 17 17 17 16 16 16 16 16 16 16 17 17 16 16 16 16 16 15 15 14 13 13 13 13 12 12 12 12 11 11
17 20 20 17 18 18 19 20 21 20 19 18 17 18 17 17 16 16 16 16 16 17 17 18 17 16 16 16 16 16 15 15 14 13 12 12 12 12 12 11 11 11 11
17 17 18 19 18 18 18 19 20 19 18 17 17 18 17 16 16 16 16 16 17 17 18 18 17 16 16 16 16 15 15 15 14 13 12 12 12 12 12 11 11 11 11
16 15 16 17 17 17 17 19 20 19 18 18 18 18 17 16 16 16 16 17 17 17 18 17 17 16 16 16 16 16 15 14 14 13 12 12 12 12 12 11 11 11 10
14 14 15 15 15 16 16 17 17 17 17 17 17 19 17 17 16 16 17 17 17 17 18 17 17 16 16 16 16 16 15 14 13 13 12 12 12 12 12 11 11 11 10
14 15 14 14 15 15 15 16 16 16 16 16 16 17 16 17 17 17 17 16 17 17 18 17 17 17 16 16 15 15 15 14 13 13 12 12 12 12 11 11 11 10 10
14 14 14 15 15 15 15 15 15 14 15 15 16 16 15 16 16 17 16 15 16 17 17 17 16 16 16 16 15 16 15 14 13 13 12 12 12 12 11 11 11 10 10
14 14 14 15 15 14 14 15 14 14 14 15 15 15 15 15 16 16 16 16 16 17 17 16 16 16 16 16 16 15 15 14 13 13 12 12 12 12 11 11 11 10 10
14 14 14 14 14 14 14 14 14 13 15 14 15 15 15 15 16 17 17 17 16 16 17 16 16 16 16 16 16 15 14 14 14 13 12 12 12 12 12 11 11 10 10
13 14 14 14 13 14 14 13 13 13 14 14 14 15 15 15 17 18 17 17 16 17 16 17 16 16 16 16 15 15 15 14 14 14 12 12 12 12 11 11 11 10 10
13 13 13 14 13 13 13 13 13 13 13 15 14 15 16 17 17 17 17 17 17 16 16 16 16 16 16 15 15 14 14 14 14 13 13 12 12 11 11 11 11 11 10
13 13 13 14 13 13 13 12 13 13 14 14 14 18 18 18 17 16 16 16 17 16 16 16 16 15 15 15 15 14 14 14 14 13 13 12 12 12 12 12 11 11 10
12 12 13 13 13 13 13 12 12 13 14 14 16 17 18 19 17 16 16 17 16 16 16 16 15 16 15 14 14 14 14 14 14 13 13 13 13 12 12 12 12 11 11
12 12 12 12 12 12 12 12 13 13 14 15 16 15 16 16 16 16 17 16 16 15 15 15 15 15 15 15 14 13 13 13 13 13 13 13 12 12 12 12 11 11 11
11 12 11 11 11 12 12 12 13 14 15 15 16 16 16 16 15 16 16 16 16 15 15 15 15 15 14 14 13 12 12 13 13 13 13 12 12 12 12 12 11 11 11
11 11 11 11 11 12 12 13 12 13 14 14 16 17 17 17 16 16 16 16 16 15 15 15 15 14 14 14 13 12 10 11 12 12 12 12 12 12 11 11 11 11 11
11 11 11 11 11 12 12 13 12 13 13 14 14 16 15 15 16 17 17 16 16 15 15 15 15 15 14 13 14 14 8 9 9 11 12 12 12 12 12 11 11 11 11
11 11 11 12 11 12 12 13 13 13 13 15 15 15 15 15 15 16 16 16 15 15 15 15 15 15 15 14 13 13 12 12 9 9 10 11 11 11 11 11 11 11 10
11 11 11 11 11 12 12 13 13 13 13 14 15 15 15 15 15 15 15 15 15 15 15 15 15 14 14 14 14 13 11 11 11 9 8 9 10 11 11 11 11 11 10
12 11 11 11 11 11 12 12 13 13 13 13 14 14 14 15 15 15 15 15 16 15 15 15 14 14 14 14 14 14 13 12 10 9 8 8 8 9 10 10 11 10 10

GFSSE_925_temp_093.txt.gz
Temp
19 19 19 20 21 19 21 22 22 21 21 22 21 20 19 20 19 19 18 18 18 18 17 17 17 17 16 16 16 15 15 15 15 16 16 16 16 15 15 15 16 16 15
18 18 20 21 22 19 20 22 21 20 20 20 20 19 19 19 19 18 18 18 17 17 17 17 16 16 16 15 15 14 15 15 15 15 15 15 15 15 15 15 16 15 15
18 18 19 19 20 19 19 20 20 20 20 20 19 19 19 19 18 18 18 17 17 17 17 16 16 16 15 14 14 14 14 14 15 15 16 16 15 15 15 15 15 15 14
18 18 18 20 20 19 19 19 20 21 21 20 19 18 18 18 17 17 18 17 17 16 16 16 16 15 14 14 14 14 13 14 14 14 16 16 15 15 14 14 14 14 14
18 18 18 19 19 18 19 19 20 20 20 20 19 18 18 17 17 17 17 17 16 16 16 16 15 15 16 16 16 15 14 14 14 15 15 15 15 14 14 14 14 14 13
18 18 18 19 19 19 18 18 20 20 19 20 19 18 18 17 17 17 17 16 16 16 16 15 15 17 16 16 15 15 14 14 14 15 14 14 14 13 13 13 12 12 12
18 17 18 18 19 20 19 18 19 19 19 19 20 19 18 17 17 17 17 17 17 17 16 15 16 17 16 15 15 14 15 14 14 14 14 14 13 13 12 12 12 12 12
17 17 17 18 19 19 19 19 18 20 20 17 18 19 17 17 17 17 17 17 17 16 16 16 16 16 16 15 15 15 14 13 14 14 14 14 12 12 12 12 11 11 11
16 16 18 15 16 18 18 19 19 19 19 17 17 17 17 17 17 17 17 16 16 16 17 17 16 16 16 16 15 15 15 13 14 14 14 14 12 12 12 11 11 11 11
14 14 15 15 17 16 17 18 19 19 18 18 18 17 17 17 17 16 17 16 17 17 17 17 16 16 16 15 15 14 14 13 14 14 14 13 12 12 12 11 11 11 11
14 14 14 15 15 16 17 18 19 19 18 17 17 16 16 16 16 17 16 17 17 17 17 17 16 16 15 15 14 14 13 14 13 14 14 12 12 12 12 11 11 11 10
15 15 14 15 15 16 17 17 17 17 17 17 17 16 16 15 16 16 16 16 17 17 16 16 16 16 15 14 14 14 13 13 13 14 13 12 12 12 12 11 11 11 10
15 15 15 14 15 15 16 15 16 15 16 17 17 16 16 15 15 15 15 16 16 16 14 15 15 14 14 14 13 13 13 13 13 13 13 12 12 12 12 11 11 10 10
14 14 14 15 15 14 15 15 14 15 15 16 17 16 15 14 14 15 15 16 16 15 14 14 15 16 16 16 15 15 13 13 13 13 12 12 12 12 12 11 11 10 10
14 14 14 14 14 14 14 14 14 14 16 15 16 15 16 14 14 15 16 16 16 17 17 16 16 15 16 15 15 14 14 13 12 13 13 12 12 12 12 11 11 10 10
14 14 14 14 14 14 14 14 14 14 14 15 15 15 15 14 14 15 16 17 17 17 16 16 16 16 15 15 15 15 14 14 12 12 13 12 12 12 11 11 11 10 10
13 13 13 13 13 14 14 14 14 13 13 14 14 15 15 14 15 15 16 16 17 17 16 16 16 15 15 15 15 14 14 14 13 12 12 12 12 12 11 11 11 10 10
13 13 13 13 13 14 13 13 13 13 13 14 14 14 14 15 16 16 15 16 16 16 16 16 16 14 15 14 14 14 13 14 13 13 12 12 12 12 11 11 11 11 10
13 13 13 13 13 13 13 13 13 13 13 14 14 15 16 17 17 17 16 15 16 15 16 16 15 15 14 13 14 14 13 13 13 13 12 12 12 12 12 11 11 11 11
12 12 13 13 12 13 13 13 13 13 13 13 14 16 17 17 17 16 15 15 15 14 15 16 15 15 14 14 13 12 13 13 13 13 12 12 12 12 12 11 11 11 11
12 12 12 12 12 12 12 12 12 13 13 14 15 17 16 17 17 16 16 16 15 14 15 16 15 14 13 13 12 11 12 12 12 13 12 12 12 12 12 11 11 11 10
11 11 12 12 12 12 12 12 12 12 13 14 15 16 17 17 17 16 16 16 15 15 15 15 15 13 13 13 13 13 14 13 12 12 12 12 12 11 12 12 12 11 11
11 11 11 11 11 12 12 12 12 13 13 13 14 15 16 17 17 17 15 16 16 16 15 15 15 14 13 13 14 14 13 15 13 10 11 11 12 11 11 11 12 11 11
12 11 11 11 11 11 12 13 13 13 13 13 14 15 16 16 16 16 16 16 17 16 15 15 15 14 13 13 12 14 13 13 15 15 10 10 9 10 11 10 10 11 11
12 11 11 11 11 11 12 13 13 13 13 14 14 15 16 16 16 16 15 15 15 16 16 15 14 14 14 13 13 11 10 10 11 14 16 12 9 11 11 10 11 11 11
12 12 11 11 11 11 11 12 13 13 13 14 14 15 16 16 16 15 15 16 16 16 15 14 14 14 14 13 12 13 13 13 11 10 11 9 10 11 10 11 11 11 10

GFSSE_925_temp_096.txt.gz
Temp
23 23 21 20 21 21 21 21 21 21 21 21 20 21 20 19 19 18 18 18 18 18 17 17 17 17 17 16 16 16 16 16 16 16 16 16 16 16 16 17 18 17 15
24 23 20 20 19 21 20 21 22 22 21 20 19 19 19 19 19 18 18 18 18 18 17 17 17 16 16 15 15 16 16 16 16 16 16 16 16 16 16 16 16 15 15
22 22 21 19 19 20 20 21 21 20 20 19 18 19 19 18 19 18 18 18 18 17 17 17 16 16 15 15 15 15 16 16 16 16 17 17 16 15 15 15 15 14 14
21 22 21 19 19 19 19 19 20 19 19 18 19 19 18 18 18 18 18 18 17 17 17 16 16 15 14 14 15 15 15 16 16 18 19 18 16 15 15 14 14 14 14
21 21 21 20 19 18 19 19 20 19 19 19 19 18 18 18 18 18 17 17 17 17 16 16 15 14 15 15 14 15 15 16 17 19 18 17 16 15 14 14 14 14 14
20 20 21 19 19 18 19 19 19 18 19 19 18 18 18 18 18 18 17 17 17 16 16 15 15 15 15 15 15 15 15 16 18 18 17 16 16 14 13 13 13 13 13
20 18 18 18 18 18 18 18 18 19 18 18 18 18 18 18 18 17 17 17 17 16 16 15 16 16 16 16 16 15 16 17 18 18 17 16 14 13 13 13 12 12 12
19 17 16 17 16 17 18 18 18 18 18 18 18 18 18 17 17 17 17 17 16 16 16 17 16 16 16 16 15 15 15 17 18 18 17 15 13 13 13 12 12 12 12
16 16 16 17 15 14 17 18 20 18 18 18 18 18 18 18 17 17 17 17 16 16 16 16 16 16 16 16 15 15 15 17 18 17 16 15 12 12 12 12 12 11 11
15 15 15 17 17 15 16 18 19 20 19 17 17 17 18 18 18 17 17 17 17 17 16 16 16 15 15 15 15 15 15 16 18 17 16 14 12 12 12 12 11 11 11
14 15 15 16 16 16 16 18 18 17 19 17 17 16 17 16 17 16 17 17 17 17 16 16 16 15 15 15 15 15 16 17 17 17 16 12 13 12 12 11 11 11 11
18 15 15 14 14 15 16 16 16 18 17 16 16 16 17 17 17 18 16 17 17 16 16 16 16 15 15 15 14 15 17 17 17 17 15 13 13 12 12 11 11 11 10
18 16 15 15 15 15 15 16 16 16 16 16 16 17 17 17 17 16 16 16 15 15 15 15 14 16 17 16 15 17 16 17 17 16 13 13 12 12 12 11 11 11 10
18 17 15 15 15 15 15 16 16 16 16 16 16 17 17 17 17 16 17 17 17 17 16 16 16 17 16 17 16 16 16 17 17 16 13 13 12 12 12 11 11 11 10
17 15 15 15 15 15 15 15 15 15 16 16 16 16 16 17 17 17 18 18 18 18 17 17 17 16 16 16 16 16 16 16 16 16 14 12 12 12 12 12 11 11 10
15 15 15 15 14 14 14 15 15 14 16 16 15 15 16 15 16 17 17 18 18 18 18 17 17 16 16 16 15 15 16 16 16 16 15 13 12 12 12 12 11 11 11
14 14 14 14 14 13 13 14 14 14 15 15 15 15 15 15 15 16 17 18 17 17 17 17 16 16 16 16 16 15 15 15 15 15 15 14 13 12 12 11 11 11 10
13 13 13 13 13 13 13 13 13 14 14 14 15 14 15 15 15 16 17 17 17 17 16 16 16 16 16 16 16 16 16 15 15 15 15 15 14 13 12 11 11 11 10
14 13 13 13 13 13 13 13 14 14 14 14 14 14 15 15 16 17 17 17 16 16 16 16 16 16 16 16 16 16 16 15 14 15 15 14 14 14 13 12 11 11 10
13 12 13 13 13 13 13 13 13 14 14 14 14 14 14 14 14 16 16 15 16 16 15 16 16 16 16 17 17 16 15 15 14 14 14 13 13 13 13 13 11 11 11
13 12 12 12 12 13 13 13 13 13 13 13 13 14 14 13 14 15 15 15 16 16 16 15 15 15 16 15 16 15 14 13 12 13 13 13 13 13 13 13 13 13 11
13 13 12 12 12 12 13 13 13 13 13 13 13 13 13 13 14 14 15 15 16 16 15 14 15 15 14 13 15 16 16 15 14 13 13 13 14 13 13 13 13 13 13
13 14 13 12 12 12 13 13 13 12 12 12 13 13 13 14 14 14 15 15 15 16 15 14 14 14 15 12 14 16 18 18 18 15 14 14 14 13 14 13 13 13 13
13 14 13 13 12 12 12 12 13 12 12 13 12 13 13 14 14 15 15 15 15 15 15 14 14 14 15 15 13 14 14 15 18 17 15 14 13 13 13 14 13 12 12
13 13 13 13 11 12 12 12 12 12 13 13 14 14 14 15 15 15 16 16 14 14 14 14 14 14 15 16 15 14 14 14 15 15 17 15 13 13 13 13 12 12 11
14 14 13 13 12 11 13 13 13 14 13 12 13 13 14 14 15 16 16 16 16 14 15 14 14 14 14 14 15 14 14 15 15 15 12 11 11 13 12 12 11 11 11

GFSSE_925_temp_099.txt.gz
Temp
27 23 22 21 20 19 19 21 21 21 21 21 20 18 19 18 19 19 19 18 18 18 17 17 17 17 17 16 16 17 17 16 16 16 16 16 17 17 17 18 17 16 15
27 24 22 21 20 20 19 20 21 21 21 21 19 19 18 18 18 19 18 18 18 18 17 17 17 17 16 16 16 16 16 16 16 16 16 16 16 16 17 17 16 15 15
26 26 22 22 20 19 19 20 20 20 19 19 19 19 18 18 18 19 18 18 18 18 17 17 17 16 16 15 16 16 16 17 17 17 18 17 16 15 15 15 15 15 15
24 25 24 22 21 20 19 20 19 19 19 20 20 19 18 18 18 18 18 18 18 17 17 17 16 16 15 15 16 16 17 18 18 19 19 18 17 15 15 14 14 14 14
24 24 24 23 21 20 19 19 19 19 18 18 19 19 18 19 18 18 18 18 17 17 17 16 16 15 14 16 16 17 17 18 19 20 19 18 16 15 15 14 14 14 14
24 23 22 22 21 20 19 19 19 18 18 19 19 19 18 19 18 18 18 18 17 17 16 15 15 14 15 16 16 17 18 19 20 20 18 17 16 13 13 14 13 13 13
23 22 20 20 20 20 19 19 19 18 18 19 19 18 18 18 17 17 17 17 17 16 15 15 14 14 16 16 17 18 18 19 20 19 18 16 14 13 13 13 13 13 13
21 20 18 19 19 20 18 16 18 18 19 19 18 18 18 18 17 17 17 17 16 16 15 14 15 16 16 16 17 17 18 19 20 19 18 15 13 13 13 13 12 12 12
19 18 18 16 19 20 20 16 16 18 18 19 18 18 18 17 17 17 17 16 16 16 17 17 17 16 16 16 16 17 18 19 20 18 17 15 13 13 13 12 12 12 12
18 17 17 16 17 15 15 14 15 18 19 18 18 18 17 17 17 17 16 16 17 17 17 17 17 17 16 16 16 17 18 19 19 18 17 14 13 13 12 12 12 12 11
17 17 17 16 15 16 14 14 15 17 19 18 18 17 17 16 17 16 17 16 17 17 17 17 16 16 16 16 16 17 18 20 19 18 15 13 13 13 12 12 11 11 11
19 17 17 16 15 14 15 16 15 16 16 17 17 17 17 17 17 18 16 16 16 17 17 17 16 16 15 15 16 17 18 19 19 18 14 13 13 13 12 12 11 11 11
22 17 16 16 15 15 15 15 16 16 16 16 17 17 17 17 17 17 16 15 15 16 15 15 15 15 17 17 17 18 18 19 19 17 13 13 13 12 12 11 11 11 11
21 19 17 17 16 16 16 17 16 16 16 16 16 17 18 17 17 17 16 16 16 16 15 16 16 18 18 18 18 18 18 19 19 16 13 13 12 12 12 12 11 11 10
20 18 16 16 17 16 16 16 16 16 16 16 16 17 17 17 17 17 17 17 17 17 16 17 17 18 18 18 18 17 18 18 18 17 14 13 12 12 12 12 11 11 11
19 18 17 16 16 16 16 16 16 15 16 16 16 16 17 16 17 17 18 18 18 18 18 18 19 18 18 18 17 17 18 18 18 17 15 13 12 12 12 12 12 11 11
19 18 17 17 16 16 16 16 15 16 15 15 16 16 16 17 17 18 18 19 19 19 19 19 19 18 18 18 17 17 17 17 18 17 16 14 13 12 12 12 12 11 11
18 16 16 14 15 15 15 15 15 15 15 16 15 15 16 17 17 17 18 19 20 19 19 19 18 18 18 18 18 18 18 17 17 17 17 16 14 14 12 12 11 11 11
17 15 14 14 15 14 14 13 14 14 15 15 15 14 15 15 16 17 18 18 18 19 18 19 18 18 18 18 18 18 17 17 17 17 17 17 16 15 14 12 11 11 11
16 14 14 14 13 13 13 13 14 13 14 14 15 14 14 15 15 16 17 16 18 18 18 18 18 18 18 19 19 18 17 17 17 17 16 16 16 15 15 14 12 11 11
15 14 13 13 13 13 13 13 14 14 14 14 15 14 14 14 14 16 16 16 17 17 17 17 17 17 18 18 19 18 17 16 16 16 16 16 15 14 14 14 13 12 12
15 14 13 13 13 13 13 13 13 13 14 14 14 14 14 13 14 15 16 16 16 17 17 17 17 17 18 17 18 18 17 16 15 14 15 15 15 15 14 14 14 14 14
16 15 14 13 13 12 13 13 13 13 13 13 14 13 13 12 13 13 14 15 16 17 16 16 16 17 17 15 16 18 18 18 18 16 14 14 14 14 15 14 14 14 14
17 15 16 14 13 13 13 14 13 14 13 13 13 13 13 12 12 13 14 15 16 16 16 15 15 16 17 16 14 16 16 16 18 17 15 14 15 15 14 14 15 14 14
18 16 15 14 13 13 13 13 13 12 12 13 13 13 13 12 13 13 15 15 15 16 16 16 15 15 16 16 15 15 15 15 15 16 17 16 15 15 15 14 14 15 14
17 16 15 14 13 12 12 13 13 13 12 13 12 12 12 12 13 13 15 15 15 15 15 15 15 14 15 16 16 16 16 16 15 15 15 15 13 15 15 14 14 13 14

GFSSE_925_temp_102.txt.gz
Temp
23 24 23 23 21 20 19 20 21 22 21 21 21 20 20 20 21 21 20 20 19 17 17 17 17 17 17 17 18 18 18 17 17 17 17 17 17 17 17 17 16 16 16
25 23 23 23 21 20 21 20 20 20 20 21 20 19 19 20 20 19 19 18 18 18 17 17 17 16 16 17 18 18 18 17 16 16 16 16 16 16 17 16 15 15 16
25 23 23 23 21 20 20 20 20 19 19 18 19 19 19 19 19 19 18 18 18 17 17 17 17 16 16 17 17 17 17 17 17 17 16 16 15 15 15 15 15 15 15
26 24 22 22 21 20 20 20 20 19 19 19 19 19 18 18 19 18 18 18 18 17 17 17 16 16 16 17 17 17 18 18 18 18 17 16 15 15 15 15 14 14 14
25 25 25 23 23 21 19 20 19 19 19 19 19 20 18 18 18 18 18 18 17 17 17 16 16 15 16 17 18 18 18 18 18 18 17 16 15 15 15 14 14 14 14
25 24 24 22 23 22 21 19 19 19 19 19 19 21 18 18 18 18 18 18 17 17 16 16 15 16 17 18 18 18 18 18 18 18 16 15 15 14 14 13 13 13 14
25 24 22 22 21 21 21 20 19 19 19 19 19 19 18 18 18 18 17 17 17 16 15 15 15 17 17 18 17 18 18 19 18 17 16 14 14 14 13 13 13 13 13
23 22 21 21 20 20 19 20 19 19 19 19 19 19 18 18 17 17 17 17 16 16 15 15 17 17 17 18 18 19 19 19 18 17 15 14 13 13 13 13 12 12 12
21 20 19 18 18 19 18 18 19 18 16 18 19 18 18 18 17 17 17 16 16 15 17 18 18 17 17 18 18 19 19 19 18 16 14 13 13 13 13 13 12 12 12
19 18 19 17 17 17 17 17 16 17 18 14 18 18 19 17 17 17 16 16 16 18 18 18 18 17 17 18 18 19 19 19 18 16 14 13 13 13 13 12 12 12 12
19 18 18 17 16 16 16 16 15 16 15 14 17 18 16 16 17 16 16 16 17 17 18 17 17 17 17 18 19 19 19 19 17 16 14 13 13 13 12 12 12 11 11
21 18 18 17 16 15 15 15 14 13 16 14 17 17 16 16 16 16 16 16 17 17 17 17 17 17 17 18 18 18 19 19 17 15 13 13 13 13 12 12 11 11 11
24 19 18 17 15 15 15 14 15 15 15 13 16 17 16 16 16 16 15 16 16 16 16 16 16 16 17 17 18 18 19 18 16 15 13 13 13 12 12 11 11 11 11
23 19 18 17 16 16 15 16 15 15 15 16 16 16 16 17 16 16 15 15 15 15 16 16 16 16 17 17 17 18 19 18 16 15 13 13 13 12 12 12 11 11 11
22 20 17 17 17 16 16 16 15 15 15 16 15 16 17 17 16 15 15 15 15 15 15 16 17 17 17 17 17 18 18 18 16 15 13 13 13 12 12 12 11 11 11
22 19 18 17 17 16 16 17 17 16 16 16 16 16 17 17 16 15 16 15 16 16 16 17 17 18 18 18 18 18 18 18 16 15 13 12 12 12 12 12 12 11 11
21 20 18 17 17 16 16 17 17 16 15 15 16 16 17 17 16 16 16 16 16 16 17 17 17 18 18 18 17 18 18 18 17 15 14 13 12 12 12 12 12 11 11
20 19 17 16 16 16 16 16 16 16 15 15 15 17 17 17 16 17 17 17 17 17 17 18 18 18 18 18 17 17 17 18 17 16 15 14 13 12 12 12 12 11 11
19 18 16 15 15 16 15 15 16 16 16 15 15 15 16 15 16 17 17 18 18 18 18 18 18 18 18 18 18 17 17 17 17 17 16 15 14 13 13 12 12 11 11
18 16 15 14 15 15 14 14 15 15 15 15 14 15 15 15 15 17 18 18 18 18 19 18 18 18 18 18 18 18 17 17 17 17 17 16 15 14 14 14 13 12 12
16 15 14 14 14 14 14 14 14 14 14 15 15 14 15 15 16 16 18 18 18 18 18 18 18 18 18 18 18 17 17 17 17 17 17 16 16 15 15 14 14 13 12
16 15 14 14 14 13 14 13 13 14 14 14 15 14 14 14 15 16 17 18 18 18 17 18 18 18 18 18 18 17 14 16 16 16 16 16 16 15 15 15 14 13 13
16 16 14 14 14 14 14 13 13 13 14 14 14 14 14 14 14 15 16 17 17 17 17 17 17 17 18 17 17 17 14 14 15 15 15 15 15 15 15 14 14 14 13
16 16 16 14 14 13 13 13 14 13 14 14 14 14 13 13 13 14 15 16 17 15 16 17 17 17 17 16 16 17 16 16 14 13 15 14 15 14 14 14 14 14 14
17 15 16 14 14 13 13 13 13 13 13 13 13 13 13 13 13 14 14 14 15 15 16 16 15 16 16 16 15 16 16 15 15 14 13 14 14 14 14 14 14 15 14
17 16 16 15 14 13 13 13 13 13 13 13 13 12 12 12 11 12 13 14 14 14 14 14 15 16 16 16 16 16 15 15 14 14 12 13 14 15 15 15 15 14 15

GFSSE_925_temp_105.txt.gz
Temp
22 23 23 22 22 23 22 21 21 22 22 21 21 20 20 21 21 20 20 20 20 19 17 17 17 17 17 18 18 18 18 18 17 17 17 17 17 16 16 16 16 16 16
24 23 23 22 21 22 22 22 22 22 21 22 21 20 20 20 20 19 19 19 19 18 17 17 17 17 17 18 18 18 17 17 17 16 17 16 16 16 16 16 16 17 17
24 23 23 23 22 22 22 21 21 20 20 21 20 20 20 20 20 20 19 18 18 17 17 17 16 16 18 18 18 17 17 17 16 16 16 15 15 15 16 16 16 16 16
24 24 23 23 22 21 22 21 20 20 20 20 19 19 19 19 19 19 18 18 17 17 17 17 16 16 18 18 18 18 17 17 17 16 15 15 15 15 16 15 15 15 15
24 24 23 23 23 22 22 21 20 20 19 20 19 19 19 21 18 18 18 18 17 17 17 17 16 17 18 18 17 17 17 17 16 16 15 15 15 15 14 14 14 14 14
25 24 23 23 23 23 22 21 21 19 19 20 19 19 20 20 18 18 18 17 17 17 17 16 15 18 18 17 17 17 17 17 16 16 16 15 15 14 14 13 13 14 14
24 24 24 22 22 21 22 21 21 20 19 19 19 19 20 20 18 17 17 17 17 17 16 16 17 17 18 18 17 17 17 16 16 16 15 14 14 14 14 13 13 13 13
23 22 22 21 20 20 20 20 21 20 19 19 18 18 19 19 18 17 17 17 17 16 16 16 17 18 18 18 18 17 17 16 16 15 14 13 13 13 13 13 12 12 12
22 21 20 20 19 19 19 18 19 20 19 19 18 17 18 18 17 17 17 16 16 16 18 18 17 18 18 18 18 17 17 17 16 15 14 13 13 13 13 13 12 12 12
21 21 20 19 19 18 18 18 18 18 19 18 16 17 17 18 16 16 17 16 16 16 18 18 18 18 18 18 18 18 17 17 16 15 13 13 13 13 13 12 12 12 12
20 20 20 19 18 18 17 17 16 16 17 18 17 16 16 17 16 16 16 16 16 16 18 18 18 18 19 19 18 17 16 16 16 15 13 13 13 13 13 12 12 12 12
19 19 19 19 18 17 16 16 17 16 15 15 16 17 14 17 17 16 16 16 16 16 18 17 18 18 18 18 18 18 16 16 16 15 14 13 13 13 12 12 12 11 11
20 19 18 18 17 16 16 16 17 14 14 14 15 14 15 16 15 15 15 15 14 17 17 17 17 18 18 18 19 18 16 16 16 15 14 13 13 13 12 12 11 11 11
20 19 18 18 17 16 15 16 15 14 13 13 14 16 15 15 15 15 14 14 15 17 17 17 17 17 18 18 18 18 17 17 16 15 13 13 13 12 12 12 11 11 11
19 18 18 17 17 17 16 15 15 15 14 14 13 15 15 15 15 14 14 15 16 16 16 16 17 17 18 18 18 18 17 17 16 16 13 13 12 12 12 12 11 11 11
20 18 18 18 17 17 15 16 15 16 15 14 15 14 15 15 15 14 14 15 15 16 16 17 17 17 17 17 18 18 17 16 16 15 13 12 12 12 12 12 12 11 11
21 19 19 18 17 16 16 16 16 15 14 15 15 15 15 15 15 14 14 14 15 16 16 16 16 17 17 17 17 17 16 16 16 15 14 13 12 12 12 12 12 11 11
20 18 18 17 17 16 17 16 16 15 14 15 15 15 16 16 15 15 14 15 15 16 17 16 16 17 17 17 17 17 16 16 16 15 15 14 13 12 12 12 12 11 11
19 18 17 17 16 16 16 16 16 15 14 15 15 16 16 17 17 15 15 15 16 16 17 17 16 17 17 17 17 17 17 16 16 15 15 14 14 13 13 12 12 12 11
18 18 17 16 16 15 16 15 15 15 15 15 15 15 15 17 17 16 15 16 16 16 17 17 17 18 18 17 17 17 17 17 16 15 15 15 14 14 14 14 13 12 12
17 16 16 15 15 15 15 15 15 15 15 15 15 15 16 16 17 16 17 17 17 16 17 17 18 18 18 17 17 17 17 17 17 17 15 15 15 14 14 14 14 13 13
16 15 15 14 15 15 14 14 14 15 15 15 14 15 15 16 16 16 16 17 17 17 17 17 18 18 18 17 16 16 12 15 16 16 16 15 15 15 14 14 14 14 13
15 16 14 14 15 14 14 14 14 14 14 14 15 14 14 15 15 16 16 17 17 17 17 17 18 18 18 17 17 16 12 13 13 16 16 16 16 15 15 15 14 14 14
15 16 15 14 14 14 14 14 13 13 13 13 14 14 14 14 15 15 17 17 17 16 16 16 17 18 18 17 17 17 17 16 12 12 15 15 15 15 15 15 15 15 14
16 16 15 15 14 14 13 13 13 13 13 14 14 14 13 13 13 14 16 16 16 15 16 15 17 17 17 17 16 16 16 15 15 12 11 13 14 15 15 15 15 14 14
16 16 16 15 14 14 13 13 13 13 13 13 14 13 13 13 13 13 15 15 15 15 16 16 16 16 15 15 16 17 16 15 14 13 11 12 13 15 16 15 15 15 15

GFSSE_925_temp_108.txt.gz
Temp
21 22 21 22 22 22 22 22 22 22 22 21 22 22 21 21 20 19 19 19 19 18 18 18 18 18 18 18 18 18 17 17 17 17 17 17 16 16 16 17 16 16 17
24 23 23 23 23 22 21 22 22 21 21 21 21 21 21 21 20 19 19 19 18 18 17 17 17 17 17 18 18 18 17 17 17 17 17 16 16 16 16 16 16 16 16
25 23 23 23 23 23 22 22 21 21 21 20 20 20 20 20 20 20 19 18 18 17 17 17 17 17 18 18 18 17 17 17 17 16 16 16 16 15 16 16 17 16 16
24 23 23 23 23 22 22 21 21 21 20 20 19 19 19 19 19 19 19 18 17 17 17 17 17 16 18 18 17 17 17 17 16 16 16 15 15 16 16 17 16 16 16
23 24 23 23 23 23 22 22 21 20 19 20 19 19 20 20 19 18 18 18 17 17 17 17 16 17 18 17 17 17 16 16 16 16 15 15 15 15 15 15 15 15 15
24 24 23 23 23 23 22 22 21 20 21 21 19 19 19 19 19 19 18 17 17 17 17 16 16 17 17 16 16 16 15 16 16 15 15 15 15 14 14 14 14 14 14
23 23 23 23 22 22 22 21 20 19 19 20 19 19 19 18 19 19 18 17 17 17 16 16 16 17 17 16 16 16 16 16 16 15 15 14 14 14 14 14 13 13 13
24 23 23 22 21 21 21 20 20 20 19 19 18 19 18 17 18 19 18 17 17 16 16 16 17 17 16 16 16 16 16 16 16 15 14 14 14 14 14 13 13 13 13
23 22 22 21 20 19 19 18 19 19 20 18 18 17 17 18 17 19 19 17 17 16 16 17 17 17 16 17 17 16 16 16 16 15 14 13 13 13 13 13 13 12 12
22 22 21 20 20 19 19 18 18 18 19 18 17 17 16 18 17 18 19 18 17 17 17 17 17 17 17 17 17 17 16 16 15 14 13 13 13 13 13 13 12 12 12
21 21 21 20 19 19 19 18 18 18 17 18 17 17 17 17 16 17 17 17 17 17 17 17 17 17 17 17 17 17 17 16 15 14 13 13 13 13 13 12 12 12 12
20 20 20 19 19 19 18 17 17 17 17 16 16 16 15 16 16 16 16 17 17 17 16 17 17 17 17 16 16 16 17 16 15 14 13 13 13 13 12 12 12 12 12
21 20 19 19 18 18 18 17 16 16 16 16 16 16 15 16 16 15 15 16 16 16 16 16 17 17 17 16 16 17 16 16 15 14 13 13 13 13 12 12 12 12 11
19 20 18 18 18 17 16 16 16 16 15 15 14 15 15 15 15 15 15 15 16 16 16 17 17 18 18 16 17 17 16 15 14 14 13 13 13 13 12 12 12 11 11
19 19 18 17 18 18 16 16 15 15 15 14 14 14 14 15 15 15 14 14 16 16 16 17 17 18 18 16 16 17 16 15 15 14 13 13 13 12 12 12 12 11 11
20 19 18 17 17 17 16 15 16 16 14 13 13 13 14 15 15 15 14 15 15 16 16 16 18 18 18 17 16 16 16 16 15 14 14 13 13 12 12 12 12 11 11
20 19 18 18 17 17 16 16 15 15 14 13 13 14 13 15 15 14 14 14 15 15 16 18 17 17 17 17 16 16 16 15 15 15 14 13 12 12 12 12 12 11 11
19 18 18 18 17 17 16 15 15 15 14 14 13 14 14 15 15 14 13 14 15 15 17 17 17 17 17 17 16 16 16 16 15 15 14 14 13 12 12 12 12 11 11
19 18 18 17 17 17 16 16 15 15 15 14 14 15 15 14 15 14 14 14 15 16 17 17 17 17 17 17 16 16 16 16 15 15 14 14 13 13 12 12 12 11 11
18 18 18 17 16 16 16 16 15 14 15 15 14 15 15 15 14 14 14 14 15 15 15 16 16 16 17 17 17 16 16 15 15 15 15 14 14 13 13 12 12 12 12
17 18 17 16 16 16 15 15 15 14 14 14 15 14 14 15 14 14 14 15 15 15 16 16 15 16 16 17 17 15 14 15 15 15 15 14 14 14 13 13 13 13 12
16 17 16 15 15 15 15 15 15 15 14 14 14 14 15 15 14 14 14 15 15 15 16 16 16 15 16 17 16 15 12 14 13 14 14 15 15 14 14 13 13 13 13
14 15 15 15 15 15 15 15 14 14 14 14 14 14 14 14 14 14 15 15 15 15 15 15 16 16 16 16 17 16 11 12 13 14 14 14 14 14 14 14 14 14 14
14 15 15 15 15 15 14 14 14 14 14 14 14 14 14 14 14 14 15 15 15 15 15 15 16 16 16 15 16 17 17 16 12 12 15 15 14 14 14 14 14 14 14
14 14 14 14 15 14 14 14 14 14 14 14 14 14 14 14 14 14 14 15 14 15 15 15 16 17 17 15 16 15 15 15 14 12 11 13 16 15 15 15 15 14 14
13 14 14 14 14 14 14 14 14 13 13 13 13 13 13 14 13 14 14 14 14 14 15 16 16 16 15 15 16 16 15 15 13 13 10 11 13 17 16 16 15 15 15

GFSSE_925_temp_111.txt.gz
Temp
23 22 20 21 21 20 20 21 21 22 23 22 22 22 22 21 21 20 20 19 19 19 19 19 19 19 18 18 18 18 18 17 17 17 17 17 17 16 16 17 17 16 16
25 23 22 22 22 21 20 20 21 21 22 22 21 21 21 20 19 19 19 19 19 18 18 18 19 18 18 17 18 18 17 17 17 17 17 17 16 16 16 16 16 16 16
24 23 22 22 22 22 21 20 21 21 21 20 20 20 20 20 20 19 19 18 18 18 18 18 18 17 17 17 17 17 17 17 17 16 16 16 16 16 16 16 16 16 16
24 23 22 22 22 22 21 20 20 20 20 21 21 20 19 18 19 18 18 18 18 17 17 18 17 17 17 17 17 17 17 17 16 16 16 16 16 15 15 15 15 15 16
24 23 23 23 22 22 22 21 20 19 20 20 20 20 20 20 20 19 18 18 17 17 17 17 17 17 16 17 17 17 16 16 16 16 16 15 15 15 15 16 16 16 15
24 23 23 23 23 22 22 21 20 20 20 19 19 20 19 19 18 18 18 18 17 17 17 17 16 16 17 16 16 16 16 16 16 15 15 15 16 15 15 15 15 15 15
23 23 23 22 22 22 21 21 20 20 19 19 20 19 19 18 18 17 17 17 17 17 17 16 16 16 16 16 16 16 16 16 16 15 15 15 14 14 14 14 14 13 13
24 23 22 22 22 21 21 20 20 20 19 19 19 18 18 19 18 18 17 17 17 17 16 16 16 16 16 15 16 16 16 16 15 15 15 15 14 14 14 13 13 13 13
22 22 22 21 21 20 20 19 19 19 19 19 18 18 19 18 18 18 17 17 17 17 16 16 16 16 15 16 16 16 16 15 15 15 14 14 14 14 13 13 13 13 13
22 22 22 21 20 19 19 18 18 18 18 19 18 18 18 17 18 19 16 16 17 17 16 15 16 16 16 16 16 16 15 15 15 14 14 14 14 14 13 13 13 13 12
20 21 21 21 20 19 19 18 18 18 18 18 18 18 18 17 17 17 16 17 17 16 16 16 16 16 16 16 16 16 16 15 15 14 14 14 13 14 13 13 12 12 12
19 20 20 20 20 19 18 18 18 18 18 17 17 17 17 16 17 16 18 17 16 16 16 16 16 16 16 16 15 15 16 15 14 14 13 13 14 13 13 12 12 12 12
21 20 19 19 19 19 18 18 18 17 17 17 16 16 16 17 16 17 17 16 16 16 15 16 16 16 17 16 15 16 16 15 14 13 13 13 13 13 13 12 12 12 12
20 21 20 19 18 18 18 17 17 16 16 15 15 15 15 15 15 16 18 17 16 16 15 15 16 16 16 16 16 16 16 15 14 13 13 13 13 13 13 12 12 12 11
20 20 19 19 18 18 17 17 15 15 15 15 15 15 14 14 14 15 14 15 16 16 15 15 15 15 15 16 16 16 16 15 14 14 13 13 13 12 12 12 12 12 11
21 20 20 18 18 17 17 15 15 15 16 15 15 15 15 14 14 15 15 14 15 16 16 16 15 15 16 16 16 16 16 15 15 14 13 13 12 12 12 12 12 12 11
21 20 19 18 17 17 16 16 15 15 14 14 14 14 15 14 14 15 14 14 15 16 16 16 16 15 16 16 16 15 15 15 15 14 13 13 12 12 12 12 12 12 11
20 20 18 18 17 17 16 16 16 16 15 15 14 13 14 14 14 14 14 14 15 16 15 15 16 15 15 16 16 15 15 15 14 14 13 13 12 12 12 12 12 11 11
20 19 18 17 17 16 16 16 15 16 15 14 14 13 13 14 14 14 14 13 15 15 16 16 16 16 16 16 16 15 15 15 15 14 13 13 13 13 12 12 12 11 11
19 19 18 17 17 16 16 15 15 15 15 14 14 13 13 14 14 15 14 14 15 15 15 15 15 16 16 16 15 15 14 15 14 14 14 13 13 13 13 12 12 12 12
17 17 17 16 16 16 15 15 14 14 14 14 14 14 13 14 14 14 13 14 14 15 15 15 15 16 15 15 14 12 12 13 14 14 13 14 14 14 14 13 13 12 12
15 16 16 16 16 16 16 15 15 15 14 14 14 14 14 14 14 14 14 13 14 14 15 14 14 15 16 15 14 13 10 12 12 13 12 14 15 14 14 14 13 13 13
14 15 15 16 15 15 16 15 14 15 14 14 14 14 14 14 14 13 14 14 14 14 14 15 15 15 15 14 16 15 11 12 12 12 13 13 15 14 14 14 14 14 13
14 14 15 15 15 15 15 15 15 14 14 14 14 14 14 14 14 14 14 14 14 14 14 14 15 15 15 14 15 16 17 15 12 12 13 13 14 14 14 14 14 14 14
14 14 14 15 15 15 14 14 15 15 15 14 14 14 14 14 14 14 14 13 13 14 14 14 14 15 16 14 15 15 15 15 14 12 11 12 13 15 16 15 15 15 14
13 13 14 14 14 15 15 14 14 14 14 14 14 14 14 14 14 14 14 14 14 14 14 14 14 15 15 15 15 16 16 15 13 13 11 11 13 15 16 16 16 16 16

GFSSE_925_temp_114.txt.gz
Temp
24 23 22 21 19 20 20 22 22 23 22 22 22 21 21 20 20 20 19 19 19 18 19 19 19 19 18 18 18 18 18 18 18 17 17 17 17 17 16 17 17 17 17
26 24 22 20 18 19 20 21 22 22 21 21 21 21 20 20 20 20 20 19 19 19 18 18 19 18 18 18 18 18 18 18 17 17 17 17 17 16 16 17 17 16 16
25 24 21 19 18 21 21 21 22 22 20 20 20 20 20 20 20 19 19 19 19 18 18 18 18 18 18 18 17 17 17 17 17 17 17 17 17 16 16 16 16 16 16
25 24 22 19 18 20 21 21 21 22 21 19 18 19 19 19 19 19 19 19 18 18 18 18 18 18 17 17 17 17 17 17 17 16 16 16 16 16 15 15 16 16 16
24 24 23 19 19 20 21 21 20 21 21 20 19 19 20 20 20 19 19 19 18 18 18 18 18 17 16 17 17 17 17 16 16 16 16 16 16 15 15 15 15 16 16
25 24 23 21 20 20 21 21 20 20 20 18 19 19 18 19 19 19 18 18 18 18 18 18 18 17 16 17 17 16 16 16 16 16 15 15 15 15 15 16 16 16 16
25 24 23 21 20 21 20 20 20 20 20 19 20 19 20 19 18 18 18 17 18 18 17 17 17 16 17 17 17 16 16 16 16 16 15 15 15 15 15 15 15 15 14
25 23 22 21 19 20 20 20 20 20 20 20 20 20 20 19 18 18 18 17 18 17 17 17 16 16 16 16 16 16 16 16 16 15 15 15 15 14 14 14 14 13 13
23 22 22 21 19 19 20 20 19 19 19 19 19 19 19 18 18 19 17 17 17 17 17 17 16 16 16 16 16 16 16 15 15 15 15 15 14 14 13 13 13 13 13
22 22 21 21 20 19 18 19 19 18 18 19 19 18 18 18 18 17 20 17 17 17 17 16 15 16 16 16 16 16 15 15 15 15 14 14 14 14 14 13 13 13 13
21 21 21 20 20 19 18 18 18 18 18 18 18 18 18 18 17 18 18 17 17 16 16 15 15 15 16 16 16 15 16 15 15 14 14 14 14 14 13 13 13 12 12
20 20 20 20 20 19 18 18 17 18 17 17 17 17 17 17 18 18 18 17 18 16 16 15 15 15 16 15 15 15 15 15 14 14 14 14 14 14 13 13 12 12 12
21 20 20 20 20 19 19 18 17 17 17 17 17 17 17 17 17 17 17 17 16 16 16 15 15 15 16 16 15 15 15 15 14 14 14 14 14 14 13 12 12 12 12
19 20 19 19 19 19 19 18 17 17 17 17 16 16 16 16 16 16 17 15 16 16 15 15 15 16 16 15 15 16 15 14 14 14 14 14 14 13 13 12 12 12 12
19 20 20 19 19 19 18 18 17 17 16 16 16 15 15 15 15 15 17 16 16 16 16 15 15 15 16 15 15 16 14 15 15 14 13 13 13 13 13 13 12 12 12
20 20 20 19 18 18 18 18 17 16 15 15 15 15 15 15 14 14 15 16 15 16 16 15 15 15 15 15 15 15 16 15 14 13 13 13 13 13 13 13 12 12 12
21 20 20 19 18 18 18 17 17 15 14 14 14 15 15 14 14 15 14 14 14 16 16 15 15 15 15 15 14 16 15 14 14 13 13 13 13 12 12 12 12 12 12
21 20 18 19 18 18 18 17 16 15 14 14 14 15 15 14 14 14 14 14 14 15 16 15 15 15 15 15 15 15 14 14 15 14 13 13 12 12 12 12 12 12 11
22 19 18 18 18 18 17 16 15 15 14 15 14 14 14 14 14 14 14 14 15 14 15 15 15 15 14 15 14 14 14 15 14 13 13 13 12 12 12 12 12 12 11
21 18 17 18 18 18 17 16 14 14 14 14 14 14 14 14 14 14 14 14 14 14 14 14 15 14 15 14 14 13 14 14 13 14 13 13 13 13 12 12 12 12 11
17 16 17 16 17 17 15 14 14 14 14 14 14 14 14 13 14 14 14 13 14 14 15 14 15 14 14 13 12 11 11 12 13 13 13 13 13 13 12 12 12 12 12
15 16 16 16 17 16 15 14 14 14 14 14 14 14 13 13 13 13 13 13 13 13 14 14 13 12 13 14 13 12 10 11 11 12 13 13 13 13 13 12 13 13 13
14 14 14 15 17 16 15 14 14 14 14 14 14 13 13 14 14 14 14 14 13 14 14 14 14 14 13 13 14 14 11 11 11 12 12 12 13 13 12 13 14 14 14
14 14 14 15 15 15 15 14 14 14 14 14 14 14 14 14 14 14 14 13 14 14 14 14 14 14 14 13 14 15 16 15 11 11 12 13 13 13 13 14 15 15 15
14 14 14 14 14 14 14 14 14 14 14 14 14 14 14 14 14 13 14 14 14 13 14 14 14 14 15 14 14 14 15 15 15 12 11 12 13 14 14 14 15 15 15
13 14 13 13 13 14 14 14 14 14 14 14 14 14 14 14 14 13 14 14 13 14 14 15 14 14 15 15 15 15 16 15 13 13 11 11 12 14 15 14 15 16 16

GFSSE_925_temp_120.txt.gz
Temp
27 25 25 23 23 22 22 22 22 21 21 21 21 21 21 20 20 20 20 20 20 19 19 19 19 19 19 18 19 18 19 18 18 18 18 18 17 17 18 19 19 18 18
28 25 26 25 24 21 21 22 22 22 21 21 21 21 20 20 20 20 20 19 19 20 19 19 19 19 18 18 18 18 18 18 18 18 18 18 17 17 18 18 19 17 17
27 25 25 24 23 21 21 21 22 22 21 20 21 21 20 20 19 19 19 19 20 19 19 19 19 18 18 18 19 18 18 18 18 18 19 20 18 17 17 18 17 17 17
26 24 23 24 23 20 21 21 22 21 21 21 20 20 20 19 19 19 19 20 19 19 19 18 18 18 18 18 18 18 18 18 18 20 21 19 18 16 16 16 17 16 16
25 25 23 24 24 22 21 21 22 20 20 21 20 20 20 19 19 19 19 19 19 19 19 18 18 18 18 18 18 18 18 18 19 21 22 20 19 16 16 17 17 16 17
25 24 22 24 23 22 21 21 22 21 19 20 20 20 20 19 19 19 18 19 18 19 19 19 18 18 18 18 18 18 18 18 20 22 21 18 18 16 16 16 16 16 16
25 24 22 23 22 21 21 21 22 21 19 19 20 20 20 20 20 20 18 19 18 18 18 18 18 18 17 17 18 17 18 18 21 21 20 19 16 15 16 16 16 15 15
25 22 21 23 20 19 20 20 21 21 21 19 20 20 20 19 20 20 19 20 20 18 18 18 18 18 17 17 17 17 17 18 20 21 21 17 15 15 15 15 15 15 15
23 22 21 23 19 18 19 19 20 21 21 21 20 20 20 19 20 20 20 18 19 18 18 18 17 17 16 16 17 17 17 18 20 20 20 17 15 15 14 15 15 15 15
22 21 21 20 19 18 18 18 19 19 20 21 20 20 20 20 20 19 19 19 19 18 19 18 17 17 16 16 16 16 16 17 20 19 20 17 15 14 14 14 14 14 14
22 22 21 19 18 18 18 18 18 18 19 20 19 19 19 18 18 18 18 19 19 19 18 18 17 17 16 16 16 16 16 19 19 19 19 15 15 14 14 13 13 13 13
24 22 21 20 19 18 18 18 18 18 18 18 18 18 19 20 19 19 18 19 19 18 17 16 17 17 16 16 15 16 18 19 19 19 18 15 14 14 13 13 13 13 13
26 24 22 20 19 18 18 18 18 18 18 19 19 19 19 19 18 18 18 17 18 17 17 17 17 16 17 18 17 17 18 17 18 18 16 15 14 14 13 13 13 13 12
26 25 22 20 18 18 18 18 18 18 18 19 19 19 18 18 18 18 18 17 17 16 16 15 15 17 18 18 18 17 17 18 18 18 15 14 14 14 13 13 13 13 12
25 24 23 21 18 18 18 18 18 18 18 18 17 18 17 17 18 17 17 17 16 16 16 16 16 17 17 17 17 17 17 17 17 18 16 14 14 14 13 13 13 13 13
26 25 23 22 20 18 17 17 17 17 18 17 17 17 17 16 16 15 17 16 17 16 17 16 17 18 17 17 16 17 17 17 16 17 16 14 14 14 13 13 13 13 13
27 27 24 23 21 20 18 17 17 17 17 17 17 17 17 16 16 15 15 15 16 16 15 16 16 17 17 17 17 17 16 16 16 16 16 15 14 13 13 13 13 13 12
26 26 25 24 22 20 20 19 17 16 16 16 17 16 16 16 16 15 15 15 15 15 15 15 16 17 17 17 17 17 17 16 16 16 17 16 16 15 13 13 13 13 12
25 25 25 24 22 20 20 20 19 18 16 16 17 17 16 16 15 15 15 14 14 14 14 15 15 17 17 17 17 17 17 16 16 16 16 16 16 16 15 13 13 13 12
23 23 22 22 22 20 19 19 17 16 15 15 15 16 16 15 15 15 15 14 14 14 13 13 15 17 17 18 18 17 17 17 16 16 16 16 16 16 16 14 13 13 12
22 22 22 21 20 19 18 18 16 15 14 15 14 14 14 15 15 14 14 14 14 13 13 14 15 17 18 17 17 16 16 16 16 16 16 16 16 15 15 15 15 15 13
22 21 21 20 20 19 17 16 16 15 15 14 14 14 14 14 14 14 14 14 14 13 13 14 15 17 18 17 17 17 16 15 15 15 16 16 16 16 15 15 15 15 16
22 21 21 21 19 18 19 16 17 15 15 14 14 14 14 15 15 14 14 14 13 13 13 13 15 16 17 17 18 18 18 18 17 16 15 16 15 15 16 15 15 15 14
21 19 20 20 19 16 17 16 17 17 17 16 15 14 14 15 14 14 14 14 13 13 13 13 14 16 17 17 18 19 19 20 19 17 16 16 15 15 15 15 14 13 14
20 18 18 19 16 15 16 18 18 19 19 17 15 15 15 14 14 14 13 13 13 13 13 13 14 16 16 17 18 18 19 18 19 20 18 17 16 16 16 14 14 13 15
20 18 16 16 16 15 15 17 18 19 18 16 15 16 15 13 13 13 13 12 12 12 12 12 13 15 16 17 17 17 18 18 19 20 21 18 17 16 16 15 14 15 15

GFSSE_925_temp_123.txt.gz
Temp
31 27 26 25 24 23 22 22 22 22 22 22 22 22 21 21 21 20 20 20 20 20 19 19 19 20 20 20 20 20 20 20 20 19 18 18 18 18 19 19 19 18 18
31 25 27 25 24 23 22 22 22 21 21 22 22 22 21 21 20 20 20 20 20 20 19 19 19 19 19 19 19 19 19 19 19 19 18 18 17 18 18 19 19 17 17
30 26 26 26 24 23 22 22 22 22 21 21 21 21 21 20 20 20 20 20 20 19 19 19 18 18 18 19 19 19 19 19 19 20 20 20 18 17 18 18 17 17 17
29 27 24 26 25 23 22 22 22 22 21 21 21 21 20 20 20 20 20 20 19 19 19 18 19 19 18 18 19 19 19 19 20 20 21 20 18 17 18 17 17 17 17
29 28 26 25 24 23 22 22 22 23 21 20 20 20 20 20 20 20 20 20 19 19 19 18 19 18 19 18 18 18 19 20 21 21 21 20 19 17 16 17 17 17 17
29 28 25 24 25 23 21 21 21 22 21 20 20 20 20 20 20 19 19 20 17 17 18 19 19 19 18 18 18 18 19 21 22 22 20 19 18 16 16 17 17 16 16
29 27 24 25 24 24 22 21 21 20 19 20 19 20 20 20 20 19 21 23 18 21 19 18 19 19 18 18 18 18 19 21 20 23 21 17 16 16 16 16 16 16 15
28 26 22 23 24 23 22 21 21 21 19 19 19 20 20 20 19 19 20 20 20 20 20 18 19 18 18 18 18 18 19 20 22 23 20 17 16 15 15 15 15 15 15
27 25 23 20 21 22 21 21 21 21 19 19 19 20 19 20 20 20 21 20 19 19 20 18 18 18 17 18 17 18 19 20 20 22 19 17 16 15 15 15 15 15 15
26 24 23 21 19 19 19 20 20 21 21 18 19 19 19 19 19 20 20 19 19 18 18 18 18 18 17 17 17 17 18 20 21 22 20 16 15 15 14 14 14 14 14
25 24 23 22 21 20 20 19 19 20 20 19 18 19 19 18 18 18 18 18 18 18 18 18 18 17 17 17 17 17 18 20 21 22 18 16 15 15 14 14 14 14 14
27 25 24 23 21 21 20 20 19 19 18 18 19 18 18 19 19 20 19 18 18 18 18 18 18 19 17 16 16 17 18 21 21 21 16 16 15 14 14 13 13 13 13
29 27 25 23 21 21 20 19 20 20 20 20 20 20 19 20 20 20 19 18 17 18 16 18 18 17 17 17 17 17 19 20 21 20 15 15 15 14 14 13 13 13 13
30 28 26 24 22 21 21 19 19 21 21 20 20 20 20 19 19 19 18 18 18 17 16 16 17 17 17 19 19 19 19 20 20 19 15 15 15 14 14 13 13 13 13
29 28 27 25 23 21 21 19 19 21 20 21 21 20 20 20 19 19 19 19 19 18 17 16 16 17 19 20 19 18 19 20 20 19 16 14 14 14 14 13 13 13 13
29 28 27 25 24 21 21 19 19 20 22 20 21 21 20 19 19 19 19 18 19 17 16 16 16 17 19 19 18 18 19 19 19 18 16 14 14 14 14 13 13 13 13
30 29 27 26 24 23 20 18 18 19 21 21 21 20 20 19 19 19 18 17 17 17 16 16 16 17 18 18 17 17 19 19 18 18 17 15 14 14 14 13 13 13 13
29 29 28 28 26 24 23 19 18 18 19 20 20 19 19 18 18 17 17 17 16 16 16 15 16 16 18 19 17 18 19 18 18 18 18 16 15 15 13 13 13 13 13
28 28 27 27 26 25 23 22 19 17 17 18 20 19 17 18 18 17 16 16 16 15 16 15 15 16 19 19 17 18 19 19 18 18 18 17 16 16 15 13 13 13 13
26 25 25 25 25 25 23 22 22 19 17 17 17 20 18 17 17 17 16 15 16 15 14 15 15 15 19 19 17 18 19 18 18 18 18 18 18 17 16 14 13 13 13
25 25 25 24 24 23 23 22 22 20 17 16 16 19 18 17 16 16 16 15 15 15 14 14 14 15 18 19 17 17 17 17 17 18 18 18 18 17 17 15 15 15 13
24 24 24 24 24 23 23 22 22 19 16 16 16 17 18 17 16 15 16 15 15 14 14 14 13 14 17 18 17 17 16 16 17 17 17 17 18 17 17 17 16 16 16
24 22 23 24 24 23 23 22 18 16 15 15 15 16 17 16 16 15 15 15 14 14 14 13 13 14 17 18 17 18 17 17 16 16 16 17 17 17 17 17 16 17 17
23 21 22 23 23 22 21 20 17 16 17 15 15 15 16 16 16 16 16 15 14 14 14 13 13 14 16 17 17 18 19 19 18 16 16 16 17 17 17 17 16 16 16
22 21 20 21 22 21 19 20 17 17 18 18 18 16 15 16 16 17 15 15 14 14 13 13 13 13 16 16 17 18 19 20 19 19 17 17 16 17 17 17 17 16 14
22 21 21 19 19 17 16 17 17 17 19 20 19 17 17 16 16 16 15 14 14 14 13 13 13 13 15 16 18 19 20 20 19 20 20 19 17 18 18 17 16 15 15

GFSSE_925_temp_126.txt.gz
Temp
27 29 28 26 24 23 23 23 23 22 22 23 23 22 22 21 21 21 21 21 21 20 20 20 20 20 21 21 21 21 20 20 20 20 20 19 19 19 18 18 18 18 18
28 29 27 25 24 23 23 22 22 22 22 22 22 22 21 21 21 20 20 20 20 20 20 20 20 20 20 21 21 21 21 20 20 20 19 18 18 18 18 18 17 18 18
27 28 27 26 24 23 23 22 22 22 22 22 22 21 21 21 20 20 20 20 20 20 20 19 19 20 20 20 20 20 20 20 20 20 19 18 18 18 18 18 17 17 17
28 27 27 26 25 23 22 22 22 21 21 21 22 21 21 21 20 20 20 20 20 19 19 19 18 20 20 20 20 19 20 20 20 19 20 18 17 17 18 18 17 17 17
28 26 27 27 25 24 23 22 22 21 21 21 21 21 21 21 20 20 20 19 19 18 17 18 19 19 19 19 20 20 20 20 20 19 19 19 17 16 16 17 17 17 16
29 27 26 27 26 24 23 22 22 21 20 20 20 20 20 20 20 19 20 21 19 21 20 17 17 19 19 19 19 20 21 19 19 19 18 18 17 16 16 16 16 16 16
29 28 26 26 26 25 23 22 22 21 19 20 20 20 20 20 20 19 20 20 21 20 21 20 18 18 19 19 19 20 20 19 19 17 18 18 18 16 16 16 16 16 16
28 27 25 25 25 25 23 22 22 21 18 20 19 19 20 20 20 19 20 20 21 20 20 19 18 18 18 18 19 20 20 19 19 17 17 19 17 16 16 16 16 15 15
27 25 24 24 24 24 23 22 22 21 18 19 19 19 19 19 20 20 19 20 20 20 19 18 20 19 19 18 19 20 20 19 19 18 17 17 17 15 15 15 15 15 15
27 25 23 22 22 23 22 22 21 21 19 18 19 19 19 19 20 20 20 19 19 19 18 18 18 19 19 19 18 19 20 20 20 18 17 17 16 15 15 14 14 14 14
26 24 23 21 21 21 21 21 20 21 21 18 19 18 18 19 19 19 19 19 19 19 19 19 19 19 19 19 18 18 20 20 20 18 17 16 16 15 15 14 14 14 14
26 24 23 22 21 20 20 20 20 20 20 19 18 18 18 18 19 18 18 18 19 18 18 18 19 19 18 18 18 18 19 20 19 18 17 16 15 15 15 14 13 13 13
26 25 23 22 21 21 21 21 20 19 19 19 19 19 19 19 19 19 19 18 18 18 17 18 18 18 17 17 16 18 19 19 18 18 16 16 15 15 14 14 13 13 13
28 26 24 23 22 21 21 21 19 20 19 19 19 19 19 19 19 19 18 18 18 17 17 17 18 18 17 17 17 17 19 20 18 17 15 16 15 14 14 13 13 13 13
30 28 25 24 22 21 21 20 19 20 20 20 20 20 19 19 19 19 19 18 17 17 17 16 17 17 17 17 18 18 19 20 18 17 15 15 15 15 14 14 13 13 13
30 29 26 25 23 22 21 20 20 19 21 21 21 20 20 19 19 19 19 18 18 18 17 16 17 17 17 18 17 19 19 20 17 17 16 15 15 15 14 14 13 13 13
30 29 28 26 24 23 21 21 20 19 21 20 21 21 20 20 20 19 19 18 18 18 17 17 17 17 17 16 18 19 19 19 18 17 16 15 14 14 14 14 13 13 13
30 29 28 26 25 24 22 21 20 19 20 21 20 21 21 20 20 19 19 18 18 18 17 17 16 15 16 16 17 19 19 19 18 17 16 15 14 14 14 14 14 13 13
29 29 28 27 25 24 23 21 20 19 19 20 21 21 20 20 19 19 19 18 17 17 17 16 15 14 15 16 17 17 18 19 18 17 15 15 15 14 14 13 13 13 13
26 26 26 26 26 25 24 22 20 18 18 19 20 20 19 20 18 18 18 17 16 16 16 16 15 15 15 15 16 18 18 18 18 18 16 16 15 15 14 14 13 13 13
26 25 25 25 25 25 24 23 22 19 18 18 18 20 18 19 19 18 17 17 17 15 15 16 14 14 14 15 16 18 18 18 18 18 17 17 16 16 15 15 14 13 13
25 25 24 24 24 24 23 23 23 22 20 18 17 18 19 18 18 18 17 16 16 15 15 15 15 14 14 15 16 16 14 17 18 18 18 18 17 16 16 15 14 14 14
24 23 23 23 23 24 24 23 23 22 19 17 16 17 19 18 19 18 17 16 16 15 14 14 15 14 14 14 15 17 15 14 16 17 17 17 17 17 16 15 15 15 15
23 22 21 21 22 24 23 23 21 18 17 16 16 16 18 17 17 17 17 16 15 15 14 14 14 14 14 14 14 17 17 17 15 14 16 17 17 17 17 17 16 16 16
22 21 21 20 20 22 21 21 20 17 17 16 16 16 17 16 17 16 16 16 15 14 14 14 14 13 13 14 15 15 17 18 17 16 15 15 16 17 17 17 17 16 16
22 21 21 21 20 19 18 18 18 18 17 16 16 16 16 16 16 16 17 16 15 14 14 14 14 13 13 14 14 15 16 17 17 16 15 15 15 17 17 17 17 16 16

GFSSE_925_temp_129.txt.gz
Temp
24 26 26 27 25 24 23 23 23 23 23 22 22 22 22 22 21 21 20 20 20 20 20 20 20 20 20 20 21 21 21 20 19 18 18 18 18 18 18 18 18 18 18
28 26 26 27 25 24 23 23 23 22 22 22 22 22 22 22 21 21 20 20 21 20 20 20 20 20 20 20 20 20 20 20 19 19 19 18 18 18 18 18 18 18 18
28 27 26 26 25 24 23 23 22 22 21 21 22 21 21 21 21 20 20 20 20 19 20 20 20 20 20 20 20 20 19 19 19 20 19 18 18 18 18 19 18 17 17
29 27 28 27 25 24 23 23 22 22 22 21 21 21 21 21 21 20 20 20 20 20 19 19 19 20 20 20 20 20 20 19 19 19 19 18 17 18 18 18 17 17 17
28 28 28 27 26 24 23 23 22 22 22 21 21 21 21 21 20 20 20 20 20 20 20 19 20 19 20 20 20 19 19 19 18 18 18 18 17 17 16 17 17 17 16
28 28 28 27 25 25 24 23 22 22 21 21 20 20 21 20 20 20 21 20 20 19 20 21 20 19 19 20 20 19 19 19 18 18 18 18 17 16 16 16 16 16 16
28 26 27 26 26 24 24 23 23 22 21 21 20 20 20 20 20 20 20 20 20 21 21 20 19 19 18 20 19 18 19 18 18 18 18 17 17 16 16 16 16 16 16
28 26 26 26 26 24 24 23 23 23 23 21 20 20 20 20 20 20 20 20 20 20 20 20 19 19 19 19 19 18 18 18 18 17 18 16 16 16 16 16 16 16 16
28 27 25 25 25 24 23 23 22 23 21 20 19 19 20 20 20 20 20 20 19 20 20 20 20 19 19 19 20 18 19 18 18 17 17 16 17 16 15 15 15 15 14
27 27 26 25 24 24 22 22 22 22 20 19 18 18 19 19 19 19 20 20 19 19 19 19 19 18 19 19 20 18 19 18 17 17 16 15 16 15 15 15 14 14 14
25 26 25 25 24 23 23 21 21 21 21 18 18 18 19 19 19 19 19 20 20 19 19 19 19 19 18 19 20 19 19 18 17 18 17 16 16 15 15 14 14 13 13
24 24 24 24 23 22 22 22 20 20 21 19 18 18 18 19 19 19 19 19 19 19 19 19 19 19 19 19 19 19 19 18 17 17 16 16 15 15 14 14 13 13 13
25 24 24 23 23 22 21 21 21 20 19 20 17 18 18 18 19 19 18 18 18 18 18 18 18 18 18 19 19 19 19 17 18 17 16 15 15 15 15 15 14 13 13
24 25 24 24 22 21 21 20 21 20 19 20 19 18 18 18 18 18 18 18 18 18 18 18 18 18 18 18 19 19 18 17 17 17 15 15 15 14 14 15 14 13 13
25 25 23 23 22 22 21 21 20 20 19 20 19 19 19 19 18 18 18 18 18 18 17 17 18 18 18 18 18 19 18 17 17 16 15 15 14 14 14 14 14 13 13
28 25 23 23 23 22 22 21 20 20 19 19 19 19 19 19 19 18 18 18 18 18 17 17 18 17 17 17 18 18 18 17 17 16 15 15 15 14 14 14 13 13 13
29 28 24 23 23 22 21 22 21 20 20 20 20 19 19 19 19 19 18 18 18 18 17 17 17 17 17 17 17 16 16 17 17 16 15 15 15 14 14 14 14 13 13
29 29 26 23 23 23 22 22 21 20 20 20 20 20 20 19 19 19 19 18 18 18 17 17 17 16 16 16 16 16 15 17 17 16 16 15 14 14 14 14 14 13 13
28 28 24 23 22 23 23 22 22 21 20 20 20 21 20 20 20 19 19 18 18 17 17 17 16 16 15 15 16 15 17 17 16 16 15 15 14 14 14 14 13 13 13
26 26 25 25 24 24 23 22 21 20 20 20 20 20 21 20 20 19 19 18 18 18 17 16 16 15 15 15 15 15 16 15 16 16 16 15 14 14 14 13 13 13 13
25 25 25 24 24 24 22 21 19 19 20 19 19 20 20 20 20 20 19 18 18 17 17 16 15 15 15 14 14 14 14 15 17 17 16 15 14 14 14 14 13 13 13
24 24 24 23 23 23 23 23 21 20 19 19 19 19 20 21 20 20 19 18 17 16 16 15 15 14 14 14 14 14 13 15 17 16 16 15 15 15 14 14 14 13 13
22 23 22 22 22 22 23 23 23 20 19 18 17 18 19 19 20 19 19 18 17 16 16 15 15 14 14 14 14 15 13 14 15 16 16 15 15 15 15 14 14 14 14
21 22 22 22 21 21 21 22 23 22 18 17 17 18 19 19 19 19 18 18 18 16 15 15 15 14 14 14 14 15 17 17 15 15 16 16 16 15 15 15 15 14 15
21 21 21 21 21 20 20 19 20 20 19 18 17 18 19 19 18 18 17 17 17 16 15 15 14 14 14 14 14 14 15 17 17 16 15 15 16 15 16 16 15 15 15
21 21 21 20 19 19 20 20 18 18 18 17 16 16 17 18 17 17 16 16 16 15 15 14 14 14 13 14 14 14 15 16 16 16 15 16 16 16 16 16 16 15 15